GFSGBSN_850_thetae_000.txt.gz
Theta_e
310 309 309 309 310 312 313 314 314 314 314 313 313 313 312 312 312 313 314 315 316 314 314 314 315 317 319 318 317 318 318 319 319 318 318 319 319 319 317 319 319 316 316 318 318 318 317
310 310 310 310 310 311 314 314 315 314 314 313 313 313 313 314 315 315 315 316 317 315 313 313 316 318 320 317 318 319 319 318 318 318 318 318 318 319 319 319 318 319 319 318 318 318 318
311 311 311 310 310 311 312 314 314 314 314 314 314 315 315 315 315 313 313 314 316 316 316 317 317 319 319 317 318 318 319 319 318 318 317 316 318 319 318 319 320 319 318 316 317 318 316
312 313 311 310 311 312 312 314 314 315 315 315 316 316 316 315 315 314 314 315 315 316 316 317 317 319 318 318 319 318 319 319 318 319 319 320 319 319 319 319 320 318 316 316 315 316 317
313 313 311 311 312 313 312 313 314 315 315 316 316 316 317 316 316 316 316 315 315 316 316 316 318 320 319 319 318 318 318 317 318 319 319 320 320 319 319 314 313 312 314 315 316 316 315
314 314 312 312 312 313 313 313 314 315 316 317 317 317 316 316 316 316 316 316 316 316 317 318 319 319 319 319 318 317 316 316 318 319 320 320 320 314 311 311 314 315 314 312 316 315 315
315 314 313 313 313 313 314 313 314 315 316 317 317 316 316 316 316 316 319 322 319 318 318 317 317 317 317 317 317 316 316 318 318 318 318 317 314 314 315 315 316 315 315 316 316 316 317
315 315 314 314 313 313 313 314 312 314 315 316 317 316 316 316 316 316 321 324 322 321 318 317 317 315 316 316 317 317 314 317 317 315 314 314 316 316 315 316 316 315 317 316 315 316 317
314 315 314 314 314 313 313 314 315 313 314 315 316 317 316 315 316 317 319 316 319 318 323 316 317 317 317 317 317 317 316 316 317 316 314 315 316 316 315 315 315 314 317 317 317 316 316
313 313 314 314 314 313 313 313 314 315 314 314 315 316 317 317 317 321 322 315 318 318 317 316 317 317 317 317 317 317 317 318 316 316 315 316 315 314 315 316 314 316 315 317 317 317 318
309 311 312 314 314 313 312 313 314 315 314 314 314 316 316 316 324 321 320 315 316 320 319 318 317 317 317 316 316 317 318 317 315 315 314 316 314 314 315 315 315 315 315 317 318 317 318
309 309 310 312 314 313 313 312 314 314 314 314 312 315 316 316 320 321 321 314 318 322 325 318 317 318 318 317 317 318 318 318 318 318 317 315 316 314 315 316 317 316 318 318 317 316 318
310 310 310 310 313 314 313 313 314 315 314 315 315 315 315 316 316 318 316 317 323 318 321 318 318 317 317 316 317 317 317 316 316 316 317 318 316 315 317 317 316 315 316 316 316 315 318
310 310 310 311 310 314 314 313 314 315 315 316 317 317 313 318 320 317 317 320 321 321 319 318 318 317 318 316 317 317 317 317 315 316 317 321 319 318 316 317 317 317 318 315 321 316 317
310 310 310 311 311 313 314 313 313 316 315 318 318 315 318 314 317 317 326 316 315 318 316 317 318 318 318 318 316 317 316 317 316 315 318 318 320 317 317 317 317 319 317 317 316 305 312
309 308 309 311 311 311 315 314 313 316 316 323 324 318 316 314 318 326 317 315 316 315 317 318 319 318 318 318 319 318 317 316 317 316 316 319 321 318 318 318 317 318 317 317 313 314 322
309 308 308 310 311 311 315 314 314 315 321 324 326 321 316 317 322 325 312 312 314 316 317 318 319 319 319 320 319 319 318 317 317 316 317 316 318 317 316 319 319 315 316 317 319 315 320
309 308 308 309 310 311 313 314 314 315 322 325 326 316 318 323 321 319 314 316 317 317 318 318 318 318 319 319 319 320 320 318 317 317 319 316 313 314 317 315 316 317 318 316 312 319 313
309 308 308 308 310 310 312 315 314 315 318 322 322 321 321 323 310 308 316 317 317 318 317 318 318 318 318 319 318 319 319 318 317 317 317 316 311 312 314 314 315 318 317 316 314 308 313
308 308 308 308 309 310 312 314 315 315 318 322 320 312 319 321 322 316 317 318 317 318 317 318 318 318 317 318 316 317 318 318 317 318 317 315 314 313 314 314 316 317 317 316 314 306 315
308 308 308 308 309 309 311 314 315 315 316 321 321 317 320 311 316 316 317 318 318 319 318 317 318 317 318 315 315 318 317 316 317 317 317 314 314 314 314 315 316 317 317 317 316 314 313
308 308 308 307 308 309 311 314 315 315 316 319 320 322 319 318 319 315 313 317 318 316 318 317 317 317 317 319 317 319 317 316 316 316 315 314 311 313 315 316 315 316 315 314 313 313 312
309 309 308 308 308 310 312 314 315 315 319 318 318 319 319 316 314 310 311 317 317 317 318 317 317 315 312 318 318 318 318 317 317 315 312 313 307 307 316 311 312 315 312 312 312 311 310
310 310 309 309 309 311 314 315 316 315 319 318 319 319 317 307 311 311 317 317 316 317 317 317 316 312 317 318 317 316 315 312 311 312 314 306 304 305 311 311 317 314 311 311 311 311 311
312 311 310 311 312 313 315 316 316 316 316 318 316 319 318 305 313 318 317 317 316 316 317 317 317 317 317 316 306 305 304 304 305 313 314 312 307 309 310 314 313 313 312 313 312 312 312
312 312 313 313 314 315 315 315 316 315 316 316 316 318 319 316 310 317 316 316 309 310 314 317 317 316 316 308 302 303 304 307 311 311 311 307 302 304 310 312 315 309 309 313 313 312 313
313 313 313 314 315 315 315 315 315 315 315 315 316 316 318 317 317 318 317 312 317 316 310 315 317 316 315 306 307 309 307 309 310 305 304 303 306 306 299 305 306 307 310 313 307 310 312
313 313 313 313 314 315 315 316 316 316 317 316 316 317 316 317 317 318 317 317 317 317 306 315 313 312 306 307 307 305 310 305 308 308 307 307 304 308 306 310 313 311 311 311 310 311 310
313 313 313 313 313 315 315 315 316 317 317 317 317 316 317 317 316 317 317 317 316 317 317 316 315 314 314 305 305 300 308 307 303 312 309 312 308 307 307 307 309 310 311 311 311 310 310

GFSGBSN_850_thetae_003.txt.gz
Theta_e
310 310 309 309 310 312 313 314 314 314 314 313 313 313 312 312 312 313 314 315 314 313 313 314 315 318 317 316 318 318 318 318 318 317 318 318 318 318 317 318 317 315 315 316 317 317 316
311 311 310 310 310 311 312 314 314 314 314 313 313 312 312 313 313 314 315 316 316 314 313 314 318 319 318 316 318 318 318 318 318 316 316 318 318 318 318 318 316 318 317 317 318 317 316
312 312 310 311 311 312 313 314 314 314 314 314 314 314 315 315 315 315 316 316 316 314 315 318 318 318 317 317 318 318 318 318 317 317 318 319 319 318 318 318 319 318 316 314 316 317 316
313 311 311 311 312 312 313 314 315 315 315 315 315 315 315 314 314 315 314 315 315 317 317 317 319 319 318 318 318 318 318 318 317 318 319 319 320 319 318 317 317 314 313 313 314 314 315
314 312 312 313 313 313 313 314 315 315 315 316 316 316 316 316 316 316 315 315 316 316 317 317 318 318 318 318 318 317 316 315 316 319 319 319 319 318 317 311 311 310 313 314 315 315 315
314 313 313 313 313 313 313 314 315 316 316 317 316 316 316 316 316 316 316 316 316 317 318 319 319 318 318 318 317 316 316 316 318 319 319 319 319 311 309 310 312 315 313 313 314 314 314
314 314 314 313 313 313 313 313 315 316 317 316 316 316 316 316 316 321 320 318 319 318 317 316 317 316 316 317 317 317 314 316 318 318 315 316 312 313 314 314 315 315 315 316 315 314 316
314 314 314 313 313 313 313 313 314 315 316 316 316 316 316 316 316 320 320 322 321 320 318 317 316 315 316 317 317 317 315 317 317 314 313 314 315 315 314 314 314 315 316 315 314 314 315
314 315 315 314 312 313 313 314 313 314 315 316 316 316 315 315 317 315 317 319 317 320 318 316 317 317 317 317 316 317 316 317 316 314 314 314 316 314 315 313 313 313 316 315 316 314 315
312 313 314 314 313 312 312 314 314 314 314 315 316 316 316 315 316 316 315 316 318 319 312 315 317 317 317 316 317 316 317 317 315 315 314 316 313 314 313 314 314 315 314 315 315 317 317
309 311 312 314 313 313 312 313 314 314 314 314 315 316 316 315 316 320 315 316 317 323 314 316 316 317 317 316 316 318 318 317 315 316 313 316 313 313 314 315 314 315 314 314 317 316 317
308 309 310 313 313 313 312 313 314 314 314 312 314 315 316 316 319 320 319 314 319 318 321 317 317 317 317 316 316 318 317 318 317 316 315 315 314 314 315 315 316 315 316 315 315 315 317
309 309 310 310 314 313 313 313 315 314 315 314 314 315 315 316 318 317 319 316 320 315 319 318 317 316 316 315 315 316 316 315 315 313 316 317 317 315 316 316 315 314 315 314 314 314 317
310 309 309 310 311 313 313 313 315 314 315 317 316 314 315 316 320 317 316 317 318 319 317 317 316 316 316 314 315 316 316 315 314 315 315 319 317 317 316 316 317 317 316 313 317 315 316
309 309 310 310 310 314 313 313 314 315 316 317 316 317 316 314 317 317 324 313 313 315 315 316 316 317 317 317 316 316 316 316 315 314 317 317 318 316 317 317 316 318 316 315 313 304 310
309 308 309 310 310 311 314 313 314 316 316 320 319 316 315 315 318 325 314 314 315 315 316 317 318 317 318 318 318 316 316 316 316 316 315 317 320 317 316 317 316 316 315 316 312 313 319
309 308 308 309 310 311 315 314 314 318 317 323 326 316 318 320 324 320 310 309 314 316 317 318 318 319 319 319 318 318 318 317 316 316 316 315 317 315 314 317 317 315 315 315 316 313 317
309 308 307 308 310 311 313 314 314 320 324 326 325 315 321 323 321 314 312 315 316 317 318 317 317 317 318 317 318 319 319 318 317 317 317 315 311 312 316 313 314 316 315 314 315 315 311
309 308 308 307 309 310 312 315 315 317 322 321 320 320 322 323 311 305 315 316 316 316 316 317 317 317 317 317 318 318 318 317 316 317 317 314 311 311 312 312 312 316 315 314 310 307 313
308 308 308 307 308 310 311 314 315 316 321 321 319 311 319 321 317 314 315 316 316 317 317 317 316 317 316 316 314 316 317 317 317 317 316 315 312 312 313 312 313 316 315 315 313 305 312
308 308 307 307 308 309 310 313 315 315 319 320 318 316 318 310 314 316 316 317 317 318 317 316 316 316 316 314 314 317 316 315 316 316 315 312 314 313 312 313 314 315 316 316 315 313 315
307 307 307 307 307 308 309 312 314 314 318 319 319 319 317 317 317 313 310 316 317 316 317 316 316 316 316 317 316 318 317 315 315 315 314 312 310 314 313 313 314 315 314 313 313 313 311
308 307 307 307 307 308 308 311 314 314 317 318 319 319 317 313 310 309 309 315 316 316 316 316 316 313 312 317 318 317 317 317 316 314 311 312 306 307 309 309 308 310 310 312 311 310 310
309 308 308 308 307 308 309 311 314 314 317 317 318 317 316 306 306 309 316 316 315 316 316 316 315 311 316 317 317 316 315 312 310 311 313 305 304 304 305 311 313 311 310 310 310 310 309
310 309 309 308 308 308 310 312 315 315 318 317 317 317 316 304 309 316 315 315 315 315 316 316 317 317 317 316 305 304 304 303 303 311 311 307 307 309 314 313 310 312 311 311 310 309 310
311 311 310 309 309 310 311 313 315 316 316 316 315 317 316 316 310 316 315 315 307 308 312 316 316 316 316 307 302 303 304 306 310 309 308 305 300 304 308 312 315 309 308 310 312 312 310
312 311 312 311 311 312 313 314 315 315 315 316 315 315 317 316 315 316 316 311 314 313 308 313 316 315 314 306 306 302 306 308 309 304 303 302 305 308 308 309 306 306 308 310 312 311 311
312 313 313 313 313 313 314 315 315 315 315 314 316 316 316 316 316 317 316 316 316 315 306 313 312 311 306 306 303 304 298 304 307 307 306 307 307 304 306 308 310 310 311 311 311 311 311
313 313 313 313 314 314 315 315 315 316 316 316 316 315 315 314 315 316 316 316 316 316 315 314 314 313 314 306 304 300 304 305 302 312 307 311 308 306 309 308 308 310 310 310 310 310 309

GFSGBSN_850_thetae_006.txt.gz
Theta_e
310 310 310 310 311 312 313 314 314 314 313 313 313 313 313 312 312 312 313 314 312 313 314 313 317 316 315 317 317 318 318 318 317 317 319 318 318 318 316 316 317 315 314 315 316 315 315
311 310 310 310 311 312 313 314 314 314 313 313 312 312 311 312 312 313 315 314 313 313 313 316 318 318 316 316 318 318 318 317 316 318 318 318 318 317 317 317 315 317 316 316 316 316 316
312 310 311 311 312 312 314 314 314 314 313 313 312 312 313 314 314 315 316 315 314 313 316 318 318 317 317 317 317 318 317 317 316 318 319 319 319 318 317 317 317 317 316 312 314 314 315
312 311 312 312 312 312 313 314 314 314 314 314 315 314 314 314 314 315 315 315 315 316 317 318 319 318 317 317 317 317 316 316 316 319 319 319 319 318 316 316 314 311 310 312 313 313 314
312 313 313 313 312 312 313 314 315 315 315 315 315 315 315 315 315 315 315 315 316 317 317 318 318 318 317 317 316 316 315 315 318 319 319 319 319 316 314 309 310 308 312 313 312 313 314
313 314 313 313 312 313 313 314 315 316 316 316 316 316 316 316 316 316 315 316 317 318 318 318 318 317 317 316 317 316 313 318 318 318 319 318 316 309 308 309 310 314 312 313 313 313 313
314 314 313 313 312 313 313 314 315 316 316 316 316 316 316 316 320 319 316 317 318 317 316 315 315 315 316 316 316 316 313 318 317 316 312 314 311 312 313 313 313 314 313 315 313 313 315
314 314 314 312 312 312 313 313 315 316 316 316 316 316 315 316 319 319 318 319 318 319 316 316 316 315 316 316 316 316 316 317 316 313 312 312 313 313 312 312 313 314 315 312 312 313 315
314 315 314 313 312 311 313 313 314 315 316 315 315 315 315 316 315 318 320 317 318 319 315 316 316 316 316 316 316 316 317 317 314 312 312 313 314 313 313 312 313 313 314 314 315 313 314
312 313 314 313 313 312 312 314 313 313 315 316 315 315 315 317 315 317 318 317 317 320 311 314 316 316 316 316 315 317 317 316 314 313 314 314 312 312 314 314 313 315 313 314 314 316 317
310 311 313 314 313 312 312 314 314 313 313 315 316 315 315 315 315 315 316 316 317 323 311 314 315 317 317 315 315 317 317 317 315 314 313 313 313 314 315 315 314 315 314 315 315 315 315
308 309 310 313 313 313 312 314 314 314 314 313 315 315 315 318 316 318 315 315 321 314 316 316 316 316 315 316 316 317 316 317 316 314 314 315 314 313 314 314 315 314 315 312 313 313 316
309 309 309 310 314 313 312 313 314 314 315 312 314 315 315 319 318 318 318 316 316 314 317 317 316 315 313 313 315 315 314 313 314 313 315 315 316 315 315 316 315 313 312 311 313 313 316
309 309 309 310 311 313 313 312 315 314 316 315 314 314 315 315 316 317 316 316 316 317 316 315 315 315 315 314 315 314 315 314 313 313 314 318 314 316 315 316 317 316 314 311 315 313 314
310 309 309 310 310 314 313 313 315 314 317 316 316 314 314 318 318 316 323 311 312 313 315 316 316 316 317 317 315 315 315 315 315 314 316 316 317 315 316 315 315 317 315 314 312 302 309
310 309 309 310 310 311 314 313 316 315 318 319 315 315 315 315 317 324 313 313 314 313 315 316 317 317 317 318 317 315 316 315 315 315 314 317 319 315 315 316 315 315 313 314 311 312 316
309 308 308 308 310 311 314 313 317 316 319 323 323 316 321 322 323 318 309 308 313 317 317 317 317 318 318 318 317 317 317 316 315 315 314 314 315 313 313 315 316 315 314 313 314 312 312
309 309 308 308 309 311 313 314 315 321 320 325 321 313 323 322 317 310 311 314 316 316 317 316 316 316 317 316 318 318 318 316 316 316 316 313 310 311 314 313 314 314 314 312 309 312 309
309 309 308 307 308 310 311 314 314 320 324 322 319 320 321 321 310 304 314 315 316 316 315 315 316 316 315 316 317 317 317 316 316 316 316 313 310 309 309 311 311 315 315 312 307 307 312
309 309 308 307 307 309 310 314 314 317 321 320 318 313 319 317 314 312 314 315 316 317 315 316 315 315 315 315 313 316 317 316 316 316 315 314 310 310 310 310 310 314 315 313 313 313 312
308 308 308 308 307 308 310 312 315 315 320 318 317 316 316 310 313 314 315 315 317 316 315 316 315 315 315 314 314 317 316 314 314 315 314 311 314 312 311 311 311 313 314 313 312 312 315
308 308 308 307 307 308 309 310 314 314 318 318 318 318 316 315 315 313 309 315 317 315 315 316 315 315 315 315 315 317 316 315 314 314 313 310 309 312 311 311 311 312 312 312 312 312 311
308 307 307 307 307 307 308 309 313 314 316 318 319 317 318 310 308 308 309 314 315 315 315 315 315 312 311 315 316 316 317 316 314 313 311 311 305 307 308 308 307 307 308 310 311 310 310
308 307 307 307 307 307 308 309 312 314 315 316 318 317 315 306 303 308 314 315 314 315 314 314 315 310 315 317 317 315 314 309 309 311 313 305 303 304 306 310 314 310 310 309 309 308 308
309 308 308 308 307 307 308 310 313 314 315 316 317 316 314 303 308 314 314 314 314 315 315 315 316 315 316 316 305 303 303 302 303 308 308 306 305 308 313 313 310 312 310 311 309 308 308
310 310 309 309 308 308 309 311 314 315 316 317 317 317 315 314 309 315 314 314 306 307 310 315 316 316 315 306 301 302 304 306 310 308 305 304 299 303 308 312 314 309 307 308 310 309 310
311 310 310 310 309 309 311 313 314 315 315 316 315 315 316 314 314 315 314 311 314 312 307 311 315 314 314 300 304 301 306 306 309 303 301 302 305 312 312 311 308 306 307 309 312 310 310
311 311 311 311 311 310 312 313 314 315 315 315 316 315 316 315 315 316 315 315 314 314 306 312 311 310 305 307 304 305 296 303 306 306 305 305 303 301 305 308 308 307 310 311 310 311 310
312 311 311 312 312 312 313 314 314 315 315 314 315 315 315 315 314 316 316 316 315 315 315 313 312 312 312 304 303 299 302 300 304 311 305 308 307 308 310 307 307 309 311 311 310 310 309

GFSGBSN_850_thetae_009.txt.gz
Theta_e
310 310 310 310 311 311 312 313 314 314 313 313 313 313 313 313 313 312 313 313 312 314 314 316 317 316 317 317 317 318 317 317 317 318 318 318 318 317 317 316 316 315 314 314 314 314 314
311 310 310 311 312 312 313 314 314 314 313 313 312 312 312 312 312 313 314 312 313 314 315 317 317 316 316 316 318 317 317 317 317 318 318 318 317 318 317 315 316 316 315 314 315 314 315
312 311 312 312 312 313 313 314 314 313 313 312 311 311 311 312 313 314 313 313 313 315 317 318 316 316 317 317 317 317 316 316 317 318 319 319 317 317 317 317 316 315 315 314 313 313 314
312 312 313 312 312 313 314 314 314 314 313 313 313 313 314 314 315 315 314 313 315 317 317 318 317 317 317 317 316 315 314 315 318 319 319 319 318 317 315 316 313 314 314 317 314 315 315
313 313 313 312 312 313 314 314 314 314 315 314 314 314 314 314 314 315 314 315 316 317 317 318 318 317 317 316 316 315 315 317 318 319 319 319 317 315 313 314 315 314 315 315 316 313 316
314 313 313 312 312 313 313 315 315 316 316 315 315 316 316 315 315 315 315 316 317 318 317 317 317 316 316 316 316 314 317 318 318 318 317 318 315 315 314 314 315 316 315 315 315 315 317
314 314 312 312 312 313 313 314 316 316 316 316 316 315 316 320 316 315 316 317 317 316 315 315 315 315 316 316 316 315 317 317 316 316 316 313 316 315 314 313 313 314 314 316 315 314 317
314 314 313 312 311 312 313 314 315 315 316 316 315 316 317 320 318 319 317 317 317 316 314 315 315 315 316 316 317 317 317 316 315 314 313 315 315 313 312 312 313 314 315 314 314 313 316
314 314 313 312 312 312 313 313 314 315 315 315 315 316 317 316 319 318 316 317 318 317 315 316 316 316 316 317 317 317 317 317 313 314 313 316 313 312 313 314 316 315 315 315 316 315 314
312 313 314 313 312 312 313 313 313 315 315 315 315 315 316 316 317 318 317 317 318 319 314 314 315 316 316 315 315 317 316 315 314 313 314 313 312 314 315 315 314 317 313 316 316 318 320
310 311 313 313 312 312 313 314 313 313 315 315 315 315 315 316 315 317 316 316 318 324 315 314 316 316 316 315 314 316 316 317 315 314 315 313 314 315 317 315 314 318 314 315 316 318 318
309 309 310 313 313 312 312 314 314 314 313 315 315 315 315 316 315 316 315 316 323 317 316 316 315 315 315 316 316 316 316 316 315 315 316 315 314 314 315 313 314 314 316 314 314 317 322
308 309 309 311 313 313 312 313 314 314 312 313 314 315 315 317 317 316 315 318 318 317 316 316 315 314 313 314 315 315 314 315 316 315 318 317 316 315 314 317 316 317 315 319 323 323 323
309 309 309 310 313 313 312 314 314 315 314 313 314 315 315 318 316 317 316 317 318 316 316 314 314 314 315 314 315 315 316 316 315 314 317 319 318 317 315 316 317 317 317 321 319 322 321
309 309 309 310 311 313 313 315 314 316 317 315 314 314 315 315 316 316 322 316 315 314 314 315 315 316 317 317 315 315 315 316 315 315 318 319 318 315 315 315 315 318 320 314 315 306 319
310 309 309 310 310 313 313 315 316 315 320 317 315 314 315 317 316 321 315 313 313 313 315 315 317 316 317 318 317 316 316 315 315 314 314 317 319 315 315 315 315 316 314 319 318 321 319
310 309 308 308 310 311 314 314 318 315 321 322 316 317 321 319 323 318 313 310 313 316 316 316 317 318 317 318 316 317 316 315 314 315 314 313 316 315 314 316 317 318 317 315 316 317 322
309 309 308 307 309 311 313 314 318 317 320 324 319 317 322 323 315 309 312 313 316 315 316 316 315 316 317 316 317 318 318 316 314 315 317 313 313 315 315 313 314 314 315 313 316 314 315
310 309 309 308 308 310 312 314 315 321 324 324 320 320 320 320 313 308 313 314 315 315 314 315 316 315 314 315 317 317 316 315 315 315 316 313 314 314 311 313 312 316 315 312 311 312 317
310 310 309 308 307 308 310 314 314 320 321 319 318 316 317 316 313 313 314 314 316 315 315 315 314 315 315 315 315 317 316 315 315 315 314 313 312 312 313 311 312 314 315 313 315 317 316
309 309 309 308 307 308 310 312 314 316 319 317 317 315 314 312 314 313 313 314 316 315 315 315 315 314 315 315 315 316 316 314 313 314 314 314 316 313 313 313 313 314 314 314 315 316 316
308 308 309 308 308 308 309 310 314 314 318 317 318 317 315 313 313 313 309 315 316 315 314 316 316 315 314 315 314 315 316 314 314 313 313 310 314 312 313 311 311 312 312 312 313 314 314
308 308 308 308 307 307 308 309 312 314 316 317 318 317 317 308 307 310 310 314 315 314 314 315 314 313 311 314 315 315 315 314 313 313 312 312 311 311 312 309 310 312 309 311 312 312 312
308 308 307 307 307 307 308 309 310 314 315 316 317 316 317 308 305 309 313 314 313 314 314 314 314 311 314 316 316 314 312 308 308 310 311 307 308 308 314 311 315 313 310 310 311 311 310
309 308 307 307 307 307 308 309 311 314 315 316 317 315 314 305 308 312 313 313 314 314 313 313 314 314 316 315 308 307 307 304 305 307 308 307 308 311 313 314 313 313 312 310 311 311 309
310 309 308 308 307 307 308 308 311 314 316 316 317 316 314 313 310 314 313 313 309 308 310 314 315 315 315 306 307 309 310 308 311 309 305 305 303 311 311 315 316 312 308 308 309 313 310
311 310 309 309 308 308 308 309 311 314 315 316 316 316 315 313 314 314 314 313 313 311 309 311 314 314 313 305 309 311 314 306 312 307 304 306 307 310 312 313 313 309 308 308 314 314 311
311 310 310 310 309 309 309 310 311 314 315 315 315 315 315 314 314 315 314 314 313 313 310 311 312 311 306 308 309 309 308 308 309 308 307 309 310 308 307 310 311 307 309 312 312 311 309
311 311 310 310 311 310 310 311 312 313 314 315 315 315 315 315 315 316 316 315 315 314 314 313 311 311 312 306 304 304 306 301 306 314 305 311 310 311 310 311 307 308 309 310 310 309 308

GFSGBSN_850_thetae_012.txt.gz
Theta_e
310 311 310 310 311 311 312 312 313 313 313 313 313 312 312 312 312 312 312 313 312 314 314 317 316 316 317 318 318 317 317 317 318 318 318 319 318 318 318 318 318 318 318 317 316 315 316
312 310 311 312 312 312 313 313 314 313 313 313 313 313 313 313 312 312 313 312 314 314 316 317 316 316 318 318 317 317 317 317 318 319 318 319 319 319 319 319 320 319 319 318 317 317 317
312 312 312 312 312 312 313 314 314 313 313 312 312 312 312 312 312 313 312 313 314 316 317 317 316 316 318 318 317 316 316 317 317 318 319 318 318 319 320 321 318 318 320 320 318 318 318
312 313 313 312 312 313 314 314 314 313 312 311 311 311 311 312 314 313 313 314 316 317 318 317 316 317 318 316 316 314 315 316 318 319 319 318 317 318 319 318 318 320 320 320 319 319 319
313 313 312 312 312 313 314 314 314 314 314 314 313 314 314 315 314 313 313 315 316 316 318 317 317 318 317 316 316 314 315 317 319 319 318 317 317 318 318 321 320 319 318 319 320 319 320
314 313 312 311 312 313 314 315 315 315 315 314 314 314 314 315 314 314 315 316 316 317 317 317 317 317 316 316 315 314 317 318 318 318 319 319 319 320 320 318 318 318 318 319 318 319 319
314 313 312 312 312 313 314 315 316 316 316 316 316 316 315 315 315 315 316 316 316 317 316 316 316 316 316 316 316 316 317 316 317 319 321 318 320 320 319 319 318 318 318 319 318 318 320
314 314 313 312 312 313 314 315 315 316 316 315 316 319 320 315 315 316 317 320 316 316 316 315 315 316 317 317 318 318 317 318 319 320 319 320 320 317 318 318 318 318 319 319 319 318 320
314 314 313 312 312 313 313 315 315 315 315 315 318 316 318 319 319 318 317 317 315 315 317 317 316 316 316 318 318 318 317 317 319 319 319 319 317 316 318 320 320 320 319 320 320 320 320
313 313 313 313 312 313 313 314 315 315 315 315 316 317 316 318 318 316 317 317 316 317 319 317 317 317 316 316 318 317 316 317 318 318 318 318 317 319 320 320 320 320 318 320 320 321 322
311 311 313 313 312 312 313 313 314 315 315 314 315 316 316 316 318 318 316 317 320 323 322 317 318 317 317 318 317 318 317 318 319 318 319 317 319 320 320 319 320 321 319 320 321 322 322
309 309 312 313 312 312 313 314 313 314 315 315 314 315 315 315 317 317 316 317 325 326 320 319 318 318 319 319 318 318 318 317 317 319 320 319 317 320 320 318 318 319 320 320 321 324 326
308 309 309 313 313 312 313 314 314 313 314 315 315 315 315 315 317 315 315 321 323 323 319 318 318 319 319 319 319 319 320 320 321 321 321 320 320 319 319 320 320 321 322 324 327 327 326
308 309 309 311 313 313 314 314 314 314 312 314 314 315 315 315 316 315 317 326 322 320 320 317 318 319 320 319 319 320 320 321 320 320 321 321 323 321 319 320 321 321 322 325 324 324 323
308 308 309 310 313 313 315 314 315 317 314 313 314 315 315 317 315 316 323 326 323 320 318 319 319 319 320 320 320 320 320 320 319 319 322 321 321 319 318 318 319 321 323 319 322 317 325
309 308 309 310 311 313 314 316 315 318 316 314 315 315 315 315 316 317 325 318 318 316 318 318 320 320 321 321 321 321 321 318 319 318 318 320 322 318 318 318 319 320 319 322 321 327 318
309 308 308 309 310 313 314 317 314 319 317 315 315 319 317 317 320 321 325 319 318 317 318 320 321 321 321 321 321 321 320 318 318 318 318 317 319 318 318 321 321 321 321 319 319 321 321
310 309 308 308 310 312 314 316 316 318 322 321 317 323 321 322 322 318 321 319 317 318 318 319 320 321 321 321 322 321 321 320 317 318 319 318 319 317 317 317 317 318 319 318 319 318 319
309 309 308 307 308 310 314 315 320 317 322 323 322 322 321 320 327 324 318 318 317 319 318 320 320 320 319 321 322 321 320 317 317 319 319 318 318 316 317 318 318 319 318 317 317 317 319
309 309 309 308 307 309 312 314 319 322 324 319 321 329 319 318 316 320 320 320 319 317 318 318 318 319 320 321 320 321 321 318 317 317 314 316 318 317 314 314 315 315 315 316 317 320 318
309 309 309 308 307 308 310 314 315 320 319 318 319 322 318 325 321 320 320 320 320 319 318 318 319 320 320 321 320 321 320 318 316 315 317 319 317 317 316 316 315 316 315 315 316 317 318
309 309 309 309 308 308 309 311 314 316 318 317 321 321 317 317 317 319 318 320 319 318 319 319 320 319 318 318 316 318 316 316 315 317 317 316 318 315 315 314 315 315 315 315 315 316 316
309 308 309 308 308 307 308 310 313 314 316 316 318 317 320 312 317 322 321 320 319 318 317 318 319 318 319 317 316 317 317 316 316 316 317 318 318 317 320 314 315 318 316 315 315 315 315
309 308 308 308 308 307 308 309 311 314 315 316 317 317 318 321 319 320 318 318 319 318 319 316 317 319 315 315 315 314 312 313 315 315 315 314 317 314 319 316 321 315 314 314 314 314 314
309 308 308 308 307 307 308 309 310 313 315 316 317 315 316 315 318 316 318 318 317 316 317 317 316 314 315 316 318 318 315 314 313 312 313 314 316 315 316 316 315 314 313 314 313 314 313
310 308 308 307 307 307 307 308 310 313 315 316 317 315 313 315 320 316 317 317 320 320 318 316 313 315 314 316 318 320 318 314 314 313 309 311 311 318 315 317 317 316 312 310 312 316 313
311 309 308 307 307 307 308 308 310 313 316 316 316 315 314 313 314 315 318 318 316 317 320 317 316 314 314 316 319 321 319 312 315 316 314 311 311 314 314 316 315 313 311 311 316 317 313
311 310 309 309 308 308 308 309 310 313 315 316 315 315 314 314 314 314 314 315 314 317 321 315 317 315 315 313 315 316 316 316 314 313 314 316 317 314 313 313 315 311 311 315 313 312 309
311 311 310 310 309 309 309 310 311 312 314 315 315 315 315 314 315 315 314 314 314 314 315 314 317 316 317 317 312 310 311 308 317 317 312 315 314 314 314 316 313 312 313 311 311 311 307

GFSGBSN_850_thetae_015.txt.gz
Theta_e
310 311 310 311 311 312 312 312 313 313 313 313 313 313 312 311 311 311 311 312 312 314 314 316 315 314 316 321 319 318 317 318 319 319 319 319 319 319 319 318 318 318 318 316 316 316 317
311 311 311 312 312 312 312 313 313 314 313 313 313 313 312 312 312 312 312 313 313 314 316 317 315 314 318 321 318 318 318 318 320 319 319 319 319 319 318 318 320 319 320 320 319 319 318
312 311 312 312 312 312 313 313 314 313 313 313 313 313 312 312 312 312 313 313 314 316 317 316 315 316 321 319 318 317 317 318 318 320 320 319 319 318 319 321 320 320 321 321 321 320 320
312 313 313 312 312 312 313 314 314 313 312 312 312 312 312 312 312 313 313 314 315 317 317 316 315 317 321 317 318 317 317 317 318 320 320 319 319 321 321 321 320 321 322 323 322 321 321
312 313 313 312 312 313 313 314 314 313 312 311 311 311 312 313 313 313 314 314 316 317 317 316 316 320 319 316 317 317 316 318 319 320 319 318 320 320 321 322 322 321 323 321 322 321 322
313 313 313 312 312 313 313 315 315 314 314 314 313 313 314 313 313 313 313 316 316 317 317 317 319 320 316 317 316 316 316 318 320 320 320 320 321 322 322 322 322 321 319 320 320 321 320
314 314 313 312 312 313 314 315 315 315 315 315 314 315 315 314 314 313 316 316 318 319 318 319 317 318 316 316 315 317 317 319 320 321 323 321 323 323 322 320 320 319 319 320 321 320 320
314 314 313 312 312 313 314 315 315 316 316 316 316 315 315 314 314 316 317 323 323 319 317 317 317 318 317 317 318 318 319 320 320 321 321 320 322 320 320 320 320 320 321 321 321 320 320
314 314 313 312 312 313 314 315 315 316 315 317 319 320 316 315 315 316 324 324 317 318 318 318 318 318 318 319 319 319 319 319 320 320 319 322 321 318 320 321 321 322 321 323 322 322 322
313 313 314 313 312 313 313 315 315 315 315 317 317 319 319 319 319 322 324 316 316 318 321 318 318 318 318 319 319 319 319 319 319 319 320 321 320 320 321 322 322 323 321 321 322 322 323
312 312 313 313 312 313 313 314 315 315 315 316 316 316 318 320 321 320 320 316 316 322 324 319 319 318 318 320 320 320 319 320 320 320 321 321 321 322 322 321 321 323 322 322 322 323 323
310 309 312 313 312 312 313 313 314 315 315 315 315 316 316 317 322 320 317 318 318 329 323 320 319 321 321 320 320 320 320 320 320 320 321 321 320 322 322 321 320 321 323 323 324 325 326
309 308 310 313 313 312 313 314 313 315 315 315 314 315 317 318 322 316 316 322 322 327 320 320 320 321 321 321 321 322 322 323 324 324 324 322 322 322 321 323 323 323 324 328 328 328 328
308 308 309 311 313 313 314 314 313 313 315 315 315 315 315 315 316 315 316 324 327 322 321 320 320 321 322 321 322 321 322 323 322 322 322 323 326 322 321 322 323 322 324 328 325 326 324
308 308 309 310 313 313 315 314 314 313 313 314 315 315 318 316 316 315 323 328 324 321 320 320 320 321 321 321 322 322 322 322 321 322 324 323 324 321 321 321 322 323 324 321 325 322 326
308 308 308 310 313 314 316 314 316 314 312 313 319 319 321 317 315 318 328 323 322 320 320 320 321 322 322 322 322 323 322 321 320 319 320 321 325 320 320 321 321 322 321 325 323 326 320
309 308 308 309 311 314 316 315 318 316 314 314 320 319 320 315 316 324 328 323 320 319 320 322 322 322 323 322 323 323 322 320 320 320 319 319 320 321 319 322 322 323 323 321 319 321 322
309 308 307 308 310 313 315 317 317 318 315 316 320 323 317 316 322 325 325 321 319 320 321 322 322 323 323 323 323 323 323 323 319 320 321 319 320 320 318 319 320 320 321 320 320 318 319
309 309 307 307 309 312 314 319 316 321 319 324 321 323 319 321 329 329 322 321 321 321 321 322 323 323 323 323 324 323 322 320 320 321 322 320 321 319 319 321 320 320 319 318 318 318 318
309 309 308 307 308 310 314 317 318 320 323 323 323 329 322 323 322 323 323 322 322 320 321 321 322 322 323 323 323 323 323 320 320 320 315 318 319 318 319 317 316 316 316 316 317 320 320
309 309 309 308 307 309 312 314 320 321 324 320 323 326 323 327 324 323 323 322 322 321 321 321 322 322 323 323 323 323 322 321 319 316 318 319 319 319 318 316 315 316 316 316 316 316 318
310 310 309 309 307 308 310 313 315 318 318 322 321 323 322 324 322 323 319 322 321 321 321 321 322 322 321 322 319 321 320 317 317 318 318 318 320 318 317 316 315 316 315 315 316 316 317
309 310 310 309 308 308 309 310 314 316 317 322 318 320 323 319 323 324 323 322 321 321 320 320 321 320 321 319 319 319 318 318 317 318 319 319 320 318 320 318 317 320 318 315 316 316 316
309 309 309 309 308 307 308 309 313 314 316 319 320 321 323 325 324 323 321 320 321 321 321 320 319 320 319 317 317 317 317 317 318 318 318 320 319 319 321 317 323 318 316 316 315 315 315
309 309 308 308 308 308 308 309 310 314 315 316 317 320 320 325 322 321 320 321 320 319 320 319 319 318 318 318 320 318 315 312 316 316 316 317 319 317 320 318 316 316 315 315 315 316 315
309 309 308 308 308 308 307 308 310 314 315 317 316 315 319 318 324 320 321 321 323 323 321 319 317 318 319 320 320 320 321 316 317 316 313 315 317 320 317 318 319 317 315 313 314 317 315
310 309 308 308 307 307 307 308 309 313 316 316 316 314 319 322 319 319 321 322 321 320 322 320 318 318 319 320 319 323 320 316 317 318 313 315 315 320 317 318 316 315 314 313 316 318 314
311 309 308 308 307 307 307 308 309 312 315 316 315 315 318 319 318 318 318 319 320 320 324 320 320 320 321 317 319 321 319 318 318 316 316 316 318 315 316 317 316 313 313 316 315 314 313
311 310 309 308 308 308 308 308 309 311 313 315 318 315 314 319 320 316 315 317 318 319 320 319 319 320 319 322 319 320 321 314 318 319 315 316 316 317 317 317 314 313 313 314 314 313 311

GFSGBSN_850_thetae_018.txt.gz
Theta_e
309 310 311 311 311 312 312 312 313 313 313 313 313 313 312 312 311 310 311 311 312 312 315 315 315 315 316 320 320 318 318 319 317 318 321 320 320 320 319 319 318 318 317 317 316 316 317
310 311 311 311 312 312 312 313 313 314 313 313 313 313 313 312 311 311 311 311 312 315 315 316 314 316 315 323 318 318 318 319 320 319 319 319 320 319 318 318 319 318 318 318 318 318 317
310 311 311 313 312 312 313 313 314 314 313 313 313 313 312 312 312 312 312 312 314 314 317 316 314 315 318 321 318 318 318 319 319 320 321 320 319 319 319 320 320 320 320 320 320 319 319
312 311 313 312 312 313 313 314 314 313 312 312 312 313 312 312 312 312 312 314 314 316 316 316 314 313 323 319 318 317 317 318 318 320 320 319 319 321 322 321 320 320 322 322 321 321 321
312 312 313 312 312 313 313 314 314 313 312 311 311 311 312 312 312 313 313 313 315 316 317 316 315 316 323 317 317 318 317 318 319 320 320 319 320 320 320 320 321 321 322 323 322 321 323
313 313 313 312 312 313 314 314 315 314 314 312 311 311 311 312 313 313 313 315 316 317 317 317 320 323 320 318 317 317 317 318 320 321 320 320 321 321 321 322 322 321 321 320 320 322 320
313 314 313 312 312 313 314 314 315 315 314 314 313 313 313 313 313 313 315 316 318 320 320 320 318 319 317 316 315 317 318 319 321 321 323 321 322 323 322 320 320 320 320 320 322 321 320
313 314 313 312 312 313 313 314 315 315 316 315 315 315 314 314 314 314 316 323 324 321 320 318 318 318 317 318 318 318 318 321 320 322 322 320 322 321 321 320 320 320 321 321 322 321 320
313 314 313 312 312 313 313 314 315 316 316 316 316 315 314 314 314 315 322 327 325 320 319 318 319 318 319 320 320 319 320 320 321 322 320 322 321 319 320 321 321 322 321 324 322 321 322
313 314 313 313 312 313 313 314 315 315 316 318 319 317 315 315 316 320 326 320 323 319 320 317 318 318 318 319 319 319 319 320 320 320 319 322 320 320 320 322 322 322 323 322 321 322 323
313 313 313 313 312 312 313 314 315 315 315 317 317 319 319 319 326 323 325 317 316 323 326 319 319 318 318 320 320 320 319 319 321 320 320 321 321 322 323 322 321 323 322 321 322 323 323
312 312 312 313 313 312 313 313 315 315 315 316 316 317 318 319 326 325 321 316 316 334 327 319 319 321 320 320 321 320 319 321 321 320 321 322 321 322 322 321 321 321 324 324 324 324 330
310 309 311 313 313 313 313 313 314 315 315 315 315 316 321 323 327 318 317 320 323 329 321 320 320 321 321 321 322 322 322 322 324 323 323 322 323 322 321 323 324 323 324 331 333 334 333
309 308 309 312 313 313 314 314 313 315 315 314 314 315 316 320 322 317 318 326 328 323 321 320 320 322 322 322 322 322 322 322 322 324 324 324 326 323 322 322 322 323 323 333 329 331 327
308 308 309 311 313 313 315 314 313 313 315 315 314 315 317 315 316 316 326 330 327 321 321 321 321 321 322 322 322 323 323 322 321 323 326 323 324 321 321 321 321 323 324 320 325 324 328
308 308 308 310 313 314 315 314 314 314 313 314 315 317 321 316 315 316 329 330 325 321 320 321 321 322 322 321 322 323 323 322 320 320 320 321 326 321 320 320 322 321 320 325 329 328 323
308 308 308 310 312 314 315 314 316 314 312 314 321 319 323 316 315 323 330 329 322 320 321 321 322 322 323 322 323 323 323 321 321 320 320 320 321 322 320 321 320 322 323 321 320 323 325
308 308 308 309 311 313 315 315 318 315 314 317 321 322 321 316 320 322 328 323 320 321 322 323 323 322 323 323 323 323 323 323 320 320 321 318 320 326 319 319 319 319 320 320 327 321 326
309 308 307 308 310 313 315 317 319 316 314 319 321 326 316 316 329 334 324 322 322 321 321 322 323 323 324 324 325 324 324 321 321 322 322 319 323 325 321 322 321 319 319 318 319 321 320
309 309 308 307 308 311 314 318 318 317 317 325 325 329 321 322 326 325 325 323 323 322 322 323 323 323 323 324 324 324 324 322 321 319 315 319 320 319 322 318 317 316 316 316 317 323 322
309 309 308 307 307 310 313 317 317 320 320 323 326 326 321 326 325 324 323 323 323 323 322 322 322 322 323 324 323 324 323 321 320 316 318 320 320 320 318 316 316 316 316 316 316 317 318
309 309 309 308 307 308 311 314 319 319 322 321 326 324 323 324 322 324 321 323 323 322 322 322 322 322 323 324 322 323 322 320 319 318 319 319 322 320 319 317 316 315 315 315 316 316 316
309 309 309 309 308 308 309 313 315 318 319 323 322 322 324 323 324 327 325 323 322 322 322 322 322 323 323 321 320 320 319 318 318 320 319 320 324 321 322 317 317 323 320 316 316 316 316
309 310 309 309 308 307 308 310 314 315 319 324 323 323 326 328 326 324 323 322 322 322 321 321 321 323 320 318 317 318 318 318 318 318 319 320 320 319 321 318 321 317 315 316 316 316 315
309 309 309 309 309 308 308 309 311 314 315 316 318 325 323 321 325 323 322 321 322 321 321 321 320 320 318 319 322 316 317 314 317 317 317 319 320 317 321 319 316 316 317 316 315 316 315
309 309 309 309 309 308 308 309 310 314 315 315 317 321 324 321 327 322 321 322 324 325 322 320 320 320 319 322 321 320 324 319 319 316 315 317 320 322 316 319 318 318 316 315 314 317 316
310 309 309 308 308 308 307 308 310 313 315 316 315 316 322 325 321 322 323 324 322 323 324 320 320 320 321 320 316 328 323 317 320 319 314 313 316 318 318 317 317 315 315 314 315 318 315
310 309 308 308 308 308 307 308 309 312 315 316 316 314 321 322 321 321 321 323 322 322 326 321 322 321 324 316 320 324 320 322 320 318 316 315 317 314 317 317 317 314 314 315 316 314 315
311 309 308 308 308 308 307 308 309 311 314 316 320 314 315 322 321 320 320 321 320 320 322 320 320 322 322 322 322 322 314 314 318 323 316 319 320 321 318 318 315 315 314 314 314 314 312

GFSGBSN_850_thetae_021.txt.gz
Theta_e
308 308 309 310 311 311 312 312 313 313 313 313 313 313 313 312 311 310 310 310 310 311 312 314 315 314 315 316 320 317 318 318 315 317 320 320 321 319 317 317 317 314 314 316 316 317 317
308 309 310 311 311 312 312 313 313 314 313 313 313 313 313 312 311 310 310 310 311 312 314 315 315 315 315 321 319 318 318 318 319 319 321 320 320 319 318 319 316 316 316 315 316 317 317
309 309 311 311 312 312 312 313 314 314 313 313 313 313 313 312 311 311 311 311 312 314 314 316 315 315 315 319 319 318 318 318 319 320 320 319 319 319 319 318 319 318 316 316 316 317 317
309 310 312 312 312 312 313 313 314 313 313 312 312 313 312 312 311 311 311 312 313 314 316 316 315 315 315 320 319 318 317 318 318 319 320 319 319 320 321 319 319 318 317 317 317 317 318
310 312 312 313 312 312 313 314 314 314 312 311 311 312 312 312 312 312 312 313 314 316 316 316 315 315 321 319 316 317 317 318 318 319 319 318 319 320 320 317 316 318 316 319 318 319 318
310 312 313 313 312 312 313 314 314 314 313 312 311 311 312 312 312 312 313 314 315 316 316 316 317 323 320 318 317 317 317 318 319 320 319 319 320 318 315 315 318 319 317 319 318 318 318
311 312 313 312 312 312 313 314 315 315 314 313 311 311 312 312 312 313 314 315 317 318 318 316 318 322 318 316 316 316 317 319 320 321 319 320 318 318 318 318 318 318 318 318 318 318 318
312 313 313 312 312 313 313 315 315 315 315 314 314 313 313 312 313 313 315 321 323 324 319 318 319 319 317 317 317 318 318 319 320 320 320 319 319 318 319 319 319 319 320 321 319 319 318
313 313 313 312 312 313 314 314 315 315 315 315 315 314 313 313 313 315 317 327 325 323 320 318 318 317 318 319 319 318 319 320 320 319 320 319 319 319 319 320 320 321 321 320 320 318 319
313 314 314 313 312 312 313 314 315 315 316 318 316 314 314 313 314 316 318 325 325 317 316 317 318 317 318 319 319 319 319 320 319 320 319 319 319 320 320 321 319 323 322 321 320 319 319
313 313 313 313 312 312 313 314 315 315 316 317 319 317 315 315 325 324 325 323 317 319 318 317 319 317 318 320 319 319 317 320 319 319 319 320 320 321 322 321 320 322 321 321 321 320 320
313 312 313 313 312 312 313 314 314 315 315 315 317 319 317 320 327 325 323 317 315 326 320 320 319 319 317 320 321 318 319 320 320 319 318 319 321 320 320 321 320 320 322 322 322 321 321
312 311 312 313 312 312 313 313 315 315 315 315 316 317 319 323 328 321 317 316 320 323 321 318 319 320 320 320 321 320 319 320 321 321 320 320 321 321 321 321 321 321 321 322 323 323 323
311 310 310 312 313 312 313 313 314 315 314 314 315 317 318 320 323 317 317 324 327 323 320 319 320 321 321 321 321 321 321 320 319 323 323 323 323 320 320 320 320 322 322 318 326 322 321
311 309 310 311 313 313 314 314 313 314 315 314 314 315 315 316 317 317 325 324 326 323 320 320 320 322 321 321 321 322 320 320 318 318 323 325 322 319 319 319 319 321 319 319 321 320 317
310 308 309 311 312 313 315 314 313 313 314 314 314 315 317 315 314 316 325 326 325 321 320 320 321 321 321 320 321 322 322 321 319 319 319 320 322 319 319 319 321 319 318 320 317 320 321
309 308 308 310 312 313 315 314 313 313 313 314 317 318 320 320 314 320 324 328 322 320 322 323 322 321 323 320 321 322 322 320 320 320 317 317 321 320 318 318 318 319 321 319 318 316 317
308 308 308 309 311 313 315 315 315 314 313 314 322 319 324 316 319 323 323 326 320 320 321 323 323 321 323 322 323 323 323 321 320 321 319 316 318 315 319 318 318 318 319 319 314 318 313
308 308 308 309 310 313 315 316 317 314 313 318 322 323 321 317 317 317 324 322 321 320 321 321 323 323 322 324 323 324 323 321 321 319 319 318 318 316 320 320 319 317 318 317 318 311 314
308 308 308 308 309 312 314 317 319 314 314 319 326 320 320 323 326 326 325 322 322 322 322 323 322 322 323 323 323 324 322 321 318 316 315 318 318 316 316 317 315 315 315 314 316 313 314
309 309 308 307 308 310 313 318 319 315 315 322 325 323 318 316 318 322 324 322 323 322 322 322 322 322 323 323 323 323 322 321 320 316 318 317 318 318 317 315 315 314 314 313 314 313 313
309 309 308 307 307 309 312 316 318 318 316 322 325 326 318 319 316 322 320 322 323 322 321 322 321 321 322 322 321 323 321 319 319 317 318 317 316 315 315 316 314 314 313 314 314 315 315
309 309 309 308 307 308 310 314 318 319 320 322 324 321 326 324 320 321 321 323 323 322 321 322 321 319 316 319 319 319 318 317 319 317 318 318 311 310 315 314 313 312 315 315 315 315 315
309 309 309 308 307 307 309 312 315 318 320 325 323 323 324 317 321 322 323 322 322 321 321 321 321 318 318 317 317 317 317 316 318 317 319 313 313 308 308 306 305 316 314 314 314 314 313
309 309 309 309 308 307 308 310 314 315 319 321 320 325 322 311 324 323 322 322 321 321 321 320 320 319 318 319 311 309 308 305 311 315 316 317 309 305 308 311 311 315 316 314 314 313 315
309 309 309 309 308 307 308 309 312 314 314 314 319 324 322 321 317 324 321 321 319 319 319 319 319 319 320 314 305 309 312 312 315 315 312 314 308 306 309 306 305 311 314 314 314 310 315
309 309 309 309 309 308 308 309 311 314 315 316 316 319 323 322 321 322 322 321 322 321 317 320 319 320 321 306 311 310 312 315 314 313 307 310 311 306 304 302 308 312 314 314 311 309 315
309 309 309 308 308 308 308 308 310 314 315 316 314 319 321 322 321 321 322 323 322 322 313 320 314 317 311 312 309 309 308 309 313 314 310 307 307 305 309 311 309 313 313 310 310 314 314
310 309 309 308 308 308 308 308 309 312 315 317 315 316 317 319 319 321 321 321 322 322 321 319 316 320 319 311 306 308 310 311 310 310 313 313 310 310 309 308 310 314 314 314 314 314 311

GFSGBSN_850_thetae_024.txt.gz
Theta_e
306 306 307 308 309 310 311 312 312 312 313 313 313 313 313 313 312 311 310 310 309 310 310 312 313 314 314 316 317 318 318 318 318 316 315 317 320 320 315 316 314 312 313 314 316 316 315
306 306 308 309 310 311 312 312 312 313 313 313 313 313 313 312 312 311 310 310 310 310 312 313 314 314 315 320 320 318 318 318 318 319 320 319 320 319 318 315 313 314 314 314 315 316 316
306 307 308 309 311 312 312 312 313 313 313 313 312 313 313 312 311 310 310 310 310 312 313 314 315 314 315 317 319 318 318 318 318 319 320 319 319 320 319 317 315 315 313 314 314 316 316
306 308 309 310 311 312 312 313 313 313 313 312 312 312 312 312 311 310 310 311 312 313 314 315 315 315 315 319 319 318 317 317 317 319 320 319 319 320 319 318 317 316 314 315 316 315 317
307 309 310 311 312 312 312 313 313 314 313 312 311 312 312 311 311 311 311 312 313 314 315 315 315 315 314 320 318 317 317 318 318 317 317 317 319 320 319 314 313 314 314 316 317 315 316
308 309 311 312 312 312 312 313 314 314 313 312 311 312 312 311 311 311 312 313 314 315 316 316 319 319 315 318 316 317 316 318 319 320 319 319 319 315 313 313 315 315 316 316 316 316 316
309 309 312 312 312 312 313 314 314 314 314 312 311 311 312 311 312 312 313 314 316 318 317 314 315 320 319 318 317 317 316 318 320 320 318 319 316 316 316 315 316 316 316 316 317 317 317
309 310 312 313 312 312 313 314 314 314 314 313 312 311 311 312 312 313 315 317 326 325 315 313 317 319 318 315 316 316 317 318 319 319 319 316 317 317 317 318 319 318 318 318 317 318 316
309 311 312 313 312 312 313 314 314 315 315 314 313 312 312 312 313 314 319 325 324 322 323 318 318 319 318 319 317 317 318 320 319 318 318 317 317 318 319 318 319 320 319 320 319 318 316
309 312 313 313 312 312 313 314 315 315 316 315 314 313 313 313 313 314 316 324 323 320 313 317 317 317 319 319 318 318 318 319 319 318 317 318 318 318 319 319 318 322 320 319 319 317 317
310 312 313 313 312 312 313 314 315 315 317 317 316 314 313 314 324 318 324 325 321 322 313 315 318 317 318 319 318 317 318 320 318 318 317 319 319 319 319 320 319 320 320 320 320 318 319
311 312 313 313 313 312 313 314 315 315 316 317 317 315 314 319 326 324 325 319 320 320 317 318 318 317 317 319 318 318 318 319 320 318 316 318 320 319 319 319 319 319 321 320 319 318 319
312 312 313 313 313 312 313 314 315 315 315 315 318 318 320 322 324 323 317 319 317 319 319 318 318 317 317 319 319 318 318 318 320 318 319 319 320 319 320 320 319 317 319 319 321 320 321
312 312 312 312 312 312 313 314 314 315 315 316 316 318 322 322 323 320 316 317 325 322 319 317 318 318 319 320 319 320 319 319 317 321 318 320 321 319 318 319 319 320 319 316 326 319 318
312 311 311 312 312 312 313 313 314 314 314 315 316 316 316 317 319 318 322 320 323 321 319 319 319 320 320 320 319 319 319 318 317 317 321 321 320 319 318 318 319 320 317 317 318 315 315
312 310 309 310 312 313 313 313 314 314 314 314 314 315 315 315 315 316 322 321 324 319 320 318 320 320 320 319 320 320 320 319 318 317 317 319 320 319 318 319 318 316 316 318 314 318 320
310 309 308 310 312 313 314 313 313 314 314 314 316 314 315 316 313 317 320 324 322 320 322 321 321 319 320 319 319 321 320 319 318 319 315 318 318 317 319 317 318 317 318 316 314 313 316
309 308 308 310 312 314 315 313 313 313 314 315 319 315 322 321 313 318 320 323 320 319 321 321 321 322 320 320 323 322 322 320 320 320 316 316 314 313 319 316 317 317 318 315 311 316 311
308 308 308 309 312 314 315 314 313 313 314 316 320 325 323 317 310 310 319 321 320 319 320 321 321 321 321 322 323 323 321 319 317 317 319 315 314 313 318 318 317 317 317 317 313 309 313
308 308 307 309 311 313 316 315 315 313 313 319 323 317 321 321 323 317 323 320 321 321 321 321 321 321 321 321 321 322 321 320 316 314 315 318 315 314 316 317 314 314 314 315 314 310 312
308 307 307 308 310 313 316 317 316 313 314 321 324 320 316 313 315 320 321 320 321 321 321 321 320 321 321 322 322 321 320 320 318 315 317 314 316 316 315 313 314 313 313 312 312 312 312
308 308 307 307 309 312 315 317 318 314 314 318 324 324 317 314 314 318 319 321 321 321 320 321 320 320 320 320 319 321 319 318 317 315 316 315 313 312 313 315 313 312 311 312 313 313 313
309 308 307 307 308 310 313 317 318 315 314 320 323 322 320 319 313 316 318 320 321 320 320 320 319 316 315 318 316 318 317 318 317 315 317 314 309 307 309 311 310 309 313 315 314 312 313
309 309 308 307 307 309 312 315 318 318 316 322 323 324 322 314 316 316 322 321 320 319 320 320 319 316 318 317 316 317 316 315 316 316 316 311 309 303 304 302 302 311 312 313 312 313 312
309 309 308 307 307 308 310 314 316 318 320 323 322 325 322 308 320 320 320 319 319 319 319 319 318 317 316 313 306 307 306 308 310 313 315 312 304 305 303 308 306 312 314 313 312 312 313
309 309 309 308 307 308 309 312 315 316 320 319 320 323 321 318 315 322 319 319 316 316 315 319 318 319 318 306 303 307 308 307 313 315 311 310 304 303 307 301 302 306 313 314 312 311 314
309 309 309 308 307 307 309 311 313 314 314 315 320 322 320 321 321 322 318 319 320 317 313 318 319 319 317 300 309 304 312 311 313 311 306 307 303 305 296 299 305 306 313 313 311 309 314
309 309 309 308 308 307 308 310 312 314 315 315 316 319 321 321 321 321 322 322 321 319 312 318 314 315 308 306 303 310 303 307 310 311 309 308 307 304 302 300 307 309 312 310 309 314 314
309 309 309 308 308 308 308 309 311 314 316 315 316 319 319 318 320 320 321 321 321 320 319 318 313 316 315 307 306 309 304 309 306 310 310 310 307 308 309 309 308 312 313 313 313 314 314

GFSGBSN_850_thetae_027.txt.gz
Theta_e
309 307 307 306 307 308 309 310 311 312 312 312 313 313 313 313 312 312 311 310 309 309 309 309 311 313 313 315 316 319 317 317 317 316 315 315 317 319 316 314 314 312 312 314 314 314 314
309 309 307 306 307 308 309 310 312 312 312 313 313 313 312 312 312 312 311 310 309 309 309 311 313 314 314 315 320 319 318 317 317 318 317 316 318 320 318 316 312 313 312 313 315 315 315
308 308 307 307 308 309 310 311 312 312 313 313 313 312 312 312 312 311 310 309 309 310 311 313 314 314 315 317 319 318 317 317 317 319 319 318 319 319 317 312 315 313 312 313 313 315 315
308 307 307 307 308 310 311 312 312 313 313 313 312 311 312 312 312 310 310 310 310 311 312 313 314 314 315 317 318 319 317 317 317 319 319 318 318 319 317 315 315 314 312 313 314 314 314
309 306 306 308 309 311 312 312 312 313 313 313 312 311 312 312 311 310 310 310 311 312 313 315 315 315 314 317 319 317 317 317 318 319 318 318 319 318 317 312 312 311 314 315 317 314 314
310 307 307 308 311 311 312 312 313 313 314 313 311 311 312 311 311 310 311 311 312 314 314 315 319 317 314 317 316 317 316 318 319 319 317 319 319 314 311 311 312 314 316 314 315 314 314
309 307 308 309 311 312 312 312 313 314 314 313 311 311 311 311 311 311 312 313 315 315 317 314 314 315 319 317 316 317 316 317 319 319 317 318 315 316 315 315 315 315 315 315 315 315 314
309 307 308 310 312 312 312 313 313 314 314 313 311 311 311 311 311 312 314 318 325 323 317 314 315 316 316 318 316 316 316 318 319 317 317 315 317 317 316 318 318 317 315 317 317 316 314
309 308 309 311 312 312 312 313 313 314 314 313 311 311 311 311 312 313 318 321 323 323 321 318 314 315 318 318 317 316 317 319 318 317 317 316 317 317 317 317 319 319 318 318 318 316 313
309 308 309 312 313 312 312 313 313 314 315 314 312 312 312 312 313 314 316 322 324 320 313 315 317 317 318 318 317 318 318 319 318 317 315 316 317 318 317 317 318 322 319 318 318 315 314
308 308 310 312 313 312 312 313 314 314 315 315 313 312 313 314 316 315 321 325 323 320 314 313 317 317 318 318 317 317 318 319 317 317 315 318 318 318 318 319 318 319 318 318 318 316 317
308 308 311 312 313 312 312 313 314 314 317 316 314 313 313 322 322 319 324 320 320 318 315 315 317 316 317 318 317 317 318 319 318 316 315 318 318 318 318 318 318 318 319 318 317 316 318
308 309 312 313 312 312 312 313 314 315 316 317 315 313 315 324 325 323 317 318 314 319 317 316 317 316 316 318 317 316 318 317 318 317 319 318 318 317 319 320 318 317 318 318 320 318 320
308 310 312 313 312 312 312 313 314 315 315 317 316 315 321 324 324 320 316 313 321 321 317 316 317 316 318 318 318 318 318 317 316 317 317 319 320 318 317 318 319 319 317 316 325 319 317
309 311 312 312 312 312 312 313 314 314 315 317 318 321 322 322 318 318 318 315 320 319 317 317 318 318 319 319 318 318 317 317 316 317 320 319 319 318 317 317 318 319 316 315 315 312 315
309 312 312 310 312 312 312 313 314 314 315 317 318 317 316 316 315 316 318 320 322 319 318 317 319 318 318 318 319 319 319 318 317 315 316 318 320 318 317 318 317 315 315 318 312 316 319
310 312 310 309 312 312 313 313 314 314 314 315 315 315 318 315 314 316 315 320 324 319 321 318 318 319 318 318 318 319 319 318 318 318 315 317 315 315 318 316 317 316 316 314 313 311 314
312 311 308 310 312 312 313 313 313 314 314 314 315 313 320 315 312 314 318 322 321 318 320 320 320 320 318 319 321 321 320 319 319 319 315 315 312 313 318 314 315 316 317 312 308 313 309
311 308 308 310 312 313 314 313 313 314 314 316 318 325 323 316 308 309 315 321 319 318 319 320 320 320 320 321 321 321 320 318 316 316 317 314 313 313 316 316 314 317 316 313 310 308 312
309 307 308 311 312 313 315 313 313 314 314 317 321 315 322 320 315 313 319 320 320 320 320 320 320 320 319 321 319 320 320 319 314 313 316 315 314 313 314 315 313 313 313 314 312 310 311
307 307 309 310 312 314 315 314 313 313 314 319 323 316 318 313 317 319 318 319 320 320 320 320 319 320 319 321 321 320 320 319 315 315 314 312 314 315 312 312 312 312 312 311 312 311 311
307 307 309 310 312 314 316 315 314 313 314 321 324 320 314 311 315 317 317 320 319 320 320 320 318 319 319 318 318 320 318 316 314 314 315 312 312 311 313 312 311 312 310 309 309 310 311
307 307 308 309 311 313 316 317 315 312 314 320 322 323 316 313 312 314 316 319 319 319 319 319 318 315 315 317 317 317 316 316 315 314 315 311 307 305 305 308 307 305 308 311 312 311 311
307 307 307 309 310 313 316 318 316 312 313 317 323 323 321 312 310 313 318 319 319 318 319 318 317 315 315 316 316 316 315 314 315 314 314 309 305 300 302 301 302 308 309 311 311 312 312
307 307 307 308 310 313 316 318 316 312 314 319 323 324 321 306 316 318 319 318 318 318 318 318 318 317 315 311 305 308 305 306 309 311 311 310 303 303 302 305 305 309 312 311 311 310 310
308 307 307 308 309 313 315 317 317 314 314 320 321 322 319 318 316 320 318 318 315 314 314 318 316 315 316 303 302 304 305 307 312 314 310 306 301 302 304 300 300 305 311 312 311 310 312
308 308 307 307 309 311 315 316 318 318 319 320 322 322 319 320 321 320 317 317 317 314 312 318 318 318 315 299 300 303 309 308 311 310 307 307 301 302 295 298 304 304 311 312 310 306 313
309 308 307 307 308 310 313 315 316 317 319 316 321 320 320 320 320 321 321 320 318 318 311 317 313 315 305 305 302 304 300 307 308 310 309 308 309 308 304 302 309 307 310 310 309 310 314
309 309 308 307 308 309 311 313 315 315 315 316 317 319 319 319 320 320 321 321 320 319 318 317 315 314 313 304 301 303 302 308 304 308 308 308 306 307 307 308 307 309 311 313 312 312 314

GFSGBSN_850_thetae_030.txt.gz
Theta_e
313 312 311 308 306 306 306 307 308 309 310 311 312 312 313 313 312 312 312 311 311 309 309 308 309 312 313 313 314 318 317 317 317 317 316 315 315 316 316 314 314 312 312 312 312 315 318
313 312 310 308 307 306 307 307 308 310 311 312 312 313 313 312 312 312 312 311 310 309 309 309 311 312 313 315 317 319 318 317 317 317 317 315 316 318 318 314 312 312 311 311 313 313 313
313 312 310 309 308 306 307 308 309 311 311 312 313 313 312 312 312 312 311 310 309 309 309 311 312 313 314 315 318 317 318 317 317 317 318 318 316 318 317 313 314 312 312 311 312 313 313
313 312 311 307 307 306 307 308 310 311 312 313 313 312 311 311 312 312 311 310 309 309 311 312 313 314 313 315 317 318 317 316 317 318 318 318 318 318 317 313 314 312 311 311 312 314 313
314 311 311 307 307 306 307 309 311 311 312 313 313 312 311 312 312 311 310 310 310 311 312 313 314 315 314 316 319 318 317 316 317 318 318 317 317 316 314 311 311 310 312 314 316 313 313
315 312 310 307 306 307 308 310 312 312 313 313 313 312 311 311 311 310 310 310 311 312 313 314 318 317 314 317 317 317 316 316 318 319 318 318 317 312 310 310 312 312 314 313 315 314 313
315 314 309 308 306 307 309 311 312 312 313 313 313 311 311 311 311 310 310 311 314 314 315 314 314 314 319 316 317 316 316 316 319 318 317 317 314 314 314 313 313 313 314 314 313 314 311
315 315 310 308 306 307 310 312 312 312 313 313 313 311 311 311 310 310 312 315 319 321 320 315 314 316 315 316 317 316 316 318 318 316 316 314 315 315 316 315 315 314 314 316 316 314 312
316 316 310 308 306 308 311 312 312 313 313 314 312 311 311 311 311 311 314 321 322 323 320 318 313 314 316 317 317 315 316 318 316 317 315 315 316 316 317 317 318 318 317 318 317 314 311
316 316 310 308 307 309 312 312 312 313 313 314 312 311 310 311 311 312 317 322 325 324 312 314 316 317 317 317 317 317 318 318 316 316 314 316 317 316 316 317 317 320 318 317 316 313 315
317 316 311 307 307 310 312 312 312 313 314 314 313 311 311 311 313 314 317 325 324 323 314 314 316 316 317 317 316 317 318 319 315 316 315 318 318 317 317 317 317 319 316 317 316 315 316
317 316 311 308 308 311 312 312 313 313 314 314 313 312 312 316 315 316 322 320 322 317 315 315 316 315 316 317 316 316 319 318 317 315 315 317 317 316 317 317 316 316 318 316 315 315 317
315 317 312 308 309 312 312 312 313 313 314 315 314 313 314 322 318 319 319 321 313 317 316 315 315 315 316 317 316 316 316 316 316 317 318 317 317 316 317 319 317 316 317 317 320 317 319
310 317 312 308 310 312 312 312 313 313 315 315 315 313 316 325 321 320 321 311 316 318 316 314 315 315 317 317 317 316 317 316 315 315 316 318 318 317 315 317 318 317 316 317 324 319 318
307 317 311 308 311 312 312 312 313 313 314 315 317 315 319 325 322 317 317 311 314 317 316 316 315 316 318 318 317 316 316 316 315 316 318 318 319 316 316 316 317 318 315 313 315 312 314
310 316 310 309 312 312 312 312 313 313 313 316 317 320 323 319 317 319 312 313 319 320 317 315 315 316 318 318 318 317 318 317 316 314 315 317 319 316 316 317 315 315 314 316 311 315 318
312 314 309 311 313 312 312 312 313 313 314 316 318 318 319 315 317 316 311 313 322 321 319 317 317 317 317 317 317 318 318 318 317 317 315 315 314 315 316 315 316 316 315 311 312 310 312
312 312 309 312 312 312 312 312 313 313 316 317 317 312 320 316 312 311 316 319 322 317 319 319 318 317 316 318 320 319 319 318 317 318 315 314 311 314 317 314 314 315 315 310 308 312 308
313 310 310 312 312 312 312 313 313 313 316 318 317 324 323 316 309 308 313 319 319 317 318 319 320 319 318 319 320 319 319 317 315 316 314 312 313 314 314 312 313 316 314 310 308 307 312
312 309 311 311 311 312 312 313 313 313 314 319 319 317 322 320 310 311 315 320 319 319 319 318 318 318 318 320 317 319 319 317 313 313 315 313 312 313 314 313 312 313 314 312 310 308 309
310 310 308 310 311 312 313 313 313 313 314 320 319 316 318 314 316 311 315 317 319 319 319 318 318 318 318 320 320 319 319 317 313 315 314 310 313 313 312 311 311 311 310 312 312 310 311
309 308 308 310 312 313 314 313 313 313 315 322 323 316 313 312 319 315 315 318 318 319 319 319 318 318 318 318 317 318 317 315 312 314 314 310 311 310 314 311 309 312 310 308 309 309 309
308 307 308 310 312 313 314 313 313 313 315 320 323 319 316 310 311 313 315 318 318 318 318 317 317 315 316 316 317 316 315 314 313 313 312 309 307 307 308 306 305 305 308 308 308 309 308
307 307 308 310 312 314 315 313 312 313 314 318 323 320 317 308 308 315 316 318 317 317 318 317 316 314 314 316 315 315 314 314 314 312 311 306 304 299 302 301 303 307 308 308 309 309 308
307 307 308 311 313 315 316 314 313 313 315 318 322 323 319 304 309 314 316 316 317 317 317 317 317 315 314 311 306 310 305 308 308 309 306 306 302 302 301 303 304 308 309 310 310 310 309
306 307 309 310 313 316 316 316 314 313 314 317 322 323 319 313 313 317 316 316 313 313 313 317 314 313 315 301 302 306 309 310 311 313 308 304 301 302 299 301 300 305 307 311 310 310 309
306 307 309 310 314 316 317 317 315 312 313 316 321 322 319 320 320 318 316 316 316 313 311 316 315 316 313 298 299 303 306 306 309 308 307 305 300 301 296 298 303 303 309 310 310 308 310
307 307 309 311 315 316 317 317 314 313 314 319 321 321 319 321 320 320 318 318 316 316 311 315 313 314 305 305 302 302 300 306 308 308 309 309 309 309 302 299 308 306 310 310 310 309 312
307 308 309 310 314 316 318 318 317 316 320 320 321 320 319 320 319 320 320 319 318 318 318 316 316 314 312 303 297 300 304 306 304 308 307 309 306 305 306 307 307 308 310 312 311 310 312

GFSGBSN_850_thetae_033.txt.gz
Theta_e
318 314 313 311 310 309 307 306 306 307 308 308 309 311 312 312 312 312 312 312 311 311 309 308 308 310 311 313 312 318 317 316 317 317 316 315 314 315 318 316 313 314 312 311 312 314 318
321 317 314 312 311 309 308 306 306 307 308 309 310 311 312 312 312 312 312 312 311 310 309 308 309 311 312 314 315 318 317 317 317 317 316 316 315 315 317 314 314 312 311 311 311 313 315
323 319 314 313 311 308 307 307 306 307 308 310 311 312 312 312 311 311 312 311 310 309 308 309 310 312 313 313 317 317 317 317 316 316 316 317 315 318 317 314 312 311 313 312 312 313 313
323 322 316 314 311 308 308 307 306 307 309 311 311 312 312 312 311 311 312 311 309 309 309 310 311 313 312 314 315 317 318 316 316 316 316 316 317 315 316 313 313 313 313 314 313 313 312
322 322 319 314 312 309 307 306 306 307 309 311 312 313 312 311 311 311 311 310 309 309 310 311 313 314 313 315 317 319 317 316 316 316 317 317 317 316 313 314 316 314 315 315 315 313 314
320 321 321 315 314 310 306 306 306 308 310 311 312 313 312 311 311 311 310 310 310 310 311 313 316 317 314 316 318 317 316 316 318 317 317 316 315 315 313 315 316 316 316 315 316 315 314
318 319 321 316 314 311 306 306 307 309 311 312 313 313 312 311 311 310 310 310 312 314 313 314 313 314 318 316 317 316 316 316 319 318 318 315 317 317 316 314 312 314 315 316 315 313 318
316 317 319 318 315 312 308 305 307 310 311 312 313 313 311 310 311 310 310 312 314 318 317 314 314 314 314 315 316 316 316 317 318 317 316 317 317 315 316 314 315 315 317 317 316 313 317
306 315 318 319 315 313 309 306 308 311 311 313 313 313 311 310 310 310 311 316 322 322 321 317 314 314 315 316 316 316 316 318 316 316 316 318 316 315 317 317 319 318 319 318 318 315 315
305 311 317 319 315 315 309 306 309 311 312 313 313 312 310 310 310 310 313 316 324 326 315 314 316 316 316 317 316 316 317 318 316 316 315 318 316 316 317 318 318 321 317 316 316 317 320
303 306 315 318 315 315 308 306 310 312 312 313 313 312 310 310 312 312 316 317 325 324 317 314 315 315 316 316 316 316 317 318 316 316 316 318 317 317 318 317 316 320 317 317 316 318 319
304 304 312 315 316 316 309 307 311 312 312 313 313 312 310 310 314 314 318 324 324 319 318 315 315 315 316 316 315 316 318 318 316 317 317 317 316 316 317 316 315 317 319 318 318 319 322
303 303 310 314 316 316 309 308 311 312 312 313 313 313 310 311 316 315 321 322 316 320 316 315 315 315 316 316 316 316 316 318 318 320 320 318 318 316 317 319 317 319 321 323 325 326 325
302 303 307 312 316 316 309 308 312 312 312 313 314 313 312 315 322 321 320 313 317 316 316 313 313 315 317 316 316 316 317 319 316 316 318 320 321 317 316 318 320 318 320 325 323 325 324
301 302 306 308 315 315 308 309 312 312 312 313 313 313 313 319 325 323 318 315 316 315 316 315 315 316 317 317 317 317 316 316 315 316 320 321 319 316 315 315 317 318 318 316 318 313 320
300 301 306 307 313 314 308 311 312 312 312 313 313 314 314 317 324 320 313 314 315 317 316 314 315 316 318 318 318 317 317 316 316 314 315 318 321 315 315 315 315 317 315 319 317 319 318
299 301 303 303 308 313 309 312 312 312 313 312 314 316 318 323 320 319 315 313 319 322 318 315 316 317 317 318 317 318 318 317 316 316 315 315 318 317 316 317 318 318 317 314 315 314 315
299 301 302 304 307 312 310 312 312 312 312 311 316 313 323 319 312 310 315 314 322 318 318 318 316 316 317 317 319 319 320 318 317 317 318 314 315 319 318 314 314 315 316 315 317 313 313
300 301 303 309 312 310 311 312 312 313 312 315 317 321 321 319 313 311 312 318 318 316 318 318 319 317 318 319 320 319 319 315 315 314 316 314 316 319 318 315 314 317 315 311 310 312 315
300 302 302 305 312 309 311 312 312 313 313 319 318 319 321 319 311 312 316 317 319 318 318 317 317 318 319 320 318 320 319 316 313 313 313 313 313 317 321 316 314 315 315 312 314 316 314
301 302 302 310 309 310 310 312 313 313 315 319 318 316 319 315 313 311 312 317 318 319 318 317 318 318 319 320 319 319 318 315 313 314 313 313 316 313 312 312 311 311 313 313 313 313 317
301 303 305 311 309 309 311 312 313 313 316 318 318 315 313 312 313 313 314 317 318 318 318 318 319 317 317 319 318 320 318 315 312 313 314 310 315 311 314 311 310 312 311 311 312 311 312
303 305 310 309 309 310 312 313 313 313 314 318 320 317 315 308 312 312 314 317 317 318 317 316 317 316 317 316 316 314 313 313 312 315 313 311 312 312 313 307 307 312 312 312 310 310 313
304 310 309 308 308 311 312 313 313 313 314 318 320 317 313 308 311 312 315 317 317 317 318 316 315 315 314 315 315 314 313 312 312 310 309 308 307 304 310 305 310 311 309 309 311 311 309
310 310 307 308 310 312 313 314 313 313 314 318 320 319 316 305 309 313 316 316 316 317 316 316 316 314 314 311 312 313 311 311 310 308 307 306 306 306 313 309 307 308 306 310 312 312 310
309 307 308 309 311 313 314 314 312 313 314 318 322 322 319 310 310 315 316 315 315 314 314 314 313 312 312 304 308 313 317 314 312 313 308 305 304 311 305 310 310 308 306 310 310 315 309
307 307 309 311 312 314 315 314 312 313 315 318 320 322 319 316 315 317 316 316 315 313 313 313 312 313 311 305 309 312 313 307 312 310 311 312 308 311 302 311 309 306 306 309 314 314 308
307 309 310 311 314 316 316 314 313 313 315 316 319 321 319 320 318 318 317 316 315 316 315 314 314 314 307 311 312 309 310 310 310 309 311 313 313 311 304 309 314 305 310 314 312 309 310
309 310 312 315 315 316 316 315 314 313 314 315 320 320 320 320 318 318 318 317 317 317 317 314 315 313 312 309 304 303 308 306 307 314 307 312 311 312 310 313 307 307 311 311 311 310 310

GFSGBSN_850_thetae_036.txt.gz
Theta_e
323 324 323 319 315 313 310 309 308 306 306 307 308 308 309 311 312 312 312 312 312 311 310 309 308 308 310 315 316 317 317 317 315 316 317 316 316 316 316 318 318 318 318 314 315 319 324
321 323 324 322 318 314 312 309 308 306 306 307 308 309 310 311 312 312 311 311 312 311 310 308 308 309 311 318 313 317 317 316 316 316 317 317 316 316 319 319 319 317 315 313 313 317 321
320 320 322 323 320 315 313 310 308 307 306 307 308 309 311 312 312 311 311 312 311 310 309 308 309 310 312 316 315 318 316 316 317 316 317 317 317 317 319 320 313 314 316 316 317 319 320
318 320 320 321 322 318 314 311 308 307 306 307 308 310 311 312 312 311 311 311 310 309 309 309 310 312 317 313 314 316 317 318 316 316 317 317 317 317 318 315 315 316 317 318 318 319 316
309 318 319 319 322 321 315 312 309 307 306 307 309 311 312 312 312 311 311 311 309 309 309 310 312 314 318 314 315 318 316 316 316 315 316 316 317 318 317 318 316 317 317 317 317 316 319
306 313 317 318 320 322 317 314 310 307 306 307 310 311 312 312 311 311 311 310 309 309 310 312 314 319 315 317 317 316 315 315 318 317 317 317 318 318 318 318 318 318 316 317 317 317 318
306 305 316 317 319 321 319 314 311 307 306 308 311 312 312 312 311 311 310 310 312 315 311 318 316 318 316 317 317 316 315 317 319 319 320 319 320 318 318 318 318 318 320 319 318 318 319
304 305 307 316 318 318 321 315 312 307 306 308 311 312 313 312 310 311 310 313 315 318 319 313 315 315 314 314 318 316 316 318 319 319 320 321 320 319 319 318 319 319 320 321 319 317 320
304 303 305 311 315 317 320 316 314 308 306 309 311 312 313 312 310 310 310 310 318 321 324 318 316 316 316 316 317 317 316 318 318 319 321 320 320 319 320 320 321 321 322 321 321 319 321
303 302 303 304 313 317 319 317 315 309 306 310 311 312 313 311 310 310 310 312 316 324 321 317 317 316 314 317 317 316 317 318 320 319 321 321 319 320 321 321 321 322 321 321 320 321 322
300 302 302 303 307 315 318 318 315 310 307 311 312 312 313 310 310 309 313 313 318 324 317 316 317 316 317 318 317 318 317 318 319 320 320 321 321 321 321 321 320 323 320 321 321 322 323
301 301 302 303 303 312 318 318 315 310 307 311 312 312 313 310 310 311 313 320 325 325 319 317 317 318 318 317 317 318 319 318 319 321 321 321 319 321 321 320 320 321 323 323 323 323 323
300 301 302 303 303 308 317 317 315 310 308 312 312 312 312 310 312 313 316 324 323 321 317 318 317 318 318 318 318 319 320 320 321 322 323 322 322 320 320 322 321 323 323 321 323 324 322
299 301 302 303 304 306 314 317 315 310 308 312 312 312 313 310 312 314 322 324 320 317 318 317 317 318 318 318 319 320 321 321 320 321 322 321 323 321 320 322 322 322 322 320 317 321 322
298 300 301 302 303 304 311 316 315 310 309 312 312 312 312 310 312 324 321 324 319 320 319 318 318 318 319 319 318 320 321 321 321 321 321 322 322 319 319 320 321 321 321 322 324 319 324
298 299 301 302 302 304 312 315 315 310 311 312 312 312 313 311 316 319 323 322 319 320 318 318 317 318 319 320 318 320 321 320 320 319 321 322 322 319 319 319 319 322 320 322 322 322 318
297 298 300 301 301 304 309 314 314 309 311 312 313 314 315 312 313 320 323 320 319 322 320 318 317 319 320 321 319 319 321 320 319 320 321 322 322 321 320 320 321 321 322 319 320 320 317
296 297 298 300 301 302 308 312 313 309 312 312 315 318 316 313 322 323 321 319 320 320 321 319 319 319 320 321 321 319 320 320 319 320 322 320 323 325 322 318 318 320 321 320 318 318 320
296 296 297 298 301 304 304 309 312 310 312 313 316 320 321 321 325 323 319 319 322 320 321 321 321 321 321 322 322 322 323 318 318 320 322 320 323 324 322 320 319 320 320 319 317 319 319
296 295 296 298 301 303 303 305 311 310 312 315 316 322 321 317 317 320 319 320 321 319 321 321 322 322 323 323 323 324 323 319 316 318 313 316 322 322 322 321 320 321 320 319 319 319 317
295 296 297 299 300 301 306 307 310 311 312 318 318 320 321 323 318 319 319 319 321 322 321 321 322 323 324 325 323 324 322 317 317 315 318 320 322 320 318 316 316 317 318 319 318 318 318
295 297 300 299 301 301 305 311 310 312 312 319 319 320 317 319 316 318 317 320 321 321 322 322 324 323 323 324 323 325 323 320 321 318 320 317 321 318 319 316 316 316 317 316 318 318 318
297 300 299 301 303 304 308 310 309 312 312 319 318 317 318 314 317 319 319 321 321 323 320 320 323 323 324 322 320 321 318 318 318 321 320 320 320 318 317 313 314 319 318 317 317 318 318
300 299 300 303 305 307 310 309 311 312 315 319 318 316 319 319 317 316 318 321 322 322 323 319 320 323 317 316 316 316 316 316 316 315 315 317 317 316 319 312 324 314 312 313 317 317 316
300 301 303 304 306 310 309 309 312 312 316 318 318 316 315 320 317 316 319 322 320 320 321 320 318 317 315 316 321 321 321 321 318 314 313 313 315 315 324 315 314 313 311 311 313 313 315
302 304 306 308 310 309 309 311 313 312 316 319 319 319 315 318 318 316 319 321 323 323 322 316 313 313 311 317 322 326 325 322 320 319 313 311 313 319 314 328 330 314 312 313 313 315 312
305 309 310 309 307 308 311 312 313 312 316 320 320 321 318 321 315 319 319 321 320 322 323 316 314 315 312 321 330 327 324 314 319 318 317 319 317 322 318 324 318 313 310 312 315 314 313
309 308 307 308 309 311 312 313 313 312 315 319 320 320 320 320 318 318 317 319 318 321 325 317 318 317 318 326 327 322 325 316 316 315 317 319 321 321 315 323 323 310 313 317 316 314 312
307 307 308 310 312 312 314 314 313 312 316 318 320 320 319 319 319 318 317 317 318 319 320 316 322 319 320 323 320 317 319 312 318 322 313 318 318 319 317 318 313 311 314 314 313 313 313

GFSGBSN_850_thetae_039.txt.gz
Theta_e
321 321 322 324 324 322 318 314 312 309 309 306 306 307 308 309 310 311 312 312 311 312 311 310 309 308 308 319 317 319 317 317 312 315 317 316 316 317 318 317 318 319 321 319 319 322 323
320 321 321 321 322 324 321 317 314 311 308 306 306 307 308 309 311 312 312 311 311 312 311 310 308 308 312 318 316 318 318 317 315 317 317 318 317 317 319 320 320 320 320 318 321 323 324
303 317 320 320 320 322 323 320 315 312 309 307 306 307 308 310 311 312 312 311 312 311 310 309 308 309 316 317 317 320 318 319 319 317 318 318 318 318 320 322 318 317 318 318 318 321 324
303 306 315 319 319 320 322 322 318 313 310 308 306 307 309 310 312 312 311 311 311 310 309 309 309 311 317 317 317 319 320 320 319 319 319 319 319 319 320 320 317 318 318 320 321 322 323
301 307 306 316 319 319 321 322 320 315 311 308 307 307 309 311 312 312 311 311 311 309 309 309 311 316 320 317 316 318 318 319 319 319 319 318 319 320 320 320 317 318 318 320 321 322 322
300 303 308 305 317 318 318 320 322 316 313 308 307 307 310 311 312 312 311 311 310 309 309 310 313 322 319 318 318 319 318 318 320 320 320 319 320 322 321 320 319 319 320 319 319 319 320
296 299 302 307 306 317 317 319 322 318 314 310 307 308 311 312 312 311 311 310 315 319 317 317 319 318 318 319 318 318 317 318 320 321 323 321 321 321 320 320 320 319 318 318 319 318 318
297 298 301 303 306 311 316 319 320 320 315 311 307 308 311 312 312 311 311 316 317 321 322 316 316 317 318 318 319 318 317 319 320 322 320 321 321 320 320 319 319 319 321 320 320 318 319
297 297 298 303 304 308 314 316 318 321 315 312 307 309 311 312 312 311 311 315 319 320 324 319 316 317 318 318 318 318 318 319 320 320 321 322 322 321 319 319 319 320 321 322 321 320 320
303 298 298 304 304 305 308 315 316 320 315 313 308 309 312 312 312 314 314 312 317 321 326 320 318 317 317 318 319 318 318 319 320 319 320 323 322 321 320 320 320 322 322 322 321 322 321
303 303 302 301 304 303 305 312 314 317 316 314 308 310 312 312 318 316 318 315 318 325 325 318 317 318 318 318 318 318 318 318 320 319 320 322 322 321 320 322 322 324 322 322 321 321 323
302 302 302 301 301 302 304 306 313 318 316 314 308 310 312 312 312 316 319 318 321 328 326 317 318 319 319 318 318 318 318 318 320 320 319 321 322 322 323 322 322 323 323 323 322 322 324
301 302 302 301 302 301 302 303 311 313 317 314 308 311 312 313 315 316 318 326 327 325 319 318 319 319 319 319 318 318 318 319 319 320 321 322 322 323 322 322 323 322 323 325 325 323 324
300 302 301 300 300 301 303 302 308 316 316 314 309 311 312 313 316 318 322 327 326 320 320 319 319 319 319 319 319 318 319 319 319 320 321 321 324 322 322 323 323 323 323 324 321 321 321
299 302 301 300 299 301 302 302 306 317 317 314 309 311 312 313 314 320 323 328 324 320 319 319 318 319 319 319 319 319 320 319 319 321 321 324 322 322 322 322 322 323 321 323 323 326 324
298 301 301 301 299 301 302 303 305 315 316 313 310 312 313 314 312 321 325 325 323 320 319 319 319 319 319 320 318 318 319 319 320 322 323 322 323 321 321 322 322 322 323 322 322 322 320
297 300 301 300 300 300 302 303 304 312 316 311 314 315 315 316 312 321 326 324 322 319 320 319 319 319 319 319 319 318 320 321 322 322 323 322 322 323 321 322 321 324 322 322 322 323 322
297 299 300 300 299 301 302 302 303 311 315 309 315 318 318 315 316 321 325 323 321 321 322 320 320 319 320 320 321 319 319 321 321 322 322 323 322 322 322 322 322 322 323 323 323 320 321
295 298 300 298 299 300 301 302 304 310 313 311 316 320 320 316 320 327 322 322 320 320 323 321 319 320 320 321 321 320 319 322 322 323 322 323 320 321 323 323 322 322 321 321 321 321 321
295 298 298 297 298 300 301 301 306 310 312 313 317 323 318 320 316 323 324 322 320 321 322 320 320 320 320 320 321 322 321 322 321 322 316 320 320 321 322 321 323 324 323 322 321 323 320
298 297 297 296 297 299 300 301 304 308 311 314 318 319 319 323 323 323 323 321 321 322 322 322 322 322 321 322 322 324 323 322 321 318 319 323 323 322 321 321 321 321 321 321 321 321 322
297 297 295 295 296 297 299 301 302 305 310 313 319 318 318 318 320 323 321 322 320 322 323 323 320 322 323 323 324 324 325 324 323 322 323 322 323 322 322 321 320 320 320 320 318 319 319
297 296 295 295 295 297 299 299 301 303 309 312 319 317 320 322 324 322 323 321 320 324 324 323 321 322 324 325 325 324 324 323 323 324 324 324 323 322 320 318 317 320 319 319 319 319 319
296 295 295 295 296 298 300 302 304 306 307 315 320 320 322 326 325 321 321 320 321 324 324 324 323 324 323 321 321 321 320 320 320 321 322 323 323 322 321 316 323 317 315 315 317 318 318
295 295 295 296 299 299 300 300 302 309 310 315 322 320 320 327 322 319 320 321 320 323 324 324 321 322 321 322 323 323 323 323 319 318 317 318 320 320 325 318 317 316 314 314 314 315 316
296 296 297 299 300 300 302 305 307 310 311 313 322 323 320 326 324 318 319 319 324 326 325 319 320 318 318 324 326 325 324 321 323 322 316 315 317 320 318 325 327 318 315 314 315 316 314
297 298 300 300 302 301 306 309 310 310 311 313 321 319 319 319 317 318 319 321 320 323 325 320 319 319 319 327 330 328 326 321 323 324 320 321 321 324 322 326 322 317 314 314 317 318 315
298 300 301 303 304 308 310 309 310 311 313 314 323 321 321 322 321 321 319 319 323 322 327 321 322 321 322 326 330 327 328 322 321 319 321 322 325 323 324 324 323 313 315 317 318 314 315
301 303 307 309 310 309 309 309 311 312 314 316 323 320 321 322 321 321 320 321 322 322 323 320 323 322 323 326 327 327 323 317 325 323 318 321 321 322 320 320 315 314 314 314 314 314 314

GFSGBSN_850_thetae_042.txt.gz
Theta_e
316 318 320 321 322 322 323 324 320 316 313 310 309 307 307 307 308 309 310 312 312 311 312 311 310 309 308 321 319 319 317 317 314 313 316 317 316 316 317 318 318 318 319 320 320 320 325
299 304 316 318 321 319 322 322 323 320 315 312 309 307 306 307 308 309 311 312 311 311 312 311 309 308 309 318 317 318 320 317 316 315 318 318 317 317 318 319 318 319 319 320 320 322 323
299 299 300 312 320 320 318 321 322 322 318 313 310 307 306 307 308 310 311 312 311 311 311 310 309 308 315 315 318 320 321 320 317 317 318 318 318 318 319 321 321 320 319 319 321 322 324
299 299 299 300 308 320 318 320 320 323 320 315 311 308 307 307 309 310 312 312 311 311 310 309 309 310 318 317 317 318 320 321 321 320 319 319 320 319 319 321 320 318 319 321 321 321 322
299 298 298 298 300 307 319 317 319 321 322 317 313 309 307 307 309 311 312 311 311 310 309 309 310 319 319 319 318 318 319 319 320 320 320 320 320 321 320 321 320 319 318 320 322 321 323
298 298 297 297 298 301 311 318 317 319 321 319 314 310 307 307 310 312 312 311 311 309 310 309 311 319 320 319 317 318 319 319 320 321 321 320 320 322 322 322 319 319 318 320 321 321 321
298 298 298 297 297 297 302 317 317 318 319 321 315 311 307 308 311 312 312 311 318 320 316 316 318 316 319 319 319 318 319 318 320 322 323 321 322 322 322 321 321 320 320 321 320 320 319
299 299 300 298 297 297 297 306 315 317 318 322 315 312 307 308 311 312 312 318 319 321 323 322 315 318 318 319 319 318 319 319 321 322 322 323 321 321 321 321 321 320 321 321 319 318 318
302 302 301 302 300 298 298 300 314 314 318 321 316 312 307 309 312 312 312 311 317 320 323 322 320 314 317 319 319 318 318 318 320 321 321 323 321 322 321 320 319 320 323 323 322 319 318
303 302 305 304 302 298 298 299 310 315 318 320 317 313 307 310 312 315 315 312 316 318 326 321 320 316 317 319 319 318 318 318 321 320 322 322 322 322 322 319 320 322 323 322 322 322 319
301 302 304 304 305 302 298 302 304 313 315 318 318 313 307 310 318 319 319 316 318 321 330 320 319 317 319 319 319 318 319 318 320 320 321 324 322 322 323 322 322 322 323 323 322 321 324
300 300 303 303 304 304 303 302 302 310 315 316 318 314 308 311 312 317 320 320 323 329 325 318 318 318 319 318 319 319 318 319 319 320 321 322 321 322 322 322 321 323 323 323 322 323 326
302 299 301 302 303 303 304 301 301 306 312 316 318 314 307 312 315 314 320 322 327 326 319 319 318 319 319 319 319 318 319 319 319 320 321 321 320 322 322 322 322 322 322 326 328 329 328
298 300 299 302 302 303 303 302 301 304 309 314 317 314 308 310 318 320 321 326 326 320 322 319 318 319 319 319 319 318 319 318 319 319 320 321 323 322 322 321 324 323 322 328 328 329 327
296 298 298 300 301 303 303 301 301 302 306 312 316 314 309 310 315 319 323 326 323 322 320 321 319 319 320 319 319 319 318 318 319 319 320 322 323 322 322 321 323 323 322 323 323 329 332
296 297 298 299 301 302 303 300 301 303 305 315 315 313 310 311 314 319 324 324 323 322 321 320 319 319 319 319 318 319 319 319 318 319 322 323 325 323 322 321 321 321 321 324 322 323 323
295 297 298 299 300 302 302 300 301 302 305 315 314 313 312 312 314 319 324 323 323 322 321 320 319 319 319 319 319 319 318 319 319 321 322 321 323 324 322 322 319 323 323 320 319 325 327
297 297 297 298 299 302 302 301 301 303 304 311 312 315 312 313 318 316 322 321 321 323 321 321 320 320 319 321 320 318 318 320 320 321 322 322 323 325 323 322 322 321 322 323 332 324 325
297 296 296 297 299 302 302 301 301 303 304 311 312 315 317 315 319 319 318 321 321 322 322 321 321 320 320 321 321 320 320 324 323 321 322 323 323 324 322 322 323 321 320 320 322 325 324
295 295 295 296 298 302 301 301 301 302 304 311 314 319 320 319 316 317 320 321 322 322 321 321 321 320 320 322 322 322 321 323 322 323 319 322 322 321 323 320 322 324 322 321 322 329 324
294 294 295 295 298 301 300 300 301 302 303 311 314 317 319 320 321 318 323 321 322 323 320 321 321 320 321 321 322 321 321 324 322 320 320 322 320 320 319 320 321 322 322 321 321 322 324
294 294 295 296 298 299 300 300 302 302 303 310 315 318 318 319 319 319 320 324 323 322 321 322 322 321 321 321 320 321 322 325 323 322 323 322 324 323 324 322 321 321 320 319 319 320 319
294 295 296 297 298 299 299 301 301 301 304 309 313 317 319 319 321 319 323 324 324 323 321 321 322 322 323 324 324 325 324 324 323 325 324 324 326 327 326 320 318 319 320 319 319 319 320
295 296 298 298 298 297 298 299 300 301 305 309 312 318 320 323 320 320 322 323 324 323 325 323 323 324 324 323 323 323 323 323 324 324 324 326 327 328 327 317 323 318 317 315 315 315 316
295 295 298 297 296 295 296 297 299 301 301 305 311 316 322 322 320 320 321 324 324 321 323 324 325 324 323 324 326 325 325 320 321 321 321 323 325 325 326 322 319 318 316 316 316 316 315
295 297 297 296 295 295 296 297 300 300 301 304 311 314 316 323 322 320 323 323 324 326 324 322 323 323 324 329 331 328 329 323 323 321 317 317 323 327 323 327 324 320 315 315 315 319 316
295 295 297 295 295 295 295 298 299 301 304 303 309 313 312 322 322 320 322 323 323 322 325 322 320 321 323 330 325 333 329 321 326 326 320 322 324 323 323 326 325 318 315 315 319 322 316
295 295 295 295 295 295 297 299 300 303 304 304 312 315 312 321 321 320 319 320 322 318 322 323 325 324 330 330 334 332 328 327 325 322 323 323 327 324 327 324 323 315 315 318 319 315 315
295 295 295 296 296 298 300 300 303 306 308 307 308 317 322 319 324 319 321 322 322 322 324 322 324 324 325 329 329 333 322 318 326 327 320 324 324 327 324 324 317 314 314 314 314 314 315

GFSGBSN_850_thetae_045.txt.gz
Theta_e
300 302 313 318 320 321 320 322 322 323 322 318 313 309 308 307 307 307 308 309 311 311 311 311 311 309 308 313 313 319 319 317 316 312 313 316 317 317 314 315 316 315 316 318 325 325 326
299 299 300 304 316 318 319 320 320 322 323 321 316 311 308 307 307 307 308 310 311 311 311 311 310 309 309 318 317 317 318 318 316 314 316 317 317 317 317 317 318 319 317 318 320 323 325
299 299 299 299 300 309 317 319 317 319 321 322 319 313 309 307 307 307 309 310 312 311 311 310 309 308 309 309 316 318 320 319 319 317 318 318 318 318 318 318 320 319 316 318 320 323 323
299 299 299 299 299 300 305 315 319 319 319 322 321 316 310 308 307 307 309 311 312 311 311 309 308 309 310 311 315 318 320 321 320 319 319 319 319 319 319 319 320 318 316 317 320 321 323
299 299 299 299 299 299 299 303 319 318 319 319 322 318 312 308 307 308 310 312 311 311 310 309 309 322 317 320 317 316 318 319 320 321 320 320 320 320 320 318 318 316 316 319 321 320 323
299 299 299 299 299 299 299 299 308 319 317 316 321 320 314 308 307 308 310 312 311 311 309 310 310 315 316 316 318 316 318 319 319 320 320 320 320 318 317 317 319 318 318 317 319 319 321
304 300 299 299 299 299 299 298 299 313 318 316 319 321 315 309 307 309 311 312 320 322 316 312 315 309 313 318 319 317 318 319 319 321 321 321 319 318 318 319 320 319 318 317 318 318 318
304 307 302 299 299 299 298 299 298 301 316 317 317 321 316 309 307 309 312 312 319 318 321 321 322 322 316 318 319 319 319 318 318 321 322 321 321 321 321 321 320 320 320 320 320 317 316
305 306 306 304 301 299 298 298 298 298 310 315 317 318 317 310 307 309 312 312 311 316 321 321 319 321 317 317 319 319 318 318 318 320 321 322 321 321 321 321 321 323 322 321 321 321 317
303 304 305 305 304 301 300 299 297 298 306 314 316 319 317 310 308 319 318 319 311 318 322 323 320 321 316 314 319 319 319 318 318 321 321 322 321 322 322 322 321 323 322 322 321 321 320
301 302 302 304 306 305 302 300 298 297 303 314 317 319 317 310 313 318 319 317 317 320 324 323 321 318 314 316 319 319 318 318 319 319 321 323 322 321 322 322 321 321 321 322 323 323 322
300 301 301 300 303 304 305 305 302 298 302 312 316 318 316 310 308 317 320 322 319 326 325 322 319 317 318 318 319 319 318 318 319 319 320 319 320 321 321 322 321 322 321 322 323 323 322
298 300 301 302 300 302 304 304 305 301 301 309 313 318 318 312 307 318 317 321 323 327 320 319 317 317 318 318 318 318 318 317 316 318 322 320 320 321 321 320 321 321 321 324 323 323 324
298 298 298 299 301 300 302 304 304 302 302 307 314 317 318 313 311 319 315 322 326 321 321 320 317 318 318 318 318 318 317 316 316 316 318 321 322 321 321 321 323 321 323 321 327 327 323
299 297 297 298 301 300 301 302 303 303 301 304 312 316 316 316 314 318 320 325 320 322 319 321 318 318 318 318 319 317 316 316 316 316 316 323 323 323 322 322 321 323 323 323 324 323 319
298 297 296 296 300 301 300 302 303 303 301 303 308 314 315 317 309 317 321 320 321 321 321 321 320 318 318 318 318 317 317 317 317 316 318 322 324 322 322 322 320 321 320 321 319 319 320
297 297 296 295 297 299 299 301 303 303 301 303 307 313 313 316 310 316 318 320 320 320 320 323 320 319 319 319 318 317 318 318 317 319 320 320 320 322 321 324 320 321 320 320 319 320 320
297 296 295 294 295 299 299 300 303 302 302 303 311 313 314 313 315 315 317 317 319 320 321 322 321 321 319 318 320 317 318 318 319 320 321 321 320 323 324 321 320 319 320 322 317 320 319
296 295 295 294 296 298 299 299 302 302 302 305 311 313 314 312 312 314 315 316 318 320 320 322 321 320 320 319 322 319 318 323 322 320 321 322 320 321 322 321 321 320 320 319 320 319 320
295 294 293 293 296 298 299 300 302 302 302 306 312 314 315 315 310 312 315 316 317 318 320 321 322 321 320 319 320 321 323 323 322 319 319 322 322 320 318 317 318 321 321 319 319 316 318
294 293 293 293 297 297 299 299 302 302 302 307 312 313 316 318 315 313 314 315 318 320 319 321 322 320 320 320 320 321 323 322 322 320 320 320 320 319 318 320 320 320 320 320 320 320 318
292 291 292 293 297 297 298 300 302 302 302 304 312 315 317 318 317 317 314 316 318 319 320 322 322 321 319 320 319 320 323 323 322 320 320 320 320 320 322 321 318 317 317 318 317 317 318
292 292 293 296 296 296 297 298 302 301 302 305 309 314 316 318 317 318 316 317 317 320 321 321 320 321 319 320 321 324 321 322 321 321 319 321 320 316 321 314 315 312 315 316 317 317 316
294 294 295 295 295 295 296 300 301 301 302 304 307 312 317 317 318 318 315 316 319 320 322 321 320 321 321 323 323 323 321 322 323 322 321 321 321 314 314 311 311 316 314 313 313 313 312
295 295 294 294 295 296 298 301 301 301 302 303 307 310 316 310 318 318 315 316 319 320 321 323 323 323 324 322 320 320 317 315 320 320 320 322 316 315 312 313 316 316 314 315 314 314 313
295 295 295 296 297 298 299 300 301 301 301 302 306 307 305 316 318 318 315 316 320 321 321 322 324 323 323 323 318 320 320 320 321 318 317 318 317 311 313 314 311 315 314 314 314 314 314
295 295 296 298 298 299 299 300 300 300 301 301 302 304 304 312 319 317 315 319 321 321 319 321 321 323 323 310 317 314 317 320 319 317 314 311 312 311 308 309 314 317 314 314 311 313 315
295 296 297 299 298 297 297 298 298 299 301 301 302 304 306 310 316 319 316 320 322 320 317 322 321 321 321 318 317 314 314 316 318 321 317 314 314 309 313 316 317 314 314 313 315 315 315
295 295 297 298 296 295 295 295 296 297 299 300 301 304 306 308 314 320 321 322 321 321 320 321 322 320 323 320 317 313 319 311 315 315 319 318 318 316 316 315 316 315 315 315 315 315 315

GFSGBSN_850_thetae_048.txt.gz
Theta_e
299 300 300 303 312 318 320 321 319 322 321 323 322 319 312 308 308 307 307 308 309 310 311 310 311 310 309 309 310 316 319 317 315 314 312 315 317 317 315 314 314 313 314 316 320 325 325
299 299 300 300 300 306 315 316 319 318 319 321 322 322 316 310 308 307 307 308 309 311 311 311 311 309 308 315 313 317 319 319 317 315 314 315 317 317 316 315 316 319 318 319 323 325 324
299 299 299 299 299 299 302 311 313 317 320 319 321 322 320 312 308 307 307 308 309 311 311 311 310 309 308 310 311 316 320 320 318 318 317 318 318 317 318 316 319 319 316 317 321 324 324
299 299 299 299 299 299 299 300 308 313 318 319 318 321 321 316 309 307 307 308 310 311 310 310 309 308 309 310 314 315 318 321 320 320 320 319 319 319 319 319 318 318 314 316 317 320 323
301 299 299 299 299 299 299 299 300 306 313 318 318 319 322 318 310 307 307 308 310 311 310 309 308 313 315 318 313 317 320 319 319 320 320 320 319 319 319 317 316 315 314 318 319 320 322
305 301 300 299 299 299 299 299 299 300 306 318 318 317 320 319 312 307 307 309 311 313 314 311 310 311 313 315 318 314 318 318 318 320 320 320 319 316 315 315 319 317 317 316 318 319 322
305 306 302 301 299 299 299 299 299 299 301 315 318 316 317 321 314 307 307 310 314 321 318 318 312 309 310 315 318 318 317 318 318 320 318 321 318 319 318 317 319 319 318 318 317 316 321
305 305 306 307 303 299 299 298 299 298 299 309 317 316 317 320 316 307 307 310 315 314 315 317 318 319 319 320 318 319 318 317 318 320 321 319 319 320 320 320 320 319 320 319 317 318 318
303 304 305 306 306 305 301 299 298 298 297 301 314 316 316 319 317 307 309 314 316 313 317 317 316 315 317 318 319 318 319 318 318 320 321 319 319 319 321 319 320 320 321 320 320 319 315
302 303 303 304 306 306 306 301 299 298 297 299 313 316 316 317 315 307 319 319 312 316 319 321 322 319 317 316 314 318 318 318 316 320 319 319 319 320 320 321 320 320 320 321 321 318 317
303 302 303 303 304 305 306 306 305 299 297 298 312 314 317 318 310 313 319 319 316 320 312 317 320 319 317 314 318 318 318 318 316 319 319 320 320 321 321 320 321 320 318 320 321 320 320
303 303 301 303 302 303 304 306 306 303 297 300 312 313 317 317 316 312 319 319 318 321 317 322 320 316 313 313 316 318 318 318 318 317 319 318 319 320 320 321 321 319 319 321 320 321 321
300 303 302 301 301 302 303 304 304 305 300 302 309 314 316 317 316 308 316 320 322 323 319 320 317 314 315 316 317 317 317 316 315 317 319 319 319 320 321 321 319 320 319 320 319 320 321
297 300 302 301 299 301 301 302 304 304 304 302 307 313 316 317 314 314 317 321 322 319 320 319 316 315 316 317 317 316 315 315 314 316 318 319 320 321 321 320 321 321 319 318 322 323 321
294 299 302 302 300 301 301 301 302 303 304 302 305 310 315 315 314 315 319 321 316 320 318 317 316 316 316 317 317 316 314 314 314 314 315 321 322 321 320 321 321 321 321 320 321 321 319
295 295 300 301 300 299 300 300 300 303 304 302 304 310 313 315 315 311 318 319 319 319 320 320 318 316 317 317 316 315 315 315 316 314 314 318 323 322 322 321 320 319 318 321 320 320 320
294 294 298 300 300 298 298 299 301 302 303 301 304 310 311 314 315 310 317 317 318 317 318 322 322 319 317 317 316 316 317 316 315 316 316 318 319 320 320 322 320 318 318 318 317 317 319
295 295 298 300 300 298 297 300 302 301 303 301 305 309 310 314 312 312 316 316 315 317 318 320 322 322 318 317 317 316 316 316 318 319 319 318 319 320 319 320 319 319 319 320 316 317 316
295 295 296 298 299 298 296 298 301 302 303 301 305 309 312 313 313 310 313 315 315 317 319 319 322 321 318 317 318 317 316 320 321 318 318 319 319 320 321 320 320 321 319 318 318 314 317
295 295 296 298 299 298 295 296 300 300 303 303 306 310 313 314 314 311 312 315 316 315 315 316 319 320 320 319 318 318 321 322 321 319 319 319 318 318 319 318 317 320 320 317 316 314 316
295 296 298 298 298 298 295 295 299 300 304 302 308 309 312 314 314 312 311 313 316 315 315 318 319 319 320 319 318 319 322 321 320 318 319 317 318 317 317 318 319 319 319 319 318 317 316
295 297 298 298 297 295 294 294 298 300 302 302 307 311 312 314 312 313 311 312 314 314 315 316 320 320 320 319 317 318 322 320 319 319 318 317 317 318 319 317 316 317 316 315 316 317 317
297 298 298 297 295 294 293 294 298 299 301 302 305 310 313 312 313 313 313 312 313 313 314 313 318 319 320 319 318 318 321 320 319 317 318 318 317 313 318 312 314 313 315 315 316 315 315
297 297 296 295 294 293 294 295 299 300 301 302 304 308 313 313 315 314 313 313 313 313 313 317 314 317 319 320 321 321 320 320 320 319 318 317 316 310 312 310 313 316 314 314 312 311 310
296 296 295 294 293 294 295 296 299 299 301 303 304 308 311 311 314 316 315 313 314 314 315 315 319 320 319 321 318 318 314 316 318 316 319 318 312 313 311 312 314 315 312 312 312 314 312
294 294 293 292 293 295 297 297 298 298 299 302 304 305 308 311 313 316 316 315 314 314 314 319 320 322 322 317 312 317 318 320 321 318 315 314 312 312 311 312 312 313 313 313 312 313 313
293 294 294 294 295 296 297 297 297 297 300 302 303 305 305 307 314 316 317 315 314 315 316 320 322 322 322 308 313 313 315 318 317 316 312 310 310 310 304 308 309 312 312 313 311 310 313
295 295 295 295 295 295 295 296 297 299 302 302 302 303 303 304 308 314 317 315 314 315 316 319 320 318 315 314 316 313 309 314 315 316 313 313 312 308 309 308 313 315 313 312 310 313 314
295 295 295 295 296 296 298 300 300 302 302 301 302 301 302 305 309 311 315 315 317 315 319 321 319 319 320 318 314 312 315 308 313 316 316 316 312 312 313 312 313 314 314 314 314 314 314

GFSGBSN_850_thetae_051.txt.gz
Theta_e
299 299 299 299 300 308 316 319 320 320 318 320 322 322 322 319 312 308 307 307 307 308 309 311 310 310 310 309 310 312 317 317 315 314 312 312 316 316 314 313 313 311 315 318 315 324 323
299 299 299 299 299 299 304 313 318 317 320 317 321 320 322 322 317 309 307 307 307 308 310 311 310 310 309 310 311 315 319 319 316 314 313 314 316 317 316 314 315 318 317 320 323 324 325
300 300 299 299 299 299 299 300 308 315 313 317 317 318 320 321 320 312 308 307 307 308 310 311 310 310 309 310 311 317 319 319 317 315 315 317 317 317 318 315 318 318 315 320 321 323 323
305 301 300 299 299 299 298 299 299 303 311 313 316 319 316 319 321 316 308 307 307 309 311 311 310 309 309 310 309 316 317 319 319 319 318 317 318 318 318 318 318 317 313 318 320 322 323
306 306 306 302 299 299 298 298 299 299 301 310 314 317 318 317 321 319 310 307 307 309 311 311 310 309 310 312 313 314 317 318 320 319 319 320 318 318 318 316 315 314 312 317 317 319 321
306 306 306 307 305 300 299 298 298 299 299 302 310 316 318 317 319 320 312 307 308 310 314 316 312 311 310 314 317 317 316 319 318 318 319 319 318 314 313 314 317 318 316 316 317 318 320
304 305 306 305 307 306 300 299 299 298 299 299 303 314 318 317 317 320 313 307 310 317 317 317 312 310 310 313 315 318 315 316 317 319 317 320 316 318 318 317 317 317 316 317 317 316 320
305 303 304 305 306 306 307 302 299 298 298 298 301 314 318 316 317 320 312 307 311 314 313 314 314 315 318 319 318 318 318 316 317 317 320 317 317 317 318 319 319 319 319 318 317 317 317
305 305 302 304 304 306 306 307 302 298 298 298 299 311 317 316 318 319 311 310 318 315 313 314 315 316 315 315 318 318 318 317 317 319 319 318 318 319 320 319 320 319 319 318 319 317 315
301 304 304 303 303 304 305 306 306 304 298 297 298 308 314 317 317 317 310 317 313 313 314 315 321 318 316 316 316 318 318 317 318 317 318 318 318 319 320 320 319 319 318 319 320 317 315
298 301 304 304 302 303 303 304 306 306 304 297 297 305 313 316 315 310 318 317 316 317 308 312 320 319 317 316 316 316 318 318 315 318 317 318 319 319 320 319 319 319 318 319 320 319 319
297 298 302 304 304 302 303 303 305 305 306 304 298 306 313 316 317 312 318 317 317 315 312 317 319 318 313 313 314 317 317 318 317 318 318 317 319 318 318 320 319 319 319 318 318 318 319
298 296 299 303 305 303 303 302 303 304 305 305 300 308 312 315 316 317 311 317 320 316 314 319 319 314 313 312 313 316 315 314 314 317 318 318 318 319 320 319 318 317 317 318 318 319 320
299 297 295 299 302 304 302 303 302 303 304 304 301 308 312 314 316 315 313 320 320 317 318 319 315 313 312 314 314 316 315 314 313 314 316 318 319 320 320 319 320 320 317 317 320 320 318
300 299 295 295 300 303 302 301 302 302 304 304 303 306 310 314 316 313 317 322 315 316 319 315 315 314 314 316 315 315 313 313 313 313 315 318 319 320 320 320 319 321 320 317 319 318 318
301 299 298 295 296 301 303 301 302 301 303 304 303 305 308 313 315 316 316 318 317 317 319 319 315 314 314 315 315 314 313 314 314 313 314 317 318 320 320 320 319 319 317 318 316 320 321
302 300 299 297 295 298 302 302 300 301 302 304 303 305 307 312 314 313 315 316 317 316 316 320 322 319 315 315 314 314 315 315 314 313 313 317 316 317 319 319 317 317 317 317 316 314 317
302 301 299 298 296 296 301 301 301 301 302 304 303 306 307 310 313 312 313 314 315 316 316 318 319 321 321 315 315 315 315 315 315 315 316 316 315 317 318 318 318 317 318 317 315 317 314
303 302 300 299 296 295 300 301 301 301 301 304 302 306 310 309 314 313 311 313 314 316 317 317 319 320 318 316 316 315 315 316 318 315 317 317 317 318 317 316 318 320 319 318 315 312 315
303 302 300 299 296 296 299 300 300 299 301 303 303 306 310 311 312 312 312 314 315 314 314 315 316 317 319 319 315 316 316 320 319 317 317 317 317 317 318 317 316 320 319 316 316 314 315
303 302 300 299 296 297 300 300 299 298 301 302 304 305 309 311 311 314 312 312 315 315 314 314 314 316 319 320 317 317 321 320 319 316 317 316 317 316 315 315 315 317 317 316 317 315 316
302 301 300 298 296 297 299 298 296 300 301 302 304 307 310 310 310 312 312 312 313 315 314 314 314 318 316 318 318 318 320 319 319 318 317 315 316 316 319 316 317 317 316 315 315 315 315
301 300 299 297 296 297 299 297 296 299 301 302 303 307 310 309 309 310 312 311 312 314 314 313 313 314 315 318 318 319 318 318 317 317 315 315 315 313 316 312 314 313 314 315 314 314 314
300 300 298 295 296 297 299 298 295 296 301 301 302 305 310 307 310 311 310 311 311 312 313 313 312 313 315 318 319 318 318 318 318 317 316 314 313 309 311 310 312 314 313 313 312 311 309
300 299 296 296 297 298 298 297 295 296 298 300 301 303 309 303 311 311 310 311 311 311 312 312 312 313 312 313 317 318 313 317 317 316 318 315 310 310 312 312 312 315 311 311 311 312 311
298 296 296 298 298 298 298 297 294 294 297 299 301 302 305 309 312 313 311 311 311 311 311 312 312 312 317 315 311 318 319 319 320 316 314 312 310 312 307 312 314 314 313 312 311 311 311
297 297 298 298 298 296 295 294 293 295 297 298 301 302 304 306 311 313 313 313 312 312 311 311 317 320 321 308 312 313 314 317 318 316 314 311 309 313 306 309 311 310 311 312 311 310 312
298 298 297 297 296 295 294 293 294 296 296 300 300 303 305 305 307 311 314 315 313 312 312 314 318 317 312 314 313 310 307 314 313 315 313 316 313 308 307 307 315 312 312 310 309 312 313
296 296 295 293 292 293 293 295 295 297 297 299 300 302 302 305 306 308 311 314 313 313 313 316 316 317 318 316 311 309 311 305 312 315 314 315 314 314 313 312 311 313 312 313 314 314 313

GFSGBSN_850_thetae_054.txt.gz
Theta_e
304 300 300 299 299 300 301 312 316 318 319 320 319 319 322 321 322 320 314 308 307 307 308 309 310 310 310 310 310 310 315 317 315 314 312 312 316 316 314 313 312 309 312 316 316 319 323
304 307 303 301 299 299 299 299 307 314 317 318 320 319 317 321 320 322 319 310 307 307 307 309 310 310 310 308 310 310 316 318 316 313 312 315 316 316 316 314 313 315 316 319 321 322 322
305 305 306 306 301 300 298 298 299 302 310 314 316 317 318 318 317 321 321 315 308 307 307 309 311 310 309 310 310 316 317 319 317 315 314 314 315 316 317 315 316 317 315 320 322 322 323
306 305 305 306 306 302 299 299 298 298 299 304 312 314 315 318 318 316 321 319 309 307 307 309 310 310 309 310 309 315 317 318 318 319 318 316 316 316 317 317 316 315 311 319 319 322 321
305 306 306 306 306 307 304 299 299 298 298 299 303 310 315 317 318 316 320 319 311 307 307 309 311 310 310 311 311 311 315 316 319 319 318 318 317 317 317 314 313 312 313 316 319 319 321
306 306 305 306 306 306 307 306 301 299 298 298 299 303 313 314 318 318 317 319 312 307 309 312 314 312 313 312 317 316 314 315 318 317 318 318 317 313 313 313 315 318 318 315 316 317 320
302 305 307 304 305 306 305 307 307 303 299 298 299 300 307 312 318 318 317 319 308 313 317 315 314 312 310 312 315 317 315 316 316 318 317 319 316 316 316 316 316 316 317 315 314 315 319
298 302 304 306 304 304 306 306 306 307 303 298 298 300 303 312 318 318 318 317 309 312 313 313 314 315 317 318 317 317 317 316 316 315 318 316 317 315 316 318 318 317 318 317 315 316 316
300 299 301 303 305 305 304 304 306 306 306 302 298 299 307 314 317 317 317 318 310 316 313 312 312 313 313 314 316 317 317 316 315 315 317 317 317 317 319 318 319 318 319 318 318 316 314
301 300 298 300 303 305 305 304 304 306 306 306 299 298 307 313 314 316 316 315 316 315 311 312 316 317 315 314 316 316 317 317 317 315 317 317 317 317 318 319 317 319 317 318 318 318 316
302 302 300 298 301 302 305 304 304 304 305 306 304 299 306 310 313 313 314 316 313 316 308 310 320 318 316 316 315 316 317 317 316 317 316 316 318 318 318 317 317 318 317 319 318 317 318
302 302 301 300 298 300 303 304 303 303 304 305 305 299 307 308 313 313 316 314 316 316 313 312 318 316 316 313 314 315 316 317 316 317 317 315 318 317 316 318 317 317 318 316 316 316 318
302 302 302 301 299 297 301 305 303 302 303 305 305 303 306 309 312 314 315 315 319 317 312 315 317 314 313 312 312 314 314 313 314 316 317 317 317 317 319 319 317 316 315 317 319 318 319
302 303 303 302 300 298 299 301 304 302 303 304 304 304 304 308 313 313 315 317 318 315 315 316 315 312 312 311 312 313 312 314 312 313 314 316 318 318 318 318 318 318 316 317 320 319 317
302 302 303 303 301 299 298 300 304 303 302 303 304 304 304 308 312 314 315 319 314 315 316 316 314 313 312 313 312 314 313 312 311 313 314 316 317 319 319 319 317 319 318 315 317 316 316
302 302 302 303 302 300 297 299 304 303 302 302 304 304 303 307 312 314 314 316 316 314 317 319 315 313 312 313 314 312 312 312 313 311 313 315 316 319 319 319 318 318 316 318 315 320 321
303 303 302 303 303 300 298 296 302 303 302 302 304 303 303 306 310 313 314 314 315 316 316 317 320 320 313 313 313 312 313 313 312 312 313 314 313 315 318 318 317 317 317 314 314 313 316
304 303 303 303 303 301 299 295 300 304 301 301 303 303 304 305 313 313 315 312 314 316 315 316 317 319 320 313 314 313 314 314 313 313 314 315 312 314 317 317 316 315 316 315 315 317 313
305 303 302 303 302 301 299 297 297 303 301 301 303 303 307 305 310 312 313 313 313 315 315 315 317 318 318 317 315 314 313 314 314 313 314 315 314 314 314 315 317 319 317 316 313 311 315
301 303 302 303 303 301 300 298 297 302 301 301 302 302 308 308 309 310 313 313 312 313 314 314 314 315 318 318 315 315 314 316 316 314 315 315 315 313 315 314 314 319 318 316 315 313 315
300 302 302 304 303 301 299 298 297 302 301 301 302 302 308 309 308 310 310 311 312 313 313 314 314 314 317 319 316 316 318 319 317 316 315 314 315 314 314 314 315 315 315 314 315 314 315
300 301 303 304 302 301 299 298 297 302 301 301 302 303 307 307 306 309 311 311 312 312 313 313 314 315 314 316 317 318 319 318 317 314 315 313 315 314 317 315 315 317 315 313 314 315 313
300 300 303 303 301 300 299 298 297 301 301 302 302 304 308 307 308 306 309 311 311 312 313 313 312 313 313 315 315 316 317 317 316 316 314 313 313 312 316 312 314 314 314 313 313 312 313
300 300 304 302 301 300 299 296 297 300 300 301 301 304 307 305 309 307 307 310 310 311 312 313 313 312 313 312 314 317 316 315 315 316 314 312 311 308 310 309 312 315 312 312 313 311 310
300 300 303 302 300 300 298 296 300 300 299 300 302 304 307 305 307 308 308 308 310 311 312 312 313 312 312 312 312 315 314 317 316 314 316 312 308 309 313 312 312 313 311 311 311 311 309
301 301 301 300 300 299 297 298 299 300 299 300 302 303 306 307 307 309 308 309 310 309 309 311 312 312 312 312 310 313 317 318 319 317 313 311 308 311 306 311 312 311 311 310 309 310 309
301 301 300 300 299 297 298 299 299 298 298 299 301 302 303 304 308 310 309 309 309 309 307 309 310 311 313 303 307 311 315 316 317 317 315 311 307 309 303 308 311 311 311 311 311 312 310
301 299 299 299 296 297 298 299 298 297 296 299 300 301 303 304 306 308 311 311 310 310 307 309 312 313 310 312 311 312 308 314 314 315 315 317 315 309 307 308 316 310 310 311 309 310 312
299 298 297 296 297 298 298 298 298 296 296 298 299 300 301 304 305 306 310 311 310 311 310 314 311 312 313 313 309 305 308 304 312 316 312 318 315 315 314 314 311 311 311 311 311 312 312

GFSGBSN_850_thetae_057.txt.gz
Theta_e
301 303 304 306 304 305 299 300 301 307 310 315 318 319 320 318 317 321 320 321 317 309 307 307 308 309 310 310 311 310 314 317 315 314 312 311 313 315 316 314 312 311 313 315 314 316 319
306 305 303 304 305 305 305 300 299 299 303 308 311 317 318 319 319 318 319 320 320 313 308 307 308 309 311 309 310 309 313 318 315 313 312 314 315 315 316 315 315 314 314 318 321 320 322
308 306 306 305 305 306 307 303 300 299 299 300 308 311 315 315 316 318 317 317 320 318 309 307 307 309 310 311 310 310 315 318 316 314 313 313 315 316 316 317 315 316 317 318 322 322 323
305 307 307 305 305 305 305 307 304 300 298 298 299 303 310 314 313 315 318 316 319 320 313 307 307 309 310 311 310 310 315 317 318 317 315 315 315 316 316 316 316 317 313 319 320 323 321
302 303 305 307 305 306 305 305 306 305 301 298 298 299 301 309 314 315 319 317 318 319 316 307 308 310 310 311 311 310 314 316 316 318 318 317 316 316 316 317 317 317 317 317 320 321 322
301 299 300 304 306 306 306 306 306 307 305 300 298 298 299 301 311 314 317 317 316 318 313 309 312 312 312 312 315 315 312 313 315 317 317 316 316 317 317 318 319 320 319 318 318 319 321
302 301 300 300 303 306 306 305 306 305 306 305 300 298 298 301 308 313 317 317 316 310 314 312 313 312 310 312 314 315 315 315 316 317 319 318 320 320 319 318 318 318 318 318 316 316 322
301 301 301 300 299 302 306 306 305 305 306 306 305 302 299 300 306 313 317 317 316 312 313 311 311 314 314 315 316 317 316 316 316 316 318 318 321 319 316 317 318 318 319 319 318 317 318
301 302 301 301 301 299 303 306 305 304 305 306 306 304 300 301 311 314 316 315 317 311 314 315 313 311 312 313 315 315 316 315 314 315 319 320 319 316 318 318 319 319 319 319 320 318 315
300 301 301 301 301 300 300 303 306 304 304 305 306 305 301 309 307 312 313 314 314 315 315 312 313 313 312 313 314 314 316 315 316 316 317 318 316 317 318 319 318 319 318 319 319 320 320
302 302 301 301 301 301 300 299 302 306 303 304 305 305 301 308 313 313 313 314 315 314 312 311 318 316 315 315 314 315 316 315 318 317 318 318 318 318 319 319 318 320 318 320 319 320 320
301 302 302 302 302 302 301 300 299 303 305 303 305 305 302 305 312 311 313 315 314 318 316 311 317 317 317 316 313 315 315 316 316 317 317 316 316 317 318 318 317 317 319 318 318 319 322
302 301 301 302 302 302 302 301 298 301 305 303 304 305 304 304 306 312 314 315 319 318 314 314 319 315 315 315 312 314 315 316 317 319 319 317 317 317 318 319 318 317 319 322 324 324 323
303 303 302 301 302 303 303 302 300 299 303 304 303 304 304 303 308 309 313 315 317 314 315 315 314 315 314 311 312 313 314 316 312 315 316 318 318 318 318 319 320 319 320 324 321 322 320
303 303 303 302 302 302 303 302 301 298 302 304 302 304 304 303 308 311 314 317 314 314 315 315 312 315 314 311 313 314 315 316 314 315 318 318 317 317 318 319 319 320 321 317 320 317 323
304 304 304 303 302 302 302 303 301 299 299 304 302 304 304 302 308 311 313 314 315 314 316 318 318 314 316 313 313 314 314 313 314 313 315 318 318 319 319 319 317 319 317 321 319 322 322
302 302 304 304 303 302 303 302 301 300 299 303 302 304 303 303 306 310 313 313 313 315 315 316 319 320 313 313 314 313 314 313 314 312 313 315 317 316 319 320 320 319 319 317 317 318 321
301 301 302 304 304 303 303 302 302 300 300 303 302 303 303 303 307 310 311 312 312 313 315 316 317 318 320 314 314 314 314 315 313 313 316 316 317 319 319 317 316 317 320 319 323 320 317
300 300 300 304 304 303 303 302 303 300 298 303 303 303 302 302 307 309 310 312 312 314 315 316 316 317 318 318 314 315 314 313 312 314 317 317 316 318 317 317 318 320 318 316 316 316 318
301 301 300 301 301 303 303 302 303 300 298 303 302 303 305 304 306 308 310 311 313 312 314 314 315 314 318 318 316 314 315 314 312 313 314 315 316 318 318 318 317 320 319 317 319 321 321
300 301 301 300 301 304 303 302 302 300 297 301 302 303 304 306 305 307 309 310 311 313 312 314 315 315 317 317 318 315 317 319 316 315 315 318 318 316 314 313 315 318 319 318 319 320 322
301 302 301 300 301 304 303 302 301 300 298 301 301 302 304 307 305 306 309 310 311 312 313 313 315 315 315 316 317 317 316 318 318 315 315 314 317 316 316 314 314 316 315 316 317 316 316
300 301 302 301 301 303 303 302 300 299 298 301 301 302 304 306 307 305 308 309 311 311 312 312 313 313 314 315 315 314 315 316 317 317 317 316 316 317 319 314 315 318 317 315 315 315 317
302 300 302 301 301 303 302 301 300 299 298 301 301 303 304 305 307 306 305 309 310 311 312 311 312 313 312 312 312 314 315 314 315 315 316 315 315 313 316 312 320 319 313 314 316 315 313
302 302 302 300 302 302 302 300 299 299 298 301 301 303 304 302 307 307 305 308 310 311 311 312 312 313 313 313 312 313 314 317 316 315 314 313 312 313 319 318 316 314 313 315 316 317 313
302 301 301 301 302 302 301 300 300 298 299 301 301 302 303 305 307 307 306 306 309 310 310 311 312 312 312 310 310 313 319 319 320 317 312 310 311 318 312 318 320 317 313 310 312 316 312
301 300 300 301 303 301 300 300 299 298 300 301 301 302 303 304 307 307 308 307 307 308 309 309 311 311 312 308 312 315 315 318 322 318 317 314 312 317 312 319 316 312 311 310 318 319 311
300 300 301 303 301 300 300 299 299 297 300 301 301 302 303 304 305 307 308 308 308 308 308 308 311 311 310 311 312 313 313 316 318 316 316 318 317 316 312 316 320 311 309 315 316 310 311
302 303 302 300 300 300 299 299 297 297 301 300 301 300 301 303 305 306 307 309 308 308 308 309 309 310 311 312 311 310 313 309 315 319 313 319 317 319 317 320 314 310 314 312 312 312 311

GFSGBSN_850_thetae_060.txt.gz
Theta_e
308 306 307 306 305 305 306 304 301 299 299 301 306 312 316 317 318 318 317 317 319 320 320 314 308 307 308 313 313 312 316 316 316 314 314 313 313 317 318 318 318 318 318 318 319 322 319
306 308 308 307 306 306 305 306 305 302 299 299 300 305 307 313 317 317 317 317 317 317 320 319 310 307 308 312 312 310 310 317 315 314 314 313 317 318 318 319 319 319 319 320 323 322 323
303 304 307 308 307 307 306 305 305 303 300 299 299 299 305 307 310 314 316 315 316 315 317 320 315 307 308 312 312 310 310 317 315 315 314 314 315 317 319 320 319 319 320 321 325 324 326
303 302 303 305 307 308 306 306 306 305 304 300 299 298 299 301 307 311 314 315 315 316 315 320 318 308 311 311 311 310 310 317 316 314 314 314 315 318 319 320 319 320 320 320 325 326 325
303 303 303 302 303 305 307 306 306 305 306 305 300 299 298 298 301 304 312 314 317 315 315 318 316 308 313 312 311 310 310 317 317 315 316 316 316 320 320 320 319 319 320 319 324 326 326
302 302 302 302 300 300 304 306 306 306 306 306 305 300 299 298 299 303 304 312 315 316 315 314 312 313 312 314 313 314 310 315 317 317 317 318 319 321 321 321 319 318 320 320 320 324 325
300 302 302 302 301 301 299 302 306 306 305 306 306 305 300 298 299 302 311 314 316 314 312 313 315 315 312 313 314 316 313 313 315 319 321 321 322 322 320 320 322 321 321 320 320 321 324
295 294 299 303 302 301 301 299 301 306 306 305 306 306 304 300 300 302 312 316 316 314 314 314 311 314 314 314 316 318 315 317 317 321 320 322 322 321 321 321 321 322 320 320 321 321 321
301 299 299 298 301 302 301 301 300 303 307 305 305 306 306 303 303 306 315 315 315 316 315 315 314 314 313 314 315 317 316 316 318 321 321 321 321 320 321 322 322 322 322 321 321 322 321
302 302 302 302 301 301 301 301 301 301 304 306 304 305 305 303 303 309 313 313 314 313 318 315 315 315 313 313 316 315 317 316 318 320 320 321 321 320 321 322 321 322 321 321 321 321 322
302 301 301 301 302 303 302 301 301 300 301 305 304 304 305 302 310 313 314 310 315 314 311 313 316 315 315 314 315 315 316 316 318 319 320 320 321 321 321 321 321 321 321 322 322 322 323
303 302 302 301 301 301 302 302 301 301 299 302 305 304 305 303 307 312 314 315 315 320 314 313 318 318 317 315 316 316 315 316 317 319 320 320 319 321 321 320 320 321 322 322 323 323 324
303 303 303 302 302 302 301 302 302 302 301 299 303 304 305 305 307 311 313 315 319 316 313 313 320 318 318 315 316 317 317 318 318 320 320 320 320 320 320 322 321 322 322 324 325 325 324
304 303 303 303 303 302 302 301 302 302 302 299 301 304 304 305 306 311 313 317 316 310 313 316 317 318 318 316 316 317 318 318 318 318 319 320 320 320 321 321 322 323 323 323 322 323 322
304 304 304 303 303 303 303 302 302 302 302 300 300 304 303 304 304 309 313 317 311 312 314 313 316 320 317 315 316 318 318 318 318 319 319 320 319 320 321 321 322 323 323 322 325 324 325
304 304 304 304 303 304 303 303 302 302 302 300 300 303 303 304 303 307 312 313 312 313 314 318 315 319 320 314 316 317 318 318 319 318 319 320 320 320 322 322 322 323 322 323 324 323 322
305 303 304 304 304 304 304 303 303 302 302 301 300 304 304 304 303 305 312 312 312 313 316 317 318 320 317 316 315 318 318 317 318 318 319 319 320 322 322 323 322 322 323 322 322 322 323
301 300 302 304 304 304 304 304 303 302 302 300 301 303 303 303 304 306 310 311 311 312 316 317 318 320 321 316 315 315 317 317 317 318 319 320 320 321 321 321 321 322 322 323 323 322 323
300 300 300 301 303 303 305 304 304 302 302 301 301 302 303 303 305 306 309 311 311 313 314 316 317 317 320 321 317 316 316 317 316 318 319 319 320 321 320 320 321 321 321 321 322 322 322
300 300 300 300 301 301 302 303 304 303 302 301 302 304 304 304 304 306 308 310 311 310 313 315 316 316 317 319 320 318 317 316 315 318 318 319 320 320 321 319 319 320 321 321 321 323 321
300 300 300 300 301 301 301 304 304 303 301 301 302 306 304 304 306 306 308 309 310 312 312 315 316 317 317 318 320 320 318 320 316 315 317 320 319 320 319 318 318 318 318 319 320 320 320
302 302 301 300 301 301 300 301 304 303 300 301 301 305 305 306 305 307 308 310 310 310 312 314 315 316 317 318 319 319 318 320 321 319 319 319 319 320 320 319 318 318 318 318 320 319 321
301 300 301 302 300 301 301 303 303 302 300 300 301 304 305 306 306 306 309 308 309 311 312 312 314 315 316 316 315 315 315 316 317 320 321 320 320 321 320 320 319 321 320 319 319 321 321
300 300 300 300 302 301 301 301 304 302 300 301 302 304 305 307 307 305 305 307 308 310 312 312 312 314 313 313 312 314 315 315 316 319 320 322 321 322 320 319 328 320 319 320 320 320 321
301 300 300 300 302 301 301 301 303 302 300 301 301 303 304 309 307 307 305 306 307 309 311 311 313 313 313 312 313 312 315 316 318 319 321 321 321 322 327 322 320 319 317 319 321 321 321
303 302 301 300 302 302 301 301 302 301 300 301 301 303 305 308 307 306 306 305 308 311 312 311 312 313 313 315 315 312 312 314 320 320 317 317 318 323 319 324 329 320 320 318 319 322 320
303 302 301 301 302 302 302 302 302 301 300 301 301 302 304 305 305 306 308 307 306 310 313 312 313 313 313 315 319 318 314 316 320 323 321 319 319 324 323 325 323 320 317 315 321 323 320
302 302 301 302 302 301 303 303 301 300 300 301 301 302 304 305 305 306 306 306 306 309 313 311 314 313 315 316 316 317 322 317 319 319 321 321 323 324 323 327 327 315 314 320 321 319 319
301 301 301 301 302 302 302 301 300 300 300 300 301 301 303 305 305 304 306 307 307 307 310 311 311 312 313 315 316 315 321 319 317 320 319 323 322 324 321 324 321 316 319 317 318 319 317

GFSGBSN_850_thetae_063.txt.gz
Theta_e
306 308 309 309 308 307 307 306 306 303 301 299 299 300 305 309 312 315 315 316 316 315 317 317 320 318 314 316 317 316 313 317 316 315 317 316 315 316 319 319 319 319 319 319 319 320 322
302 303 305 307 308 309 307 307 306 306 306 301 300 299 299 302 306 307 311 315 315 314 315 315 316 320 315 316 315 314 311 314 317 317 317 316 315 317 320 320 320 320 320 319 320 321 322
302 302 303 302 306 308 309 307 307 306 305 305 303 300 299 299 301 303 305 306 312 311 313 314 313 319 316 316 315 315 311 316 318 317 316 315 317 318 320 321 319 320 320 320 321 323 322
304 303 302 303 303 303 306 308 308 306 306 305 305 304 300 299 298 299 301 304 307 309 310 314 314 317 317 313 315 314 314 316 318 317 316 316 317 319 320 320 320 320 320 321 322 323 323
303 304 303 303 302 303 302 304 306 307 306 306 305 305 303 300 298 298 299 300 302 309 313 314 315 317 316 314 314 313 313 315 318 317 316 317 318 319 321 321 320 320 320 321 324 323 324
297 298 302 304 303 302 301 300 301 305 307 306 306 306 305 303 299 298 298 302 306 308 315 314 316 315 315 315 315 314 314 314 319 318 318 318 319 322 322 322 321 321 319 322 320 324 323
298 300 298 295 303 303 303 302 301 300 305 307 306 306 306 305 301 299 299 313 317 319 318 315 316 313 315 315 315 316 314 315 318 319 321 320 322 322 323 323 321 322 321 320 322 322 323
301 301 300 299 296 298 302 303 302 301 300 305 307 305 305 306 305 301 303 313 314 317 314 314 315 314 316 316 318 317 314 316 317 321 321 323 322 322 322 321 322 321 322 320 322 321 322
302 302 302 302 302 301 297 301 303 302 300 300 305 306 305 305 305 301 309 312 315 316 317 314 313 314 313 314 316 318 316 316 319 320 322 323 323 322 322 321 322 322 322 323 323 324 322
303 303 303 302 302 301 302 302 301 302 301 300 304 306 305 305 304 306 312 311 315 317 317 313 317 316 314 313 316 316 317 317 320 320 321 322 322 321 321 322 322 323 322 321 322 322 322
303 303 304 303 303 302 301 302 303 302 301 301 302 306 304 304 308 311 314 314 316 318 310 315 317 316 316 315 314 314 317 316 319 320 321 321 321 322 322 322 322 322 323 322 322 324 324
304 304 304 304 304 303 302 301 301 303 302 301 300 304 305 304 305 311 315 315 318 318 312 314 318 317 318 316 316 316 315 317 317 319 320 321 320 321 322 321 321 322 322 322 323 324 326
304 304 304 303 304 304 303 302 301 301 303 302 301 300 304 306 307 309 314 316 316 314 312 313 319 319 319 318 317 317 317 319 318 319 321 320 321 321 321 322 322 322 322 325 326 329 326
304 304 304 304 304 304 304 303 302 302 301 302 302 300 303 305 306 308 312 316 313 311 312 316 318 321 320 318 317 318 319 319 319 318 321 320 322 321 321 322 323 323 323 326 328 328 327
304 304 304 304 305 304 304 304 303 302 302 302 302 301 301 304 305 306 307 314 314 312 312 312 317 321 321 318 316 317 318 318 318 319 321 321 321 321 321 321 322 324 324 324 326 324 324
303 303 304 304 304 305 304 304 303 303 302 302 302 303 302 304 305 307 307 313 311 311 311 313 314 318 321 318 316 317 318 318 318 318 320 321 321 320 321 321 322 324 324 324 324 326 326
305 304 303 304 304 305 305 305 304 303 303 302 302 303 304 305 305 307 308 311 313 310 312 313 315 314 319 319 317 318 318 318 318 318 320 320 321 321 323 322 322 323 325 324 325 326 326
303 302 304 305 305 305 305 305 304 304 303 302 303 304 303 304 305 307 308 310 311 311 311 315 319 316 319 320 317 317 318 319 318 319 320 320 321 324 322 321 321 323 323 324 325 324 324
301 301 301 301 302 302 303 304 305 304 304 302 303 303 303 304 307 309 307 309 310 312 312 315 317 319 320 321 320 316 317 318 318 319 321 320 320 322 321 322 322 322 323 324 324 323 324
301 300 300 300 300 301 301 304 304 304 304 302 302 303 305 306 305 309 308 308 309 309 312 314 315 318 321 322 321 320 318 317 318 319 319 320 320 321 323 322 321 321 321 322 323 326 323
299 299 300 299 300 300 301 301 304 305 304 302 301 305 305 307 308 309 308 308 308 309 311 312 315 316 320 320 320 321 319 319 318 316 319 320 320 320 320 320 320 320 320 321 322 322 323
298 299 299 300 300 300 300 301 305 304 304 302 301 305 305 307 306 308 308 308 308 309 311 313 314 315 317 320 320 321 319 319 318 319 320 320 321 321 320 320 319 319 319 319 319 319 319
301 300 299 300 300 300 300 301 301 304 304 302 302 304 306 307 309 309 310 307 308 309 310 311 312 315 316 319 317 317 317 316 319 321 320 321 323 322 322 320 320 323 320 319 319 320 320
300 302 301 300 301 301 301 300 301 302 302 301 302 304 307 308 309 310 308 308 308 309 310 311 311 314 315 314 314 314 315 315 316 317 321 321 322 324 325 324 327 321 320 320 320 320 320
301 301 300 302 302 302 302 301 301 302 303 301 303 304 306 310 308 307 307 308 307 307 310 311 312 312 314 313 314 313 315 316 316 317 320 323 323 325 327 325 321 320 320 320 320 320 320
302 301 301 300 301 301 301 301 301 301 303 301 302 305 306 309 308 307 308 307 309 309 310 310 312 314 314 315 315 313 315 314 318 318 318 320 324 327 325 324 326 321 320 320 321 324 321
303 303 301 301 301 301 301 301 301 302 302 302 303 304 306 307 307 307 308 308 307 309 311 311 313 314 314 317 319 315 313 311 316 322 322 322 324 327 325 325 322 320 320 320 323 324 320
303 304 301 300 300 300 301 301 301 302 301 301 303 304 306 306 306 307 308 307 306 307 312 311 314 315 317 318 317 316 320 314 315 317 323 323 324 327 325 328 327 319 319 322 323 321 321
302 302 302 300 301 301 302 302 301 302 301 301 303 304 305 306 307 308 308 308 307 306 308 310 313 313 313 314 317 316 322 321 316 322 320 324 323 324 323 324 322 318 320 319 320 322 322

GFSGBSN_850_thetae_069.txt.gz
Theta_e
303 303 302 301 303 303 304 307 307 307 308 306 306 303 301 301 300 300 299 300 300 301 302 302 303 308 311 313 315 312 317 316 316 316 314 313 317 318 315 315 316 316 316 318 319 318 318
306 305 304 303 302 301 301 302 304 306 307 308 307 306 304 302 301 300 299 299 299 300 300 302 305 310 313 316 310 315 317 316 316 314 316 315 317 318 317 315 315 319 318 318 319 319 319
300 303 306 306 305 304 302 300 300 302 304 305 307 307 306 305 302 300 300 299 299 299 300 300 306 314 316 306 308 316 317 317 317 316 317 316 317 317 317 315 319 319 318 317 317 318 317
298 298 298 299 301 304 304 303 301 300 301 304 304 306 306 305 305 302 300 300 299 299 299 300 305 313 315 305 306 308 315 317 316 317 318 318 318 317 316 318 318 318 317 317 317 317 318
299 299 299 298 298 298 298 303 305 302 301 300 302 304 303 306 305 304 301 300 299 299 300 304 307 314 316 315 315 313 313 317 316 316 318 319 317 317 317 316 316 317 317 317 317 318 320
298 297 296 298 300 299 301 301 299 305 303 302 301 300 303 304 305 305 304 300 299 299 306 315 314 313 311 314 313 316 315 315 316 316 318 318 317 315 315 315 318 318 321 318 317 320 322
301 300 300 301 302 302 302 301 298 298 302 304 302 300 300 305 304 305 304 302 307 315 317 317 316 309 309 313 316 316 316 315 315 315 318 318 315 316 315 316 318 319 320 319 319 321 322
298 297 301 302 303 303 304 303 303 302 297 301 304 302 300 300 304 305 304 304 305 311 312 315 315 318 318 312 316 316 315 315 315 314 318 318 317 317 317 318 320 321 320 319 321 321 321
294 295 300 302 303 303 304 303 303 303 303 301 299 302 301 300 303 303 304 303 301 303 311 314 313 314 314 313 317 315 316 315 314 314 318 319 319 318 319 319 320 320 320 319 321 321 320
294 298 300 301 302 303 303 304 304 303 303 303 302 297 302 301 301 308 307 310 309 309 314 312 312 311 312 311 316 313 316 316 314 314 317 318 319 320 320 320 320 320 320 320 323 321 320
300 301 301 302 303 303 303 304 304 304 304 303 302 303 301 301 303 307 310 311 312 312 312 309 310 314 313 311 314 314 312 316 314 315 317 319 320 320 320 321 321 320 323 322 323 321 320
300 301 302 303 303 303 304 304 304 304 304 304 302 302 303 301 302 301 306 309 312 315 313 311 316 317 316 312 313 314 313 314 316 314 316 317 318 318 320 321 320 320 321 322 321 320 320
300 301 302 303 304 304 304 304 304 305 304 304 303 302 303 302 301 304 307 308 314 312 309 308 318 317 317 314 313 314 313 314 315 315 315 316 317 318 320 319 320 320 320 321 322 321 321
301 302 303 304 304 304 304 304 304 305 305 304 304 302 302 303 300 305 307 308 313 311 310 311 314 317 317 316 314 314 313 314 315 316 316 317 318 318 319 319 320 319 319 322 325 325 327
301 302 303 303 304 304 304 304 304 305 305 304 304 303 302 303 301 304 307 310 308 309 309 310 310 313 317 317 318 315 314 315 317 317 316 317 318 319 318 320 320 321 320 321 327 326 328
301 302 303 303 303 304 304 304 304 304 305 305 304 304 303 303 301 305 307 309 308 308 310 310 310 312 319 319 318 317 317 317 316 317 317 318 320 319 319 319 319 319 322 324 328 329 332
301 302 303 303 304 304 305 305 304 304 305 305 304 304 303 303 302 303 306 306 308 308 309 310 310 311 312 313 319 317 318 317 316 316 317 316 318 319 319 320 320 319 319 323 326 326 325
301 301 302 302 303 303 304 304 304 304 304 305 305 304 303 303 304 304 305 305 306 307 308 308 309 310 312 312 313 317 318 317 317 317 316 316 320 320 318 318 320 319 320 324 325 326 325
301 301 301 301 301 302 302 302 304 304 304 305 304 303 303 303 305 304 305 305 306 307 308 308 308 309 311 312 313 319 318 318 318 316 317 318 320 321 320 320 320 319 320 320 324 324 325
301 302 302 302 302 303 302 304 303 304 304 305 302 303 304 304 304 303 304 305 307 306 308 308 308 308 310 313 313 320 321 318 318 317 317 318 319 320 320 322 321 321 320 319 321 320 322
300 299 300 300 300 301 302 304 303 304 304 306 300 303 304 307 305 305 304 305 306 307 306 308 308 309 309 313 315 317 321 321 317 317 317 317 318 318 318 321 322 321 320 319 321 323 323
297 298 298 298 298 298 299 302 302 302 304 306 300 304 304 304 306 305 305 307 307 307 307 307 308 308 310 312 314 318 319 319 318 316 316 317 319 318 319 320 320 322 321 319 319 318 319
298 298 298 298 298 298 299 299 301 303 304 305 301 303 304 304 305 305 305 306 308 307 307 307 307 307 309 310 316 317 315 317 317 318 316 318 319 320 320 319 320 320 319 320 320 318 318
300 300 299 299 299 299 299 299 300 301 302 305 302 303 304 305 306 306 306 305 306 307 307 308 307 307 308 310 314 315 317 316 315 317 317 320 319 319 320 318 321 319 319 320 319 319 318
301 301 301 300 300 300 300 300 299 300 301 302 300 303 304 305 305 306 305 306 306 306 308 307 308 306 307 315 315 317 316 316 315 317 318 317 321 318 320 320 320 320 319 319 319 318 317
300 300 301 301 301 301 301 301 301 300 300 301 300 302 304 306 306 306 307 306 306 306 306 307 308 308 307 312 313 315 318 317 318 318 316 317 317 319 318 320 320 320 319 319 319 318 318
301 301 301 301 302 301 301 301 301 301 299 300 301 302 304 305 307 306 307 307 307 307 306 307 308 309 309 307 311 311 313 315 316 316 316 313 315 316 316 321 320 320 319 319 320 317 319
302 302 302 301 301 301 301 301 301 301 300 300 300 301 303 305 307 307 307 308 307 307 307 308 308 308 308 312 311 310 307 314 314 317 317 316 317 317 316 320 321 319 319 319 317 319 319
302 302 303 303 302 301 301 301 301 301 300 300 300 301 303 307 307 307 307 308 308 308 308 308 308 310 309 311 313 311 310 307 311 309 317 318 318 318 319 317 318 319 318 319 320 320 321

GFSGBSN_850_thetae_072.txt.gz
Theta_e
306 306 303 302 302 302 301 301 302 302 306 307 308 307 306 305 303 300 300 300 299 300 300 300 301 303 305 309 309 310 313 311 316 316 315 314 314 317 315 314 314 313 313 316 318 318 317
301 303 305 305 306 306 304 302 300 300 300 303 304 307 307 306 304 303 300 300 300 299 299 299 301 309 314 312 308 310 312 313 317 315 315 315 312 315 317 315 313 315 316 317 318 318 317
303 302 302 301 300 302 305 304 304 300 299 300 301 304 303 306 306 303 301 300 300 299 299 299 301 309 313 306 306 307 315 317 316 317 317 314 316 316 317 315 317 317 317 315 316 317 317
301 301 302 302 302 302 299 298 301 303 302 299 299 301 303 304 303 304 301 300 300 300 299 298 302 309 308 305 305 306 309 316 316 316 317 317 317 316 317 317 316 316 316 316 315 316 317
301 302 300 301 302 302 302 302 301 300 299 303 302 300 300 302 304 302 304 300 300 300 299 300 304 309 310 310 313 314 311 310 315 316 316 316 318 318 317 314 313 315 315 316 317 318 316
301 300 300 301 300 302 302 301 301 301 301 298 303 303 301 300 300 303 302 301 300 300 299 305 312 312 308 308 315 315 315 312 314 316 316 316 317 314 312 312 315 315 317 317 316 316 315
299 298 296 295 294 296 300 302 302 303 302 301 299 303 304 301 300 303 302 301 304 313 313 312 315 313 308 311 313 314 315 315 314 314 314 317 315 316 314 313 315 316 316 316 317 318 321
302 300 299 296 295 299 302 303 303 304 303 303 302 298 304 302 301 300 303 302 303 306 305 305 310 314 314 313 317 313 315 315 314 313 315 316 317 317 315 315 316 316 317 317 318 319 319
300 299 298 298 300 301 302 302 303 304 304 304 303 303 299 300 301 300 303 305 309 308 306 308 308 311 310 311 317 313 314 315 313 313 315 317 318 317 316 316 316 317 317 318 318 319 318
299 297 295 299 301 301 301 302 303 303 304 304 303 303 303 298 300 305 308 308 308 309 307 308 312 309 310 312 315 311 308 315 313 314 313 315 317 318 317 317 317 318 318 318 319 320 320
298 296 299 300 301 301 302 303 303 303 304 304 304 303 302 301 300 306 308 307 308 309 299 305 309 309 311 312 311 314 311 313 313 313 313 316 318 318 318 318 319 319 319 320 321 321 319
298 297 298 299 300 301 302 302 303 303 303 303 304 303 303 303 302 298 302 305 309 312 306 308 311 311 312 312 311 313 314 314 315 313 313 314 316 317 318 319 318 319 320 320 318 318 320
293 293 297 298 300 300 302 302 303 303 303 304 304 304 303 303 303 302 303 308 311 310 307 307 314 315 312 311 311 312 312 313 314 313 314 313 314 316 316 317 318 319 317 320 320 320 320
293 293 297 299 300 300 302 303 304 304 304 304 305 304 304 302 303 302 305 309 311 309 308 309 309 309 315 312 310 312 312 310 311 314 313 314 315 314 316 316 318 318 318 320 322 322 322
294 295 299 300 301 301 302 303 304 304 303 304 305 305 304 303 303 302 303 306 308 307 310 309 308 308 310 315 313 312 311 311 311 313 315 314 315 316 317 317 318 319 319 319 324 325 324
295 297 300 300 301 302 302 303 303 304 304 304 305 305 304 303 302 302 304 306 306 306 307 308 310 310 310 313 313 313 313 313 313 313 314 315 316 316 317 318 318 319 320 324 325 327 327
299 299 299 300 301 302 303 303 304 304 304 304 304 305 304 304 302 302 304 305 306 305 306 308 307 309 309 310 311 312 315 316 313 314 315 316 316 316 318 318 318 318 319 322 325 325 325
298 299 299 300 300 301 302 303 304 304 305 304 304 304 304 304 303 303 302 305 305 306 306 306 308 308 309 309 311 313 313 315 315 314 316 316 316 317 317 318 318 317 319 319 323 327 325
299 299 299 300 301 301 301 302 303 304 304 304 304 301 303 304 304 304 303 303 304 305 305 306 307 308 308 308 310 314 313 316 316 315 315 314 316 318 317 318 318 317 318 319 322 322 324
299 299 300 300 301 301 301 301 301 302 303 303 303 302 302 303 304 304 304 303 304 304 304 305 307 307 307 307 309 313 314 318 318 317 315 315 317 316 317 317 319 319 319 319 321 321 322
300 300 301 301 301 301 302 302 302 302 302 303 301 301 304 305 304 304 304 304 304 306 305 306 305 307 308 308 309 314 318 318 319 317 317 316 317 316 317 318 319 318 319 320 320 320 321
297 298 298 297 297 298 299 301 302 302 302 303 299 301 303 304 304 304 305 304 305 305 305 306 306 307 308 308 308 310 317 317 320 317 317 315 317 317 318 318 318 319 319 320 320 317 320
295 296 297 297 297 298 298 298 299 302 303 304 303 302 304 304 305 305 304 304 304 305 305 305 306 305 305 306 307 314 316 316 317 316 316 316 317 316 318 318 319 319 319 320 320 319 318
297 298 298 299 299 299 298 298 298 299 302 302 303 302 303 305 304 305 305 304 304 305 305 306 306 306 306 308 311 313 314 316 316 316 315 317 317 315 314 317 322 318 319 320 320 319 318
298 299 299 299 300 301 300 299 299 298 299 301 302 302 303 305 304 305 305 304 304 304 306 305 306 306 306 307 312 312 312 314 313 315 316 316 318 314 317 318 319 319 318 319 319 318 318
300 301 301 300 300 300 301 299 299 299 299 300 302 302 302 304 304 304 304 305 305 304 304 305 306 307 307 308 310 312 313 315 316 316 315 317 316 316 313 318 317 317 317 318 318 318 317
301 300 301 301 301 301 300 301 300 300 299 299 301 300 301 300 305 304 305 305 305 304 304 304 305 305 307 305 306 307 310 314 315 315 317 312 313 314 312 315 316 316 317 318 319 318 317
302 302 301 302 302 302 300 301 300 300 300 300 301 300 301 300 305 304 305 305 305 305 304 304 306 306 306 305 306 306 305 310 313 314 315 316 316 315 313 315 318 317 318 319 316 317 319
301 300 300 301 301 301 301 301 301 301 301 300 300 300 301 301 305 305 306 306 305 305 306 306 306 306 307 306 307 306 305 303 309 312 314 315 313 314 314 314 315 318 319 319 319 317 319

GFSGBSN_850_thetae_075.txt.gz
Theta_e
305 305 306 306 306 306 306 305 303 302 301 301 302 306 303 306 305 302 301 301 300 300 299 299 299 300 301 306 305 307 314 316 313 315 315 315 312 315 315 314 313 312 313 315 316 317 317
305 304 304 303 302 303 304 305 306 305 302 300 300 302 305 303 304 303 300 300 301 300 300 299 298 299 306 310 307 308 308 307 308 311 315 314 312 313 316 315 313 314 314 315 316 317 317
305 304 303 301 302 301 300 300 300 302 303 303 300 299 301 304 303 303 301 300 299 300 300 299 298 302 308 304 306 305 305 313 313 315 314 315 314 314 316 315 316 316 315 313 314 316 315
303 303 302 302 302 302 300 299 299 299 297 298 302 303 301 300 300 302 300 299 300 300 300 300 299 305 307 303 303 305 305 306 313 316 316 317 316 315 315 316 315 314 314 315 314 315 316
302 303 303 304 303 302 302 300 299 299 297 297 298 301 304 302 300 298 298 299 300 301 300 300 301 307 306 304 307 312 315 311 308 316 316 315 316 316 316 313 312 312 311 314 314 315 316
302 303 303 303 302 302 301 301 302 302 302 301 300 298 299 303 302 298 298 299 300 301 300 300 308 308 303 304 309 315 315 315 311 314 315 315 315 313 311 312 315 312 315 314 315 315 315
301 301 303 303 301 299 300 299 303 304 304 304 303 303 300 302 304 298 298 301 301 309 309 304 308 306 305 310 312 314 315 315 312 315 314 315 314 316 315 313 313 314 315 315 314 315 317
300 301 300 301 298 296 295 296 301 303 303 303 303 304 303 299 302 298 298 303 304 303 305 305 307 308 308 307 313 311 312 314 313 313 312 315 315 316 314 313 314 314 315 315 314 316 316
299 300 300 301 301 297 298 299 301 301 302 303 304 304 303 303 299 298 300 306 306 307 307 307 304 304 307 308 312 310 310 314 312 312 313 314 316 316 315 314 315 315 315 315 316 315 316
299 299 299 299 298 298 299 301 301 302 302 302 304 304 303 303 301 298 305 307 306 308 303 303 308 307 306 307 313 308 310 311 312 313 313 313 314 316 315 315 314 314 314 316 316 316 317
299 299 298 298 298 299 300 301 301 302 302 302 304 304 304 303 301 302 307 307 305 307 298 303 308 309 310 309 310 312 310 312 313 313 312 313 314 314 316 317 315 316 316 317 317 317 317
298 298 298 298 297 299 299 299 300 301 302 303 303 304 304 303 303 303 301 303 307 308 301 303 308 311 312 312 311 313 312 311 312 312 312 312 315 315 315 316 316 317 318 318 317 316 319
298 298 297 297 295 294 298 299 300 301 302 303 304 304 304 303 303 303 301 304 309 309 306 305 310 309 310 311 311 310 312 311 312 313 314 312 312 313 316 316 316 316 317 318 318 319 320
297 297 297 297 295 294 299 300 299 301 302 303 304 304 304 304 303 303 304 306 309 306 306 306 307 307 307 310 309 310 310 311 310 312 312 314 314 313 313 315 315 316 316 318 322 320 319
296 297 297 297 294 295 299 300 300 301 303 304 304 305 305 304 303 303 302 306 306 307 308 308 309 308 307 311 311 310 309 309 309 310 313 313 313 313 313 315 316 316 317 317 321 322 323
296 297 296 295 297 298 299 300 301 302 303 304 304 304 305 304 304 302 302 302 305 306 306 306 308 309 309 310 312 311 312 311 311 310 312 314 314 314 315 314 315 316 318 321 321 325 325
295 295 296 297 298 299 299 300 301 302 303 303 304 304 305 305 304 302 302 302 304 304 305 307 307 307 309 309 312 312 312 311 312 311 310 312 314 314 314 316 316 317 319 322 321 320 321
294 296 297 298 298 299 299 300 301 302 303 303 304 304 304 305 302 301 303 301 303 305 305 305 306 307 308 308 309 312 312 312 310 315 313 312 314 316 316 316 316 316 317 322 320 326 321
297 298 298 298 299 299 299 300 300 301 303 303 304 301 304 304 304 303 303 303 302 304 305 305 307 306 306 307 308 311 312 312 313 317 313 313 314 316 316 315 316 317 316 317 320 321 322
298 298 298 299 299 299 300 300 301 301 302 303 300 302 303 304 304 304 304 304 302 302 303 305 305 305 306 306 307 308 311 313 316 316 317 316 314 316 317 316 317 318 318 318 319 320 321
298 299 299 299 299 300 300 300 301 301 301 302 300 301 303 304 304 304 304 304 304 303 303 303 303 304 304 306 307 308 310 313 313 315 316 315 316 315 315 315 318 319 318 318 318 318 320
300 300 300 299 300 301 301 301 301 301 301 301 299 301 303 303 304 304 305 304 305 304 304 303 305 306 304 305 305 307 309 312 316 317 317 315 316 316 316 316 318 319 318 317 317 318 318
296 296 296 296 296 297 298 299 301 301 301 301 300 301 303 305 305 304 304 305 305 304 304 303 304 305 305 305 305 306 306 312 316 317 317 317 315 315 317 318 319 318 317 317 318 318 318
296 296 296 296 296 296 297 297 298 298 300 302 301 302 303 305 305 305 304 304 305 304 304 305 303 303 304 305 305 306 305 308 314 315 316 316 317 313 315 317 320 317 317 317 318 318 319
297 297 298 297 297 297 297 298 298 298 298 300 302 302 303 304 305 305 305 304 303 303 304 304 305 305 305 305 305 307 308 311 312 313 315 315 317 317 317 316 316 317 317 318 319 319 318
299 299 299 299 300 299 299 298 300 299 298 298 300 301 303 304 305 304 305 304 303 303 303 304 305 305 304 303 305 307 309 311 314 315 313 314 315 316 315 317 315 315 315 316 317 319 317
300 300 300 300 300 301 300 300 299 300 299 298 299 300 301 301 304 304 305 305 303 303 302 303 304 304 305 303 305 306 308 312 313 313 315 312 312 316 317 318 315 314 316 317 321 317 316
301 301 301 301 300 300 301 300 300 300 299 299 299 300 301 300 303 304 304 304 304 304 303 303 305 304 303 304 307 304 302 308 309 311 314 314 314 309 312 315 318 316 318 318 316 316 318
301 301 301 301 301 301 302 301 301 299 300 299 299 300 300 301 302 304 304 304 304 304 304 304 305 305 305 304 304 303 303 300 307 309 311 313 312 312 315 314 314 317 318 318 318 317 317

GFSGBSN_850_thetae_078.txt.gz
Theta_e
303 303 303 303 304 304 305 306 306 306 304 302 300 300 300 301 301 301 300 300 300 300 300 300 300 299 300 303 303 306 311 316 315 315 315 315 313 313 314 312 312 311 311 314 314 314 315
304 305 304 304 304 303 302 300 300 301 302 301 302 301 300 299 300 300 299 299 299 300 299 300 301 300 301 307 305 306 307 307 313 312 312 314 313 312 315 313 312 314 312 313 314 315 315
303 304 304 304 303 303 303 302 301 299 298 297 297 299 301 299 299 298 298 299 299 299 300 301 302 301 302 302 304 305 304 305 312 311 310 313 313 313 314 314 315 315 314 311 311 314 313
302 303 302 303 303 303 303 303 302 299 298 297 297 297 297 299 300 297 297 298 298 299 300 300 302 302 305 303 302 304 304 304 304 312 313 313 314 314 313 314 314 314 312 313 312 313 314
302 302 302 302 303 303 302 303 301 300 300 300 300 299 299 298 298 297 297 297 298 299 300 301 302 301 302 302 304 309 314 314 314 306 313 315 314 316 315 313 312 311 312 311 311 313 315
302 301 301 302 302 302 302 302 298 296 301 303 303 303 303 301 298 297 298 297 299 302 304 300 306 305 301 302 305 313 314 314 313 308 312 313 314 312 311 311 315 313 313 312 313 313 313
301 301 301 301 301 301 301 301 300 298 302 304 304 303 304 304 302 299 299 298 303 303 307 305 307 305 304 307 309 314 315 313 313 313 312 313 312 313 314 313 312 312 313 314 312 312 315
300 300 300 300 300 301 301 302 300 301 301 302 303 303 304 304 304 301 299 302 306 304 304 304 303 306 303 305 308 308 310 313 312 312 312 313 314 314 313 313 314 313 314 314 312 313 313
299 299 298 299 299 300 300 300 300 301 302 301 302 303 304 304 304 303 298 305 305 306 306 306 305 305 304 305 306 305 307 313 312 312 312 313 314 314 314 313 314 314 314 314 313 313 313
298 298 298 298 298 299 299 298 299 300 300 301 302 302 304 304 303 301 299 306 305 307 305 303 305 306 305 305 308 306 307 309 311 312 312 312 312 314 314 315 314 314 313 314 314 315 315
299 297 298 298 298 298 298 298 299 300 300 301 302 302 304 304 303 302 305 306 306 307 299 302 307 308 309 305 308 312 308 309 307 311 312 312 313 313 315 315 313 315 313 313 314 314 315
298 298 297 297 298 298 298 297 299 299 300 301 301 302 304 304 304 304 303 303 303 306 300 302 308 311 311 310 310 312 311 310 310 311 311 311 312 312 313 314 313 316 315 315 316 315 317
298 297 297 297 298 298 297 297 296 299 299 301 301 303 303 304 304 303 303 301 308 307 304 305 307 307 306 311 311 310 312 310 309 311 312 312 311 312 315 313 314 315 315 317 318 318 320
297 297 297 297 297 296 297 297 294 298 299 299 301 303 304 304 304 303 302 305 308 306 306 305 307 307 306 309 310 309 311 310 309 310 307 310 311 312 312 315 316 315 315 317 322 320 319
296 296 297 297 297 297 297 297 296 298 300 300 301 303 304 304 304 303 302 304 304 306 305 307 307 307 306 310 311 310 309 309 308 309 311 312 311 311 312 313 315 315 317 315 319 320 321
295 296 297 296 296 296 296 296 297 298 300 300 302 303 304 304 305 304 303 300 303 305 305 306 307 308 309 307 310 311 311 311 309 308 310 312 313 312 313 312 313 314 315 319 318 324 325
295 295 294 295 296 295 296 297 298 299 300 301 302 304 304 303 305 303 304 301 301 301 302 305 306 307 308 308 308 311 311 311 309 313 312 310 312 314 313 313 313 315 316 319 319 318 320
294 294 295 295 295 295 297 298 298 298 300 301 302 303 304 304 305 301 304 302 301 303 304 303 305 305 306 306 307 310 312 312 311 313 315 311 310 313 314 314 313 313 315 318 319 321 318
295 295 295 296 297 297 298 298 299 299 300 301 303 303 304 304 305 304 303 303 302 302 303 305 305 305 305 305 306 308 310 311 313 314 315 316 314 312 314 313 314 316 315 317 319 319 320
296 297 297 298 298 298 299 299 299 299 300 301 300 301 303 305 304 305 304 304 304 301 302 304 305 304 305 306 305 307 307 307 309 312 314 314 317 313 313 313 312 316 316 316 319 317 318
298 298 297 298 298 299 299 299 299 299 300 301 300 300 303 303 305 304 304 304 304 303 302 302 303 304 304 305 304 305 306 306 310 313 315 315 316 313 314 312 313 317 317 317 317 316 317
298 298 299 299 299 300 299 300 299 300 300 300 299 300 302 301 304 304 304 304 305 304 303 302 302 303 303 304 304 304 306 307 308 314 315 314 316 314 314 313 314 314 315 315 316 316 317
298 297 297 297 297 298 299 299 300 300 300 301 299 301 303 303 303 305 304 304 305 305 304 303 303 303 304 304 303 303 303 304 305 306 312 315 313 314 316 315 316 317 315 315 316 316 317
296 296 296 296 296 296 296 296 298 300 300 300 300 300 303 304 304 305 304 304 305 304 304 303 303 304 303 304 304 304 304 304 305 306 306 313 312 312 314 315 317 315 315 316 316 316 315
296 296 297 297 297 297 296 296 296 297 299 302 300 301 302 303 304 304 304 304 304 304 304 304 304 303 303 303 304 305 304 308 308 308 311 312 314 314 317 317 315 315 317 317 317 317 315
297 298 298 298 299 298 298 297 297 297 298 299 299 301 302 302 304 304 304 304 304 304 304 304 303 304 303 303 305 307 308 308 311 314 311 311 313 316 315 319 318 313 313 316 316 317 316
299 299 299 299 299 299 299 299 298 297 297 298 298 299 299 300 303 304 305 305 303 303 303 303 303 304 305 304 306 307 307 308 310 314 313 314 313 317 316 316 316 314 314 315 318 317 316
300 300 301 300 300 301 300 300 300 299 298 299 299 299 299 300 302 304 304 304 303 303 303 303 304 303 303 305 307 306 302 305 308 308 313 312 312 313 314 316 317 314 317 319 315 316 317
301 301 301 302 301 300 300 300 300 300 299 298 300 299 299 300 302 302 303 304 304 304 303 303 304 303 303 302 302 302 302 298 306 307 308 310 310 311 312 313 312 314 317 317 318 317 317

GFSGBSN_850_thetae_084.txt.gz
Theta_e
304 304 304 304 303 304 304 304 304 304 303 301 298 298 297 297 297 297 297 298 298 298 298 298 299 299 300 307 305 305 304 305 315 315 314 315 316 315 316 316 316 317 316 316 316 316 317
303 303 304 303 303 303 303 304 303 304 303 301 298 297 297 297 297 297 297 297 297 298 298 297 298 298 306 307 304 304 305 305 310 316 317 314 316 316 316 317 317 317 317 317 317 317 316
304 303 302 302 302 303 303 302 303 303 303 303 302 300 298 298 298 297 297 297 297 297 297 298 297 298 305 304 303 303 304 305 309 312 313 314 314 314 315 317 316 317 318 318 318 318 318
303 304 303 303 303 302 302 302 302 302 303 303 301 301 301 302 302 302 300 298 298 297 298 298 299 304 306 301 302 303 301 302 303 304 305 311 312 313 314 316 316 317 318 320 320 318 317
301 301 303 303 303 302 301 302 302 301 302 301 302 301 303 304 304 303 302 301 300 298 298 300 303 306 305 303 302 306 302 304 304 303 302 307 312 312 314 316 317 317 319 320 320 318 318
303 302 301 301 302 301 301 301 301 301 301 301 301 300 302 303 303 303 303 302 300 300 304 305 306 306 305 304 308 312 314 314 314 313 308 307 313 315 316 316 317 317 320 320 320 319 317
300 300 299 299 300 301 301 300 300 301 301 301 301 300 302 302 302 303 303 304 305 306 306 307 307 306 305 308 304 310 314 315 312 312 309 309 315 315 315 317 317 318 319 320 320 318 318
298 299 300 299 299 300 301 300 300 300 300 300 300 301 302 301 302 302 303 303 304 304 305 305 305 305 305 307 306 307 313 314 314 314 312 313 314 315 315 316 318 319 318 319 319 318 318
299 298 297 297 297 299 299 298 299 299 299 299 300 301 301 301 301 303 303 303 305 305 306 307 307 306 307 305 305 306 311 313 314 315 313 314 315 314 316 317 317 318 319 319 319 318 319
298 297 299 298 299 300 299 298 298 298 298 298 299 300 300 302 302 304 305 303 304 304 309 308 307 308 307 306 307 305 305 311 314 314 314 314 313 315 315 317 316 317 317 317 318 318 319
296 296 298 298 297 298 298 298 297 297 298 298 298 299 301 302 303 304 305 304 304 305 307 305 308 307 307 307 306 311 306 305 309 314 314 315 315 314 316 316 316 316 316 316 317 319 320
295 295 296 296 296 297 299 298 297 297 297 298 297 299 300 301 302 303 304 304 304 310 306 305 310 311 309 307 308 311 309 307 307 306 308 313 313 314 315 315 316 317 317 318 318 319 321
295 296 296 295 296 297 298 298 297 297 297 297 296 298 299 301 304 303 304 304 309 308 306 307 310 309 308 311 312 312 310 310 311 308 306 306 310 312 314 315 315 316 317 321 322 323 322
294 295 296 297 297 297 298 297 297 296 296 297 296 297 300 300 301 303 303 306 308 306 307 307 308 308 308 310 313 312 313 313 311 311 310 308 307 308 309 313 314 317 318 321 322 323 323
294 294 294 295 297 297 297 296 296 296 297 297 296 297 299 300 301 303 303 308 304 306 307 308 308 308 309 310 312 314 312 313 313 312 312 311 310 311 311 312 312 316 319 319 320 319 323
294 294 294 295 294 295 295 296 296 296 296 297 297 298 300 300 301 302 304 305 305 306 307 307 307 309 309 309 309 312 314 313 313 314 315 313 313 312 312 313 314 314 316 318 319 320 321
294 295 295 295 295 294 296 297 296 295 296 295 297 299 300 300 301 303 305 305 304 303 304 307 308 308 309 309 309 309 311 312 312 314 315 315 314 315 315 314 314 315 317 317 318 319 321
294 295 295 295 294 294 294 294 294 294 295 296 298 301 300 301 302 301 305 304 304 304 303 304 306 307 308 308 308 308 308 311 311 312 314 316 318 315 314 315 315 315 316 317 320 318 321
294 293 293 294 294 294 295 295 295 295 295 297 299 299 300 301 304 303 304 306 305 304 305 305 304 305 306 307 307 307 308 310 309 310 311 312 317 318 315 315 315 315 315 316 317 319 321
294 294 294 294 294 295 295 295 295 295 295 296 298 301 300 301 301 304 304 304 307 304 304 304 306 306 307 307 307 307 307 307 309 308 307 309 311 315 319 318 318 318 317 316 317 321 319
295 295 296 296 297 297 297 297 297 297 296 296 298 299 300 303 302 302 305 304 305 306 303 304 304 306 306 307 308 308 308 308 307 307 310 311 311 310 311 313 314 315 317 318 318 318 321
297 297 297 298 298 299 299 298 299 298 298 298 298 300 300 301 301 303 303 304 305 304 305 305 305 305 306 307 307 307 307 308 307 308 308 309 313 313 314 313 314 316 316 317 318 318 318
298 298 298 298 296 296 298 299 299 299 298 299 298 299 301 301 303 304 305 306 306 305 305 304 305 305 305 306 305 306 306 305 306 307 308 309 310 311 313 314 315 316 317 319 318 318 318
298 298 298 297 296 296 296 296 298 299 299 298 299 299 300 302 303 304 303 304 304 304 305 305 304 305 305 304 304 305 305 305 306 307 307 308 310 312 312 314 317 316 316 319 319 318 317
297 296 296 296 296 296 296 296 296 297 298 299 299 300 300 303 303 304 304 305 304 305 305 305 305 304 304 304 307 307 308 307 307 307 308 308 309 311 311 316 315 315 313 317 321 319 318
295 295 296 296 296 296 296 296 296 296 296 298 299 299 301 304 304 302 304 304 305 306 306 305 304 304 303 305 308 308 308 308 309 310 309 308 309 311 312 316 314 314 313 315 316 322 320
295 295 296 297 297 298 298 298 298 298 297 296 298 298 299 300 301 301 304 305 305 305 306 305 305 304 303 306 308 308 307 307 308 310 310 310 309 311 311 315 315 316 316 316 322 322 318
298 298 298 298 297 299 299 299 298 298 297 297 296 298 298 300 302 302 302 302 303 305 306 305 305 303 303 308 308 308 307 307 307 307 314 311 310 312 311 315 315 314 315 317 317 318 318
300 300 300 300 300 300 299 299 300 299 299 297 297 297 298 298 301 301 303 303 304 304 304 305 305 305 305 307 308 308 309 310 308 309 308 308 314 315 315 313 312 310 313 314 313 315 315

GFSGBSN_850_thetae_087.txt.gz
Theta_e
303 304 305 304 303 303 304 303 303 303 304 303 301 299 297 297 297 297 297 297 297 297 297 298 298 298 299 310 310 309 307 307 306 314 315 316 317 318 320 320 319 320 320 319 318 319 318
305 304 303 303 304 303 303 304 304 303 303 303 303 301 299 297 297 298 297 297 297 297 297 297 298 298 305 309 308 306 307 309 311 316 317 317 318 318 318 319 320 320 319 319 319 319 319
303 305 305 304 303 303 303 303 302 302 303 303 303 303 301 299 299 300 300 299 299 298 298 297 297 298 305 306 307 307 309 308 312 312 315 318 317 317 318 320 318 318 320 320 320 320 321
303 303 302 304 304 304 303 302 302 302 302 302 302 302 300 299 301 302 302 300 300 299 299 298 298 304 307 306 306 307 308 307 309 313 313 315 316 316 317 318 319 319 320 321 322 323 322
302 304 303 301 303 303 304 302 302 302 301 302 301 302 300 299 301 301 300 300 299 300 299 299 302 308 308 307 307 307 307 307 307 307 308 309 310 315 317 319 320 320 321 322 322 323 321
300 301 303 303 302 301 302 303 302 301 301 301 301 301 301 299 301 300 299 299 303 305 308 308 309 309 310 306 308 311 315 307 307 310 308 307 308 313 314 316 320 320 321 320 321 323 323
298 299 299 300 300 299 300 302 302 301 300 301 300 300 301 301 302 299 300 307 307 310 309 310 310 310 308 308 308 308 316 316 316 315 312 309 309 313 315 315 316 318 319 321 323 323 322
298 299 301 299 299 300 299 300 301 300 299 300 300 300 301 302 301 299 303 307 307 305 307 306 306 306 307 308 307 308 311 314 316 317 316 313 311 314 316 316 316 317 319 320 321 322 322
299 300 299 299 298 299 298 299 300 298 299 299 299 299 300 301 300 302 307 306 306 306 308 307 308 309 309 308 308 308 309 314 317 316 315 316 316 315 315 315 316 317 319 321 321 322 322
298 300 299 297 297 299 299 300 300 299 297 298 298 298 300 300 301 306 307 306 306 307 310 309 309 309 308 308 309 308 308 311 314 314 314 316 315 316 316 316 316 318 319 319 319 321 321
296 297 297 296 297 298 298 299 299 298 297 297 298 298 299 300 304 306 306 306 306 308 306 309 309 309 310 309 309 310 309 307 311 313 314 315 315 316 316 317 315 318 318 318 319 320 320
296 296 295 295 297 296 297 297 299 298 298 298 297 298 298 300 303 304 305 307 307 311 306 307 311 311 311 311 309 312 310 307 307 309 313 315 316 316 316 316 317 317 317 318 319 320 322
295 296 296 296 297 296 296 297 298 298 297 297 297 296 297 301 304 305 305 307 309 308 307 308 312 312 311 313 313 313 311 310 311 308 310 311 311 315 315 316 316 316 318 321 323 324 324
296 296 295 294 296 297 297 297 298 298 297 296 296 296 299 300 303 304 305 308 309 307 308 309 309 311 310 311 314 314 315 314 313 312 313 309 309 309 313 315 316 317 318 321 323 326 326
294 295 295 295 294 295 297 298 298 297 296 296 297 298 299 301 303 303 305 308 307 307 308 309 309 310 310 311 313 314 315 315 315 314 314 313 313 312 309 311 313 316 318 318 320 322 324
295 295 294 294 294 295 295 296 296 297 296 296 299 299 299 301 303 303 304 305 306 307 308 308 310 310 311 311 312 313 315 315 315 316 316 315 315 314 312 312 311 311 313 316 318 320 323
293 293 294 295 295 295 296 295 295 296 297 295 299 299 300 302 303 302 306 306 305 306 306 308 309 309 310 310 310 310 311 314 314 315 317 317 316 316 314 314 314 313 314 315 317 319 320
293 293 293 295 296 296 296 295 294 296 296 295 299 300 300 302 303 302 303 305 304 307 305 306 307 308 309 308 309 309 310 311 311 312 315 317 319 317 315 316 315 316 316 315 318 319 319
294 295 295 294 294 294 294 294 294 294 294 297 298 299 301 302 304 304 303 304 306 306 306 306 305 306 306 307 308 309 310 310 310 310 311 311 317 318 317 315 315 316 317 317 318 318 320
293 293 293 294 294 294 294 294 295 295 295 296 299 302 300 302 302 304 304 304 304 306 307 305 306 306 306 307 308 309 309 309 310 309 307 308 310 313 317 318 318 317 316 317 317 321 319
294 295 295 295 295 295 295 295 295 295 295 296 297 300 301 303 303 303 304 304 305 305 306 306 306 307 307 307 308 309 310 310 310 309 309 310 311 311 311 311 312 315 316 317 317 318 319
297 297 297 297 297 297 297 297 297 297 296 296 297 298 299 301 301 304 303 304 304 305 307 307 307 306 306 307 307 309 310 310 310 310 310 311 313 312 313 312 313 313 314 315 316 317 318
298 298 298 298 298 298 298 299 299 299 297 297 297 298 300 301 303 303 304 305 304 305 305 305 306 306 306 307 306 307 307 308 308 309 310 311 311 312 313 311 315 316 314 315 317 319 319
298 298 298 298 298 298 298 296 298 299 299 297 298 297 299 303 303 304 303 303 304 305 306 306 305 306 306 307 306 306 306 307 308 308 308 310 310 311 313 311 312 312 317 317 318 318 321
297 297 297 297 298 298 297 296 296 297 299 298 298 299 300 303 302 303 304 304 303 304 306 306 306 306 306 307 307 308 309 309 309 309 309 308 310 313 313 313 312 311 315 314 316 316 320
296 295 295 295 296 297 297 297 297 297 297 298 298 299 301 303 304 302 303 303 305 306 306 306 306 306 306 307 309 309 311 310 311 311 310 310 310 312 312 312 314 317 315 315 316 321 318
298 296 295 295 295 296 297 296 296 297 296 297 298 298 300 301 302 302 304 304 305 305 307 307 306 305 306 308 309 309 311 309 310 311 313 312 312 312 312 311 313 316 316 316 320 320 314
300 300 299 298 296 296 297 298 297 297 297 297 299 297 298 300 302 303 303 303 304 305 308 307 306 305 304 308 309 309 310 309 309 309 313 312 312 313 312 311 313 314 316 318 316 315 315
301 300 300 300 299 298 298 298 299 299 298 298 298 297 298 299 301 302 303 304 304 303 305 305 305 305 306 308 309 309 310 310 309 311 311 313 312 313 311 312 314 312 315 312 312 313 314

GFSGBSN_850_thetae_090.txt.gz
Theta_e
305 305 304 304 304 304 304 304 304 304 304 304 303 303 301 299 298 297 298 298 297 298 298 298 298 298 299 309 309 309 310 309 308 308 316 317 317 319 321 321 321 321 321 321 320 320 320
304 304 305 306 305 304 303 303 303 303 303 303 303 303 303 301 299 299 299 299 298 298 299 299 298 298 304 307 306 309 308 309 310 315 318 317 317 318 319 320 321 321 321 321 321 320 320
304 303 303 302 305 305 304 304 303 302 302 303 302 302 303 301 298 298 299 299 299 299 299 299 299 298 305 303 306 308 309 310 310 312 314 317 318 319 320 321 320 320 321 321 321 320 321
301 302 303 304 302 303 304 304 304 302 302 302 302 302 301 301 299 298 298 298 298 299 299 300 299 299 307 303 307 308 308 308 309 311 314 314 316 318 319 319 320 320 321 321 321 321 322
301 301 301 303 304 303 302 303 304 303 302 302 301 301 301 301 299 297 297 297 297 303 304 302 300 306 308 309 309 309 308 308 309 309 311 314 313 316 318 319 320 320 321 322 322 322 322
300 300 300 300 302 303 302 302 302 303 302 301 301 300 300 300 301 299 297 297 299 307 308 310 308 311 311 310 308 309 313 314 310 309 309 309 310 311 313 316 320 320 321 321 322 322 322
300 299 300 300 300 300 301 300 300 301 302 301 300 301 300 300 301 300 298 299 309 310 311 312 312 310 311 310 309 310 310 315 309 308 310 309 310 310 311 314 316 318 319 320 321 322 322
299 297 298 298 301 301 300 300 300 300 301 299 299 299 300 299 300 299 297 308 308 307 307 307 308 309 310 309 309 310 309 316 317 318 317 314 311 311 311 313 316 316 317 318 319 321 321
298 298 299 300 301 300 299 300 299 299 301 299 298 299 299 299 300 297 306 308 306 307 308 307 307 307 307 308 308 308 309 310 314 316 317 317 316 313 313 311 313 317 318 318 319 321 321
299 299 299 299 299 299 298 299 299 300 301 299 298 298 299 298 299 305 308 307 307 308 309 308 310 310 310 310 311 310 310 310 311 315 317 317 316 315 316 316 313 317 318 318 319 320 323
297 296 296 296 297 297 297 298 299 299 300 299 298 298 297 298 302 306 307 306 307 308 308 312 310 310 311 309 311 311 310 309 311 315 315 315 315 314 316 315 317 316 317 318 320 321 321
297 296 297 296 296 296 296 297 297 297 299 298 298 298 297 298 300 301 304 305 307 309 307 307 311 311 312 311 311 313 312 310 309 309 311 314 314 315 315 316 316 317 317 318 319 320 323
295 295 296 296 297 297 297 297 297 297 299 298 298 297 297 299 302 305 305 306 309 308 307 307 310 311 312 313 312 311 313 311 310 308 309 310 312 314 316 316 316 316 318 320 321 323 324
295 295 296 296 295 295 295 297 297 297 298 298 297 297 298 298 300 303 304 307 310 308 308 308 310 312 313 311 314 313 314 312 311 310 310 312 311 312 314 315 316 316 318 319 320 327 328
294 294 295 295 295 295 294 295 297 298 298 297 297 298 299 299 301 302 304 306 306 307 308 308 310 309 311 311 312 315 315 315 314 313 314 315 313 313 311 312 315 317 317 317 319 320 323
293 294 295 295 294 294 294 295 296 298 297 297 298 299 300 300 301 302 304 304 305 306 307 309 310 310 309 310 312 314 314 315 316 315 316 315 316 315 312 310 312 314 317 318 319 319 318
293 294 294 294 293 295 295 295 296 296 296 297 297 299 299 300 302 302 304 303 305 304 306 309 309 311 312 313 312 313 316 315 315 315 315 318 316 315 314 310 311 311 311 312 313 316 318
293 294 293 293 293 294 295 296 296 296 296 297 297 301 300 301 303 303 305 303 303 304 305 306 308 309 311 310 311 311 311 314 312 313 314 315 318 318 315 315 314 314 312 311 314 316 320
293 294 294 295 295 295 295 294 296 296 295 297 298 299 300 303 304 303 303 303 303 304 305 306 308 306 307 307 308 309 310 311 310 311 310 310 315 317 316 315 315 316 316 315 315 316 318
293 294 294 294 293 293 294 294 294 294 294 295 298 301 299 302 302 304 304 303 303 303 305 306 308 308 306 306 307 308 309 310 310 310 307 308 310 312 315 317 315 316 318 316 317 319 319
294 295 295 295 295 295 294 294 295 295 295 295 297 301 301 303 304 303 303 303 305 304 304 305 308 308 307 306 306 307 308 309 310 310 310 310 310 310 310 310 310 311 312 316 318 317 318
296 296 297 298 297 296 296 295 295 295 295 296 297 298 299 300 302 303 303 303 303 304 305 307 306 307 307 308 308 308 310 311 311 311 311 312 314 312 312 312 312 312 312 312 315 316 316
297 297 298 298 298 298 298 298 297 296 296 297 297 297 298 300 302 302 304 304 303 303 303 304 306 307 307 308 307 308 308 309 310 310 310 311 312 313 313 312 312 314 314 313 312 314 315
297 297 298 298 298 298 299 299 298 298 297 297 297 297 298 301 302 302 302 303 304 304 305 305 305 307 307 308 308 307 307 308 308 309 309 310 311 312 313 313 313 312 312 317 316 317 317
297 297 297 297 297 297 298 298 299 298 299 297 297 297 299 301 300 302 303 304 304 304 305 305 305 307 307 308 308 308 308 309 309 309 309 310 310 312 313 313 312 312 312 314 316 316 317
297 298 297 296 296 296 297 298 298 296 297 298 297 298 299 301 301 300 302 302 304 306 306 305 306 306 307 307 307 308 309 310 311 311 310 310 310 312 313 312 312 315 317 316 316 318 317
298 299 299 299 296 295 296 296 297 297 296 297 298 298 298 299 301 301 303 304 303 304 306 306 307 307 307 308 308 308 309 309 312 312 312 312 312 312 313 312 312 313 314 314 319 318 315
300 300 300 300 300 296 295 296 297 297 297 297 298 298 298 298 300 301 302 303 304 305 307 307 307 305 305 308 307 308 310 311 310 310 314 312 313 313 313 312 312 315 315 317 315 314 314
300 300 300 301 301 300 297 295 296 297 297 297 298 298 298 298 300 301 302 304 304 305 304 305 307 306 306 307 308 309 310 313 310 310 311 314 312 314 311 312 314 311 313 311 311 311 310

GFSGBSN_850_thetae_093.txt.gz
Theta_e
304 304 304 305 306 305 304 303 303 303 303 303 303 302 302 302 301 298 297 297 297 298 298 299 299 299 299 305 306 306 307 310 309 309 309 314 314 313 315 318 318 318 318 319 319 319 319
303 304 304 304 303 304 305 304 304 303 303 302 302 303 302 302 301 300 297 297 297 298 299 299 300 300 300 304 305 308 309 309 308 310 315 316 316 318 317 317 317 319 320 320 320 319 319
302 302 302 303 304 304 303 304 305 304 303 303 302 302 302 302 301 300 299 297 297 297 298 299 301 301 303 302 304 308 308 308 309 309 310 313 318 318 317 317 318 319 318 318 318 319 317
302 302 301 301 301 303 304 304 302 304 304 303 302 302 301 301 301 300 297 296 297 297 297 303 303 301 304 303 305 307 305 308 309 309 309 313 313 314 316 318 319 318 317 318 318 318 318
300 300 300 301 301 300 302 303 303 302 302 303 302 302 301 300 300 300 297 296 297 297 298 305 306 301 307 309 310 308 309 308 307 309 309 310 313 313 315 316 316 317 318 318 318 318 318
301 301 300 300 299 300 300 301 302 302 301 301 302 302 300 299 300 299 297 296 304 304 307 309 308 308 309 308 309 309 310 310 309 308 309 309 310 309 311 313 318 316 317 316 317 317 319
299 299 299 299 299 299 299 301 300 301 300 300 301 300 299 299 299 298 297 301 308 309 309 312 311 309 309 311 311 310 310 312 312 311 307 308 306 306 307 309 312 314 315 316 316 316 317
299 299 299 298 299 299 299 301 300 300 300 300 301 300 298 299 298 298 298 304 308 307 307 306 307 309 311 310 311 310 309 310 316 308 307 308 307 308 308 308 309 311 313 313 314 315 317
297 299 300 299 300 300 301 301 299 299 300 299 301 300 298 298 298 298 304 307 308 306 306 305 304 306 306 306 309 308 307 308 311 316 314 311 314 311 309 309 308 308 310 313 315 316 317
297 298 297 297 298 298 298 298 298 299 299 300 301 299 298 298 297 304 308 307 307 306 306 306 308 307 307 307 309 309 307 308 309 309 314 315 315 316 313 310 310 309 309 311 315 318 319
296 296 296 297 297 297 297 297 297 297 299 299 300 299 298 298 297 302 305 306 306 307 305 308 310 310 309 309 311 310 310 308 309 309 312 313 314 314 314 313 313 313 311 312 318 318 319
294 296 296 296 296 297 296 297 297 297 297 297 299 298 298 297 298 299 302 304 306 307 307 307 310 310 310 310 310 310 310 310 310 309 309 310 311 311 312 313 314 315 316 317 318 319 322
295 295 295 295 295 296 297 297 296 297 297 297 299 298 297 297 296 301 304 304 306 308 307 307 310 310 311 311 310 311 313 311 307 307 307 308 308 309 311 311 314 315 315 317 320 320 320
295 295 295 295 296 296 296 296 295 296 297 298 298 298 298 297 295 296 301 306 308 307 306 309 308 310 310 311 311 311 312 310 309 307 307 307 308 308 309 310 314 315 316 318 321 323 326
294 294 294 294 295 296 296 296 295 295 297 298 298 298 297 297 296 300 301 305 306 305 306 306 308 310 309 312 310 312 310 312 310 308 309 312 312 314 309 310 314 315 315 316 318 318 322
293 294 294 294 295 295 295 295 294 295 296 298 298 298 298 297 300 301 302 303 303 304 304 306 308 310 311 312 312 310 313 314 315 315 312 314 316 316 314 311 312 313 315 317 317 318 317
294 293 293 293 293 293 294 295 295 296 297 297 297 298 297 298 301 301 301 300 301 302 304 305 308 309 310 311 311 312 312 315 315 315 316 316 317 316 315 309 309 311 313 315 314 316 317
292 293 293 293 293 293 293 294 295 296 297 296 297 297 300 300 301 302 300 302 301 302 303 304 306 307 311 309 309 312 312 314 312 311 313 310 316 317 317 316 314 310 310 310 311 312 314
292 293 293 294 294 295 295 295 296 296 296 297 297 298 297 300 297 300 302 302 303 303 303 304 306 307 307 307 308 308 310 312 311 311 309 309 312 316 314 315 316 317 313 312 311 311 312
293 294 294 294 294 294 293 294 294 295 296 296 296 294 299 300 300 302 303 303 303 302 302 303 305 305 306 307 306 307 307 310 310 308 308 308 310 311 313 313 312 312 312 313 316 316 313
295 295 295 295 295 295 295 294 294 294 295 295 296 297 299 298 300 302 302 303 303 304 304 303 305 305 306 308 308 306 308 310 310 310 310 310 309 310 310 310 310 310 310 310 311 318 319
295 296 297 297 297 297 297 296 295 294 295 295 296 297 298 299 300 302 302 301 303 303 304 304 305 305 306 306 308 308 308 310 311 310 311 312 313 313 313 312 312 312 312 311 311 311 313
296 297 297 297 298 298 298 298 298 295 295 296 295 296 297 298 300 301 301 303 303 303 303 304 305 305 306 307 307 307 308 308 309 310 309 310 312 311 313 312 312 312 312 311 312 312 312
297 297 298 298 297 298 298 299 299 298 296 295 296 296 297 297 298 298 299 301 302 303 304 304 305 305 305 307 307 308 307 308 309 309 308 309 310 310 312 311 311 312 311 312 317 317 317
297 297 297 297 297 297 298 298 299 299 298 297 296 297 297 297 298 299 300 301 303 303 304 304 305 305 305 307 307 306 306 307 308 308 307 308 309 308 310 311 311 311 316 317 317 318 315
297 297 298 298 298 297 296 297 297 299 299 298 297 296 297 298 298 299 300 300 302 302 302 304 306 306 307 305 303 306 307 310 310 309 308 308 308 308 308 312 310 315 314 314 315 318 315
297 297 298 299 300 299 298 296 296 298 298 298 298 297 297 298 298 299 299 299 301 302 303 304 306 306 306 306 304 305 306 307 309 313 310 309 309 309 309 311 311 314 313 314 319 315 312
297 298 299 300 300 300 300 296 295 297 298 297 297 297 297 298 298 300 300 301 302 302 303 304 304 304 304 304 303 303 303 308 311 311 311 310 311 309 308 311 310 311 313 315 310 310 308
298 298 299 299 300 300 299 299 295 295 297 297 297 298 297 297 298 299 300 300 300 303 303 305 305 304 304 303 304 305 304 305 310 309 311 311 310 308 309 309 310 311 309 309 308 307 307

GFSGBSN_850_thetae_096.txt.gz
Theta_e
302 302 303 304 305 304 304 304 305 304 304 303 303 302 302 302 302 302 300 298 297 297 298 298 299 300 300 301 302 305 311 306 309 309 309 309 313 311 311 312 314 315 317 318 318 317 317
302 302 302 302 302 303 304 305 303 304 305 304 303 302 302 302 301 301 301 298 297 297 297 298 298 300 304 303 304 305 303 303 309 311 311 314 314 314 314 315 314 317 317 317 318 318 318
301 302 302 302 302 302 301 303 304 304 303 304 304 303 302 302 301 300 300 299 297 297 297 297 298 304 306 302 304 303 304 308 308 311 309 309 312 315 317 315 317 317 315 316 316 317 317
301 301 300 300 300 299 301 300 302 303 303 302 302 303 303 302 301 300 300 298 297 297 297 297 298 306 306 302 301 303 304 307 307 309 309 309 310 309 314 315 317 317 316 317 317 316 317
300 301 301 301 300 300 299 299 300 301 301 302 302 301 302 302 301 300 299 298 297 297 297 297 300 306 305 305 308 309 308 306 306 308 308 308 309 311 314 314 315 315 318 317 317 317 316
299 299 299 299 299 298 298 299 299 300 300 300 301 300 301 301 300 299 298 296 301 308 304 303 306 307 306 308 309 309 310 310 310 308 308 308 308 308 309 313 316 316 316 315 316 316 316
298 298 299 299 299 299 299 300 298 301 301 300 300 300 301 301 300 298 298 300 308 308 310 309 308 308 306 308 311 310 310 309 309 308 306 307 305 305 308 311 314 314 314 314 314 314 314
297 297 298 297 298 299 299 300 300 301 301 300 300 299 300 300 299 298 298 299 307 307 306 305 305 308 307 308 310 310 311 309 312 309 307 306 306 306 307 307 308 309 310 311 312 311 312
298 298 296 295 297 297 297 298 299 299 299 300 299 300 301 300 299 297 303 306 306 307 305 305 304 305 305 304 307 306 308 307 307 311 307 307 309 308 307 307 307 307 307 308 309 311 313
294 294 294 294 296 297 296 297 297 298 298 298 299 300 301 298 298 299 304 303 306 307 302 303 306 305 305 305 307 305 304 306 307 307 313 313 311 308 311 308 307 307 308 307 307 308 310
296 295 295 296 295 295 296 297 296 296 297 297 298 299 299 298 298 298 301 304 306 306 298 305 308 307 307 307 309 309 309 306 306 307 307 310 314 314 315 315 309 309 309 309 308 313 317
295 295 295 295 295 295 296 296 296 297 297 297 297 298 299 298 297 296 301 304 305 303 301 306 310 309 307 307 309 310 309 308 307 307 307 307 309 308 311 311 312 312 312 314 315 316 318
294 294 295 294 295 295 296 296 296 296 296 296 297 298 299 298 297 297 300 303 303 306 305 308 307 307 309 309 309 309 311 309 306 307 307 307 308 308 308 308 309 312 313 314 316 318 318
294 294 294 294 294 295 296 296 296 295 295 295 298 299 298 298 297 297 300 302 305 306 306 306 307 308 310 310 310 309 311 310 309 306 305 306 307 307 307 308 309 311 312 314 318 319 318
294 294 293 294 294 294 295 295 295 295 295 295 298 298 298 297 297 298 299 304 305 305 304 305 306 310 311 311 312 310 309 311 310 309 307 307 307 308 308 309 309 311 314 313 316 317 317
294 294 294 293 294 293 293 293 295 295 295 296 297 297 297 297 299 299 301 302 303 302 302 304 305 309 310 309 310 312 311 312 311 309 308 312 313 314 314 307 308 312 312 315 314 317 318
294 293 293 293 293 293 294 294 295 295 295 296 297 297 298 298 299 299 298 300 300 300 301 304 306 306 306 308 309 311 312 313 313 314 312 314 315 314 314 309 308 310 310 314 315 316 317
293 293 293 293 293 293 294 294 294 295 296 297 296 291 297 300 299 300 295 301 300 301 301 302 305 305 307 310 309 309 310 311 309 310 312 310 315 317 315 315 314 313 311 313 316 316 315
294 294 293 293 293 293 294 295 295 295 296 296 296 297 297 298 299 298 299 302 301 301 302 302 304 305 306 306 309 308 309 307 308 310 311 309 311 315 314 316 314 315 314 312 315 310 311
292 294 294 294 294 295 294 294 294 295 295 296 296 294 297 299 299 301 300 300 301 302 302 302 302 303 305 305 306 307 307 307 307 308 310 308 309 310 312 311 311 314 313 311 312 316 314
293 295 295 295 296 296 295 295 294 293 295 296 295 293 296 300 297 301 300 302 302 302 303 303 303 304 304 306 306 307 307 308 308 309 311 310 308 311 312 310 310 310 311 311 311 311 315
293 294 296 297 297 298 297 297 296 295 294 295 295 293 297 298 298 300 300 302 301 301 302 303 303 304 304 305 306 306 307 308 309 310 309 311 311 311 312 311 311 312 312 311 311 311 311
294 295 296 297 298 298 297 298 299 297 295 295 295 296 297 297 298 298 300 301 302 301 302 303 303 304 305 305 306 306 306 307 308 309 308 309 310 309 312 311 311 311 311 311 311 317 317
294 295 296 297 297 298 297 298 298 298 296 295 295 295 295 296 296 297 297 298 299 299 302 303 303 304 304 305 305 306 307 307 308 308 308 308 309 308 311 308 309 311 313 316 317 316 315
294 295 296 297 297 297 297 297 298 298 298 297 295 296 296 294 296 297 298 299 299 300 301 302 302 304 304 306 306 306 305 306 306 307 307 307 307 308 309 308 309 311 314 316 316 316 315
294 295 296 297 297 298 298 298 296 298 298 298 296 295 296 297 297 297 298 299 298 299 300 302 303 305 305 302 305 306 306 308 309 309 306 307 307 307 308 311 311 314 314 312 314 318 311
294 296 296 297 298 299 299 300 298 296 297 298 298 296 296 297 297 297 298 298 299 300 301 301 303 305 306 303 305 304 305 306 307 311 310 307 307 308 308 309 310 313 313 312 312 313 308
294 295 297 298 298 299 300 300 299 296 296 299 298 298 297 297 297 299 298 298 300 301 301 302 302 302 304 306 304 302 301 305 309 310 311 310 309 309 308 309 310 310 311 312 309 308 307
295 296 296 297 298 299 299 300 299 297 296 298 298 297 297 297 297 297 298 299 299 301 302 302 301 303 303 302 302 302 302 303 309 309 308 311 309 308 308 308 310 308 307 307 307 305 305

GFSGBSN_850_thetae_099.txt.gz
Theta_e
302 302 302 301 301 302 301 302 304 304 303 303 304 304 304 303 302 302 301 300 300 299 297 297 297 298 299 302 301 304 311 310 308 309 308 309 310 310 308 308 311 314 315 317 317 317 317
303 301 302 302 301 302 301 301 301 302 304 304 303 303 304 304 303 302 302 301 299 299 297 297 297 298 303 305 302 303 303 304 305 308 309 310 310 311 311 310 311 314 314 315 316 317 317
301 302 302 301 301 301 300 299 300 300 301 302 303 302 302 302 302 302 302 301 300 298 298 296 297 298 302 301 302 302 303 306 304 307 311 314 313 315 315 314 315 315 314 313 313 315 315
300 300 299 300 300 300 299 298 298 298 300 300 300 301 301 301 301 302 302 300 300 298 297 296 297 300 304 300 302 303 302 303 303 305 310 310 309 308 308 312 315 316 315 316 315 315 316
299 300 299 299 298 299 299 299 298 299 299 300 300 300 301 301 300 301 301 300 299 297 296 296 298 302 304 302 305 308 308 304 304 306 308 308 308 308 312 312 313 314 314 316 316 316 316
294 298 298 298 298 299 299 299 299 300 299 300 302 301 300 300 300 300 300 299 298 308 307 303 304 305 302 305 310 310 309 308 307 306 306 307 308 306 308 310 314 313 315 314 315 315 315
293 297 297 298 298 297 298 299 299 299 300 300 300 301 300 300 300 300 299 297 306 306 308 307 307 306 306 307 307 310 310 309 308 307 304 306 304 306 306 310 312 313 314 314 313 313 311
297 297 297 297 295 295 298 298 298 298 298 298 299 299 299 300 300 300 298 297 302 302 304 305 306 307 307 308 308 307 310 310 308 307 305 305 305 305 307 309 309 309 311 311 310 311 311
296 293 293 293 294 295 295 296 296 297 297 297 298 298 298 300 300 299 298 301 302 304 306 305 304 305 305 305 307 306 307 308 307 311 306 307 307 306 306 306 307 306 307 307 309 308 307
295 294 293 293 294 295 295 295 296 296 296 297 297 297 298 299 298 298 298 301 303 305 304 303 304 304 304 304 305 304 304 306 305 306 307 309 307 307 306 306 306 305 306 307 306 306 305
295 294 292 293 294 295 295 295 296 296 296 297 297 297 297 298 298 297 297 302 304 306 299 302 305 305 305 306 307 307 304 306 304 306 308 310 312 309 307 308 306 306 308 307 307 305 307
295 294 293 295 295 295 295 295 296 296 296 296 296 297 297 298 298 297 297 300 304 302 303 305 307 307 306 306 307 306 305 305 304 305 305 306 307 307 311 311 312 311 309 310 309 308 313
294 293 294 294 294 294 294 295 296 295 296 295 295 297 298 298 298 297 297 300 304 303 303 306 305 306 307 308 308 308 307 307 305 304 304 305 305 306 307 307 307 310 311 313 315 318 316
293 293 294 293 293 294 294 294 294 295 294 294 295 297 298 298 298 297 298 302 301 304 304 304 304 307 310 309 310 309 310 307 307 305 304 306 307 305 305 307 307 307 309 312 316 316 315
293 292 294 294 294 293 293 293 293 294 295 294 295 296 297 297 297 297 299 299 304 304 302 303 305 309 309 307 308 311 309 309 308 305 306 306 306 306 306 306 307 308 311 310 313 314 316
295 294 294 293 292 293 293 294 294 294 295 295 296 296 296 298 297 298 298 302 302 300 300 303 307 307 307 306 309 308 311 312 311 311 308 307 309 311 313 306 306 308 310 312 312 316 317
292 292 292 292 293 293 292 293 295 294 295 296 296 296 297 298 298 298 293 297 300 300 300 303 303 305 305 308 309 309 312 311 308 310 310 309 312 310 313 309 307 308 310 312 312 313 316
293 294 294 294 292 293 293 294 295 295 295 296 296 291 296 298 296 296 291 299 300 301 300 301 303 304 307 306 306 308 312 311 308 309 311 309 312 311 310 314 313 308 310 312 313 314 313
295 294 292 293 293 293 293 293 294 295 295 296 295 295 296 297 300 297 298 300 300 300 301 302 303 304 306 305 304 308 307 307 306 308 310 309 311 313 313 315 312 315 314 310 313 310 312
294 293 293 294 295 295 295 295 294 294 295 296 295 294 296 298 298 299 300 299 299 301 302 301 302 301 302 305 305 306 307 307 306 308 308 309 310 311 312 310 312 312 313 312 311 314 313
293 292 293 294 295 296 296 296 295 295 294 295 295 292 295 296 299 299 300 299 300 300 302 303 302 302 302 303 305 305 307 308 308 308 310 311 310 311 312 311 309 310 311 312 310 311 312
292 292 293 295 296 297 298 298 297 296 295 294 295 292 296 296 297 298 299 300 301 302 301 302 302 303 303 305 305 304 306 306 307 309 308 311 311 311 311 309 309 311 311 310 310 311 312
292 292 294 295 296 297 298 298 298 298 296 294 294 295 296 295 296 296 299 300 301 299 299 301 302 303 303 303 303 304 305 306 307 307 308 308 310 308 310 309 308 311 310 310 315 315 317
292 292 294 295 296 297 297 298 298 298 297 295 294 295 295 294 296 296 297 298 298 298 299 300 301 303 303 304 304 305 305 306 307 307 307 307 308 306 309 307 306 311 315 314 316 315 314
291 292 295 294 296 296 297 297 297 297 298 297 295 295 295 292 295 296 296 297 297 298 299 300 300 302 304 304 305 305 304 305 306 307 307 307 307 306 306 307 307 314 313 315 315 313 311
291 292 294 294 296 297 297 298 298 297 297 298 297 295 295 296 295 296 296 297 297 298 298 300 300 303 305 302 301 306 306 307 308 308 306 306 305 305 305 309 307 312 313 311 313 316 309
291 292 293 295 296 296 298 298 299 300 297 298 298 297 296 296 296 296 296 297 298 298 299 299 302 303 304 302 302 305 306 305 306 308 309 306 306 307 307 306 308 311 311 310 312 311 308
290 291 293 294 295 297 298 298 299 300 298 297 298 298 297 296 296 297 297 297 298 300 298 299 298 299 301 304 303 303 303 304 306 308 309 309 309 308 308 307 308 308 310 309 307 308 306
291 292 294 294 295 297 297 298 299 300 298 296 297 298 298 296 297 297 297 297 298 298 301 302 301 300 301 304 302 302 303 299 307 308 307 311 309 307 307 307 308 306 306 307 306 304 304

GFSGBSN_850_thetae_102.txt.gz
Theta_e
302 300 300 301 301 300 300 301 301 300 300 302 302 303 303 303 302 302 302 303 302 302 301 299 298 298 300 302 301 303 303 311 309 309 306 311 311 311 307 306 308 312 314 315 315 316 316
301 302 302 302 302 301 301 300 298 298 298 299 300 301 301 302 302 302 301 301 302 302 301 299 298 299 303 303 301 301 302 303 302 306 308 310 309 310 309 308 308 310 311 312 315 316 315
299 298 299 299 300 300 300 299 299 299 297 298 299 299 299 301 301 300 301 300 300 301 301 299 298 300 303 301 301 300 302 303 304 304 307 309 308 312 312 311 312 312 311 311 311 314 313
298 298 298 299 298 298 298 299 299 299 299 299 299 299 301 301 300 300 300 300 300 300 299 298 297 300 302 299 299 300 300 301 302 304 303 308 312 311 309 310 312 315 314 314 314 312 314
293 294 297 296 296 297 297 298 298 299 299 299 300 299 299 301 301 300 300 300 299 299 298 298 299 302 302 299 300 304 308 306 303 302 303 306 311 307 309 307 311 311 312 314 315 313 315
293 293 294 294 294 294 294 296 298 299 298 298 298 298 299 299 300 299 300 300 299 303 306 305 302 301 300 299 307 310 309 309 306 304 304 306 307 305 306 308 311 312 314 313 314 314 314
293 294 296 296 295 295 296 296 296 296 296 297 298 298 298 298 298 299 300 300 299 305 304 306 305 303 302 307 307 310 310 308 307 305 304 305 305 304 305 309 311 311 312 313 312 312 312
294 294 293 294 297 296 298 296 295 296 296 296 296 296 296 297 298 299 299 300 298 300 300 303 303 304 305 306 307 307 306 309 308 307 304 304 305 304 305 307 310 310 311 311 310 310 311
294 297 297 296 296 296 294 294 294 294 295 295 296 297 297 297 297 298 299 299 298 299 303 304 304 305 304 304 306 305 304 309 308 308 306 306 307 306 305 306 308 307 309 308 310 307 305
295 296 297 296 295 293 293 294 294 296 296 296 296 296 296 297 297 298 297 298 298 300 302 303 303 304 304 304 305 304 305 307 306 310 309 307 308 306 305 306 306 307 305 307 306 305 304
295 296 295 295 296 295 294 293 294 295 296 295 295 295 295 297 297 297 297 297 297 300 303 301 304 303 304 304 305 306 305 306 305 306 308 310 311 308 308 305 304 305 305 305 305 304 304
295 294 294 295 294 294 293 293 294 295 295 295 295 295 295 296 298 298 297 297 298 304 301 305 305 305 305 305 306 304 304 304 304 304 305 306 306 308 308 307 305 308 308 307 307 305 308
293 293 294 295 293 293 293 293 293 293 294 294 294 294 295 297 298 298 298 297 302 302 301 304 304 304 306 308 307 307 305 305 303 302 303 303 304 306 307 307 307 308 308 312 314 314 313
293 292 293 294 294 294 293 292 293 293 293 294 294 295 295 296 297 297 297 300 302 303 302 302 304 308 307 307 308 308 306 307 306 304 304 305 306 304 305 306 306 306 307 311 315 315 313
295 296 295 294 293 292 292 292 294 294 293 295 295 296 296 297 297 297 297 300 302 304 301 301 304 306 306 306 308 308 310 312 310 309 307 305 305 305 305 305 306 307 308 308 310 311 314
294 293 293 292 291 293 292 292 293 294 293 295 295 296 296 297 297 297 292 299 301 300 300 301 303 304 305 307 307 308 312 309 309 309 309 307 307 309 311 305 305 306 307 311 310 315 314
294 291 292 294 293 291 292 293 293 295 294 295 295 296 297 297 298 296 287 296 298 299 300 301 302 303 305 305 307 308 311 310 308 309 309 309 309 308 308 309 307 307 307 310 310 311 313
292 294 295 293 292 293 293 293 293 294 295 295 296 290 296 298 296 294 291 297 298 299 299 300 302 304 306 305 305 308 308 308 307 307 311 309 310 312 309 310 313 307 309 308 310 312 312
293 294 294 292 292 293 294 294 294 294 294 295 295 294 296 297 293 297 297 299 300 300 300 301 301 303 304 304 302 305 307 307 306 307 309 309 310 314 312 312 311 313 313 310 311 309 312
294 292 294 291 294 295 295 295 295 295 294 295 295 293 294 298 296 298 299 299 299 300 301 301 301 301 301 304 304 303 305 307 307 307 309 309 309 309 312 310 308 312 312 312 311 312 311
293 291 293 292 293 295 296 297 297 296 295 294 294 292 293 292 298 298 299 299 300 300 300 301 301 302 302 303 302 304 306 306 306 307 308 310 308 309 310 311 310 311 311 311 311 310 311
293 292 292 291 294 296 297 298 298 297 296 294 294 292 295 295 296 297 298 299 301 299 301 302 301 301 302 302 303 304 304 305 306 307 308 308 310 310 310 311 309 310 311 311 311 312 311
292 292 292 292 294 296 296 297 298 298 296 295 294 294 295 294 294 295 296 299 300 298 298 301 299 300 301 303 303 303 303 304 305 306 307 308 309 308 309 310 308 310 309 311 314 314 315
292 292 292 292 294 295 296 297 298 298 298 297 295 294 294 293 294 295 296 297 297 297 298 298 299 300 302 303 304 304 304 305 305 306 306 307 307 306 310 307 305 312 313 313 314 313 314
292 292 292 292 295 295 295 296 297 297 298 298 296 294 294 290 295 295 295 296 296 296 297 298 299 300 302 304 304 305 304 304 305 306 306 306 306 306 308 308 306 313 313 314 315 314 311
291 291 291 291 294 294 295 296 297 298 298 297 298 296 295 295 294 295 295 296 296 297 297 298 300 301 304 302 303 306 306 306 307 307 305 306 305 306 307 309 306 309 312 310 312 315 309
291 291 291 292 293 294 295 296 297 298 298 298 297 298 296 296 295 296 295 296 297 297 298 298 301 300 303 301 305 304 305 304 305 307 307 306 306 307 307 308 307 308 309 310 311 308 307
291 291 291 290 292 294 295 296 298 298 298 298 297 297 297 296 296 297 296 296 298 299 298 298 297 300 300 303 304 304 302 303 306 307 304 307 307 307 307 308 307 305 308 308 305 305 305
290 291 291 290 292 294 294 296 297 298 299 299 297 297 298 297 296 297 297 296 297 297 297 298 299 300 300 304 304 304 303 301 303 305 306 309 308 308 307 306 305 302 303 304 304 302 300

GFSGBSN_850_thetae_105.txt.gz
Theta_e
299 300 300 300 301 302 301 301 298 297 297 295 295 297 298 299 299 301 300 300 300 299 299 300 301 300 299 301 302 302 302 303 302 306 303 309 311 311 312 310 312 315 315 314 315 315 314
300 298 297 298 299 300 300 299 298 298 298 298 299 298 299 300 300 300 300 300 300 300 299 299 300 299 301 301 301 301 301 301 302 302 305 307 310 311 310 309 310 310 311 313 314 315 315
296 297 298 298 297 297 297 298 297 297 299 298 299 299 299 299 299 300 300 300 300 299 298 299 299 300 301 300 300 301 300 300 302 303 307 308 310 309 309 310 310 311 312 312 312 312 314
294 296 296 296 295 295 296 295 296 297 297 297 297 297 297 297 298 298 298 298 299 299 299 299 298 300 301 299 299 299 300 300 299 300 303 306 311 311 311 312 311 315 315 315 315 314 314
293 294 295 293 293 293 293 293 294 294 294 295 295 296 296 296 297 297 297 297 298 298 299 299 304 301 301 298 299 305 305 303 302 300 301 303 304 307 307 310 313 313 316 316 316 314 316
293 293 293 294 293 293 293 293 293 294 295 295 295 295 295 295 296 296 296 297 297 299 303 303 302 301 299 298 302 307 309 309 307 304 302 303 305 309 309 309 310 311 314 314 316 316 315
293 293 293 293 293 294 296 298 294 294 294 295 295 295 295 296 296 296 297 297 298 299 300 301 301 301 302 306 307 309 308 308 306 304 303 304 306 308 309 309 309 311 312 313 314 314 315
293 293 293 293 293 295 297 298 295 294 294 295 295 295 295 296 296 296 297 297 298 298 297 298 298 300 302 303 304 305 307 308 307 306 305 305 307 308 307 308 309 311 311 313 312 312 313
293 293 293 294 295 296 298 296 295 294 295 295 295 295 295 295 295 297 297 297 297 297 298 298 299 302 302 302 303 303 305 307 308 307 305 307 307 307 306 307 309 310 311 312 312 310 308
293 294 293 293 296 297 296 294 294 294 295 295 295 295 295 294 296 297 298 297 297 297 299 300 304 304 304 304 304 303 303 304 308 309 306 306 307 306 306 306 307 307 308 310 311 310 310
294 294 293 294 296 294 294 294 293 294 294 294 294 294 294 294 297 297 297 297 297 297 301 301 304 303 304 304 304 305 304 304 306 309 310 311 311 309 307 306 307 307 307 309 309 308 307
294 293 293 293 295 294 292 292 293 293 293 293 293 294 294 295 296 297 297 297 297 298 302 304 305 305 305 304 305 304 305 304 305 307 306 309 306 309 310 307 307 307 307 308 307 308 312
294 291 294 294 294 295 294 292 292 293 293 292 294 294 295 295 296 296 297 297 298 301 302 303 304 306 307 307 308 306 304 304 304 306 306 304 306 306 307 308 306 309 312 313 316 313 314
293 295 294 292 294 293 292 291 293 295 292 293 295 295 296 297 297 297 297 298 300 304 300 301 303 307 307 307 308 309 305 307 310 307 303 303 303 305 306 309 309 309 311 313 313 317 314
292 295 295 295 293 291 293 291 292 294 293 293 294 295 296 297 298 297 296 298 300 302 301 300 301 304 306 306 308 311 310 311 310 310 308 307 306 304 305 306 309 308 309 311 312 313 314
294 295 293 292 293 291 292 293 293 295 294 294 294 295 296 297 297 296 294 297 300 301 300 300 301 302 305 304 308 311 311 309 310 308 309 309 310 309 308 306 306 309 310 311 312 313 313
293 293 291 294 295 293 292 293 293 293 294 294 295 295 296 297 297 295 294 296 298 298 298 300 301 302 305 304 305 309 308 307 307 308 309 309 310 310 309 309 307 307 307 310 311 313 311
293 292 294 295 293 292 293 293 293 293 294 295 295 293 295 296 296 294 296 297 298 297 299 300 301 303 303 304 304 306 307 307 306 307 310 309 311 313 310 309 312 309 309 309 310 312 313
293 294 292 294 292 293 294 295 294 295 294 295 295 294 295 297 294 297 298 298 299 300 300 301 301 301 302 303 303 305 306 307 307 308 309 309 311 314 313 314 311 313 312 310 311 311 312
292 294 292 294 291 293 295 295 295 295 295 294 295 292 294 296 296 297 298 298 299 299 300 301 301 301 302 302 304 304 305 306 306 307 309 308 309 311 311 311 311 311 312 312 313 314 313
292 293 293 292 292 293 295 297 297 297 296 294 294 292 293 292 298 297 297 298 300 300 300 300 301 300 301 303 303 304 305 304 305 307 308 309 310 309 310 310 311 311 311 311 312 311 313
292 293 293 292 292 292 296 296 298 298 296 294 294 292 294 295 295 296 297 297 299 298 299 301 299 299 300 302 303 304 303 304 305 306 308 307 309 308 311 310 310 309 309 312 312 312 313
292 292 293 292 292 293 296 296 298 298 297 295 294 294 294 294 294 296 297 298 298 298 297 299 298 299 300 302 302 303 303 303 304 304 306 308 309 309 309 310 308 308 309 311 312 314 315
292 292 292 292 292 293 295 296 297 298 298 297 295 294 294 294 294 295 295 296 296 296 296 296 297 299 300 300 303 303 303 304 304 305 305 307 307 308 309 309 308 313 313 313 313 313 313
291 292 292 292 291 293 295 296 297 297 298 298 297 296 294 294 294 295 295 296 296 296 296 296 298 299 300 303 304 305 305 305 305 305 306 306 307 308 308 309 308 312 313 314 315 313 311
290 291 291 292 291 293 295 295 296 297 298 298 297 297 295 295 295 295 295 295 296 297 298 298 299 299 303 302 304 306 305 305 306 308 306 306 307 308 308 308 308 310 312 310 312 313 309
291 290 291 291 292 292 294 295 295 296 297 298 298 298 296 295 296 296 296 297 296 297 298 298 298 299 301 303 305 306 305 304 305 307 308 307 308 309 307 307 307 307 307 310 313 311 307
290 289 291 291 291 291 293 295 295 296 298 299 298 298 296 296 296 296 296 295 296 297 299 298 298 300 301 303 304 305 305 305 306 307 307 308 308 308 307 307 306 304 308 310 306 303 303
290 289 290 291 291 290 292 294 295 295 298 298 298 299 297 296 297 297 297 296 296 296 296 296 298 299 300 301 302 305 305 304 305 306 306 308 308 309 307 308 304 302 302 301 302 300 299

GFSGBSN_850_thetae_108.txt.gz
Theta_e
296 297 298 297 298 300 301 299 297 296 297 298 298 298 298 298 299 298 298 298 298 298 298 298 298 299 301 304 304 302 301 302 302 306 307 309 309 311 314 314 315 317 318 317 317 316 316
298 297 295 295 296 297 296 296 296 296 296 296 296 297 297 297 297 297 297 296 296 295 296 298 298 299 303 304 302 301 301 301 302 309 307 309 309 310 312 313 314 316 316 317 316 317 317
295 295 295 295 295 295 295 295 294 295 294 294 295 295 295 295 296 295 296 296 295 295 295 296 297 302 302 302 301 302 301 301 301 304 309 308 309 311 311 313 312 312 314 315 315 315 316
294 295 296 295 294 294 294 294 293 293 293 294 294 294 294 294 295 295 295 295 295 296 295 296 297 303 302 302 301 300 301 302 301 300 303 308 310 310 312 312 313 314 314 315 317 317 316
294 295 294 294 294 294 294 293 293 293 293 294 294 294 295 295 295 295 295 296 296 296 296 297 302 303 302 302 301 300 301 302 302 303 302 303 306 310 312 313 314 315 317 318 318 318 318
293 294 294 294 294 294 294 294 293 293 293 293 294 295 295 295 295 295 296 296 297 299 302 303 303 302 303 302 303 307 309 306 306 305 303 303 305 308 312 313 315 315 317 317 318 319 318
294 294 294 294 294 294 294 293 293 293 293 294 295 295 295 294 294 295 297 299 299 300 298 299 299 301 301 301 302 305 308 308 308 306 305 303 306 308 310 312 313 314 313 313 314 316 317
294 294 294 293 293 294 293 294 293 293 294 296 295 295 295 294 294 296 299 299 297 297 298 298 298 299 299 298 300 302 306 309 309 309 306 306 307 308 309 310 311 310 311 312 311 315 316
294 294 293 293 294 294 294 295 294 293 295 295 295 295 294 294 294 298 299 298 298 298 299 299 300 302 301 300 300 301 304 309 310 309 307 307 308 307 308 309 310 311 311 310 310 312 313
294 293 293 293 293 293 293 292 292 293 295 294 294 293 293 293 298 297 299 299 298 298 301 302 305 305 304 302 304 303 303 307 311 310 308 308 309 308 308 309 309 311 311 310 311 313 312
294 294 294 292 295 294 293 293 293 293 293 293 292 294 294 294 296 299 298 298 298 299 303 304 304 305 304 304 305 305 303 304 309 311 310 310 308 309 310 310 309 310 309 309 310 311 311
294 294 292 293 294 294 293 292 291 292 294 293 293 295 295 297 297 297 297 297 299 304 304 304 302 303 307 307 306 306 305 304 305 309 310 311 312 310 310 309 309 309 309 309 309 310 310
294 291 292 293 294 294 294 291 292 294 294 293 295 295 295 296 299 297 296 299 305 304 303 302 302 303 306 310 308 307 307 306 306 307 308 309 311 311 312 310 309 309 311 315 315 314 313
294 293 295 294 294 292 291 291 292 293 294 293 294 294 296 296 297 296 297 303 304 303 302 302 301 302 308 308 310 307 307 308 309 307 307 308 309 310 311 312 311 310 312 312 314 316 315
293 294 296 295 292 291 292 292 292 294 295 294 294 296 297 297 297 297 299 302 302 302 300 300 302 302 306 305 308 311 311 311 311 312 309 308 307 308 309 310 311 311 312 313 314 314 315
293 296 295 292 293 291 291 292 293 294 294 294 295 297 298 296 296 297 300 299 300 300 300 300 302 303 306 304 307 311 311 309 311 310 312 311 309 307 307 307 309 310 311 312 313 312 312
294 294 293 292 295 295 292 292 293 293 294 294 296 298 296 296 297 299 299 297 298 298 300 301 302 303 304 303 305 309 309 309 308 310 312 313 312 312 310 309 308 307 311 311 312 313 311
294 294 292 295 294 291 293 293 293 293 294 294 297 299 296 296 300 300 300 300 299 300 301 303 303 303 303 304 305 306 306 307 306 307 313 312 314 313 312 313 311 308 308 310 311 312 313
292 294 293 293 294 292 293 296 295 295 295 296 297 297 297 298 300 299 300 300 300 301 301 303 303 303 304 304 305 305 305 306 306 309 312 310 314 312 312 314 314 314 313 311 312 313 314
294 293 295 292 294 292 294 295 295 296 296 295 297 299 297 299 298 299 299 300 301 301 302 302 303 303 303 304 304 305 306 306 305 309 308 310 312 313 312 313 313 314 314 314 314 315 314
294 293 294 293 292 291 294 296 297 297 296 295 296 298 296 298 299 298 298 299 301 301 300 302 302 301 302 303 305 305 305 306 306 308 309 310 312 312 312 312 313 313 313 313 313 314 314
294 293 294 293 292 292 293 296 297 298 297 296 296 297 296 297 297 298 298 299 299 300 299 301 303 302 301 303 304 305 305 305 306 307 308 309 311 310 311 311 312 312 312 312 313 313 314
293 293 293 293 292 291 294 296 297 298 297 296 295 295 297 297 298 298 298 298 299 298 298 299 300 300 301 303 303 303 304 305 306 307 306 308 310 310 310 310 310 311 311 312 313 314 315
293 292 293 292 292 292 294 296 297 298 298 297 296 297 297 300 298 298 297 297 297 298 298 298 298 300 301 301 303 305 306 306 306 307 306 308 309 309 310 309 310 314 314 313 312 314 314
292 292 292 292 292 292 293 295 297 297 298 297 297 297 297 299 298 299 298 298 298 297 298 298 299 300 301 303 307 306 306 307 307 308 307 307 308 309 309 309 308 309 314 314 314 314 313
292 291 291 292 291 293 292 295 296 296 297 298 298 297 296 297 300 298 298 298 300 300 300 300 300 300 302 305 306 306 306 306 306 308 308 308 307 309 308 309 309 314 311 311 314 315 311
292 291 291 292 291 292 291 294 295 296 296 297 298 298 297 296 297 297 299 299 298 299 301 300 300 300 303 303 306 306 306 306 306 307 308 309 310 311 309 308 307 309 308 309 315 313 307
293 292 291 290 291 292 291 293 294 295 296 297 298 298 297 296 297 297 297 298 299 299 301 300 301 302 303 305 306 306 307 307 307 307 309 308 309 309 309 309 308 305 310 312 307 305 304
293 292 291 290 291 292 291 292 294 295 295 298 298 298 298 296 298 297 297 298 298 298 298 298 300 300 301 303 304 304 307 307 307 307 308 309 308 309 310 311 304 302 301 302 304 303 302

GFSGBSN_850_thetae_111.txt.gz
Theta_e
299 298 298 298 299 301 300 297 296 296 296 296 296 296 296 296 296 295 295 295 296 295 295 295 295 297 301 305 306 306 305 303 305 306 310 312 312 314 316 318 319 320 321 321 320 320 321
297 297 297 296 296 297 296 296 295 295 295 295 294 294 295 295 295 295 295 295 295 295 295 295 295 296 304 306 305 305 305 304 304 305 305 308 311 313 314 317 319 319 320 320 320 320 320
298 298 295 295 295 295 295 294 294 294 294 294 294 295 295 295 295 295 295 295 295 295 296 296 296 297 303 303 304 304 305 305 305 306 308 310 309 312 313 315 315 316 318 318 319 319 321
296 295 295 295 294 294 294 294 294 293 294 294 294 294 295 295 295 295 295 295 295 296 297 297 297 300 304 304 304 303 304 304 305 305 305 308 310 310 312 314 315 316 317 318 318 319 319
295 295 295 294 294 294 294 294 294 294 294 294 294 294 295 295 295 294 294 294 296 298 298 300 304 306 305 303 304 304 303 304 304 304 304 305 307 310 311 314 316 318 318 319 319 320 319
294 295 294 294 294 294 294 294 294 294 294 294 294 294 295 294 294 294 294 297 300 300 303 301 304 305 304 303 302 304 304 307 306 304 305 305 306 309 311 314 318 318 319 319 320 321 321
294 294 294 294 293 294 294 294 294 294 293 293 294 294 294 294 293 294 296 301 301 302 302 300 299 300 300 302 302 302 302 305 308 304 307 306 307 308 310 313 316 317 318 319 320 320 321
294 294 293 293 294 294 293 293 293 293 293 293 294 294 294 293 293 296 301 301 300 299 300 300 301 302 305 306 306 304 301 302 308 311 309 308 307 309 311 312 314 316 317 318 319 318 317
295 294 294 294 294 294 294 293 293 293 292 293 293 293 293 293 295 302 301 301 300 300 301 301 304 305 304 305 305 304 302 301 305 312 310 308 308 309 311 311 312 315 316 316 316 315 314
295 294 294 294 294 293 293 293 293 292 293 293 293 292 294 295 301 300 302 300 300 300 305 306 305 306 304 304 307 305 302 303 307 312 311 308 309 309 310 311 312 313 314 314 314 313 315
296 294 294 294 293 294 293 293 292 292 292 293 292 294 294 295 299 301 300 300 300 300 307 305 305 303 303 307 307 304 304 305 307 311 311 310 309 310 310 311 312 312 313 313 313 313 314
295 295 294 292 295 293 293 292 291 292 294 292 294 295 294 301 302 301 300 301 302 306 307 305 304 304 306 308 309 308 306 305 307 309 310 311 310 311 311 311 312 311 311 311 311 313 314
295 294 293 295 294 293 292 291 291 293 294 293 294 295 295 299 301 300 300 303 308 308 305 303 303 304 306 307 309 309 307 306 308 309 312 313 314 312 312 313 312 312 313 313 313 313 315
295 293 293 292 293 292 291 291 292 294 294 294 294 295 299 300 300 300 301 305 307 305 304 303 303 304 307 306 307 310 308 306 306 307 308 310 312 313 314 312 312 312 313 317 318 317 315
295 294 297 296 294 291 292 292 292 295 294 294 297 300 301 300 300 300 302 307 305 304 302 302 304 304 305 304 306 308 311 313 311 311 311 309 310 312 314 313 313 312 312 313 315 317 319
294 294 295 294 292 291 291 292 293 294 294 294 299 299 300 297 300 302 303 301 301 301 302 303 303 304 305 304 306 308 312 309 310 311 313 313 310 310 310 313 312 312 312 313 314 314 314
294 295 295 293 294 295 291 292 293 294 295 295 300 301 300 296 302 303 304 301 301 301 301 303 304 305 304 304 305 309 309 310 309 311 313 314 314 309 309 309 310 310 312 312 312 312 313
294 294 293 292 295 292 292 293 293 294 296 298 300 303 299 300 304 303 304 302 301 302 302 304 305 304 305 305 305 307 307 307 306 310 312 313 315 313 312 312 312 309 311 312 312 312 312
295 293 292 295 295 292 293 295 295 295 296 300 300 299 299 301 304 302 302 302 302 303 304 304 304 304 304 306 307 305 306 307 306 310 311 311 315 316 317 315 311 309 309 312 313 313 314
293 293 294 293 293 292 293 296 296 296 296 299 299 302 300 300 300 302 302 302 303 303 304 303 304 304 304 305 305 306 306 306 307 309 309 311 313 315 317 316 314 314 312 310 312 313 313
294 294 294 295 293 292 294 295 296 298 297 299 300 301 299 302 302 301 301 302 302 303 302 303 304 304 303 304 305 305 306 306 306 308 309 311 313 313 313 313 314 314 315 314 314 314 314
293 294 293 294 294 292 292 295 297 298 297 299 296 301 300 300 299 300 300 302 301 303 302 302 303 303 303 304 305 305 305 306 306 308 309 309 313 312 311 311 312 313 312 313 313 312 313
293 294 293 294 294 293 292 295 297 298 297 299 299 299 300 300 301 301 300 300 301 301 301 301 301 302 303 304 303 303 304 305 306 307 308 309 311 312 311 311 311 312 312 312 312 312 313
293 293 293 293 293 292 292 295 297 298 298 299 299 299 299 302 301 301 301 300 300 300 300 300 300 302 302 302 303 305 306 307 307 308 307 309 310 310 312 310 311 313 314 313 312 315 315
293 293 292 292 293 292 292 295 296 297 299 298 299 299 299 301 300 301 301 301 300 301 301 301 301 301 302 303 306 307 308 308 308 308 308 308 310 311 312 311 311 311 315 316 316 316 314
294 293 292 292 292 293 292 294 296 297 297 298 297 297 298 300 302 300 301 301 302 302 303 302 301 301 302 305 307 308 307 307 308 309 308 308 309 310 312 310 312 312 310 309 312 318 311
293 293 292 292 292 292 293 292 295 296 297 297 297 298 297 298 299 300 301 301 301 301 302 302 302 302 303 304 306 308 308 307 308 309 310 310 310 311 310 310 312 309 310 308 315 312 308
294 293 292 291 291 292 293 292 294 295 296 297 298 298 298 298 299 300 300 300 300 301 302 302 302 304 304 305 306 307 308 308 308 308 309 310 310 312 311 311 312 306 309 310 305 306 306
294 294 293 292 291 291 292 292 293 294 295 296 297 298 298 297 298 299 300 300 300 300 300 300 301 301 302 305 306 305 306 308 308 309 309 310 308 308 312 309 304 302 302 302 304 304 303

GFSGBSN_850_thetae_114.txt.gz
Theta_e
304 301 300 299 298 298 299 298 296 296 296 296 295 295 295 295 295 295 295 296 296 296 296 296 296 296 297 305 306 306 306 306 306 306 307 311 314 314 315 315 316 319 319 321 322 322 322
302 300 300 299 299 299 298 296 296 295 295 294 295 295 295 295 295 296 296 296 296 296 296 296 296 296 302 304 304 305 305 306 306 306 306 306 308 312 315 316 317 317 319 320 321 322 322
303 301 301 299 296 296 296 295 295 294 294 294 295 295 295 295 296 296 296 296 296 296 296 297 297 297 303 303 304 305 305 305 305 306 306 306 306 308 312 315 316 317 318 320 321 322 322
301 300 300 297 296 295 295 294 294 294 294 294 294 295 295 295 295 295 295 296 296 297 298 298 298 300 304 305 305 305 305 305 305 305 306 307 308 307 310 311 315 316 317 319 320 320 321
301 298 296 296 295 294 294 294 294 294 294 294 294 295 295 295 295 295 295 296 300 300 300 301 303 307 307 305 304 302 302 304 306 307 305 306 307 310 312 312 313 316 318 319 318 319 320
297 296 299 295 294 294 294 294 294 294 294 294 294 294 295 295 295 294 296 301 302 302 304 304 304 304 305 303 303 306 305 304 304 304 308 307 306 308 310 313 314 316 317 318 319 320 320
295 300 297 294 294 294 294 294 294 293 293 294 294 294 294 294 294 297 302 303 302 305 303 301 301 301 302 303 306 305 306 306 305 304 305 308 308 307 307 313 315 315 317 319 320 320 321
298 299 297 294 294 294 294 294 293 293 293 293 293 294 294 294 295 300 304 303 302 301 302 302 302 303 304 305 305 306 307 307 307 305 304 309 312 307 308 309 311 314 315 318 320 320 320
299 298 295 294 294 295 294 294 293 293 293 293 293 293 293 294 301 303 304 303 302 302 303 304 305 306 306 304 305 307 306 307 306 305 304 308 310 308 307 307 309 312 314 317 318 318 317
299 297 297 296 295 295 294 293 293 293 292 293 293 293 294 294 303 302 303 302 302 302 305 307 306 305 304 305 308 307 306 305 304 304 307 310 311 308 307 307 309 312 313 315 317 318 320
297 296 296 295 295 294 293 293 292 292 292 293 293 293 294 299 299 304 302 302 302 303 308 306 305 303 304 307 306 309 307 304 305 307 308 312 313 310 308 308 309 311 314 315 316 315 316
297 295 294 294 296 295 293 293 292 292 293 293 294 294 294 303 303 304 302 303 304 309 309 305 304 304 305 307 307 308 309 309 305 307 309 310 310 313 310 310 310 312 313 314 314 315 316
296 295 295 293 294 294 294 292 292 293 294 293 294 294 294 300 303 302 299 304 309 309 306 304 303 304 306 306 306 308 309 309 305 309 310 309 313 314 313 311 311 312 313 314 316 316 317
296 295 294 293 295 294 291 292 292 294 294 294 294 294 302 301 302 302 303 307 309 306 304 303 303 304 305 305 305 308 311 310 306 307 309 307 314 313 314 312 311 312 313 315 315 315 315
296 294 293 294 294 293 292 292 292 294 294 294 300 302 303 304 299 303 304 308 303 302 302 302 304 304 305 305 308 308 309 311 311 312 314 314 312 313 314 313 313 313 314 315 316 318 320
296 295 297 297 295 291 292 292 293 294 294 294 301 302 303 297 298 304 306 304 302 302 302 304 304 305 305 305 306 311 309 308 309 310 312 314 317 314 312 313 313 313 314 315 315 317 320
296 295 295 295 292 292 291 292 293 294 295 299 302 303 303 296 303 306 307 304 303 302 302 304 304 304 305 305 306 309 309 308 307 310 312 313 314 315 313 315 314 314 313 313 314 315 315
296 294 296 295 292 295 292 293 293 295 297 300 303 305 301 297 306 305 306 303 301 303 303 304 305 304 305 305 308 306 307 306 306 310 311 312 314 315 312 311 311 312 312 314 315 314 313
295 295 294 292 294 293 292 294 295 296 297 301 303 302 301 303 308 305 304 303 303 303 304 304 305 304 305 305 306 308 306 306 306 309 310 310 314 315 315 314 311 309 309 311 313 314 314
295 295 294 294 294 293 293 295 295 296 297 301 302 307 303 302 301 303 303 304 303 304 303 303 304 306 305 304 305 308 306 306 306 309 309 311 313 314 316 317 315 314 309 309 310 314 313
294 294 294 293 293 293 293 295 296 297 297 301 302 304 301 305 304 302 302 303 303 303 303 303 304 305 303 304 305 305 305 305 306 308 309 310 312 312 312 312 311 317 316 314 310 312 313
294 293 293 295 294 293 292 295 296 298 297 301 297 304 302 303 301 301 300 302 302 303 303 303 303 303 303 304 304 305 305 305 305 306 306 309 312 312 312 310 313 315 315 315 315 315 315
295 294 294 294 294 294 292 293 297 297 298 300 300 301 301 302 303 303 303 301 301 301 301 302 302 302 303 304 303 304 304 305 306 307 307 309 310 311 312 311 311 311 312 313 312 313 313
294 294 294 294 294 294 292 293 296 298 299 300 300 300 300 303 303 302 302 302 302 302 302 301 301 303 303 303 304 305 307 307 308 308 307 309 309 310 313 312 311 315 314 315 315 316 316
294 293 294 293 293 293 292 292 296 298 298 299 300 300 301 303 302 302 302 302 302 302 304 303 303 302 302 303 306 307 309 308 308 307 308 309 310 311 312 313 311 312 311 313 314 315 313
294 294 294 293 293 293 292 292 296 297 298 298 299 299 300 301 303 302 302 301 303 304 303 303 304 303 303 305 306 306 308 308 308 309 308 309 310 310 311 311 312 310 310 310 312 314 303
295 294 293 293 293 293 293 292 295 297 297 297 299 298 298 300 300 301 302 303 302 302 303 303 303 303 304 306 306 308 308 308 308 309 309 310 310 311 310 310 312 307 308 309 314 310 304
295 294 293 292 293 293 293 293 293 296 296 297 298 298 297 298 299 300 301 301 302 302 304 302 303 303 304 306 306 307 307 307 308 308 309 309 310 308 310 311 312 303 307 308 305 304 304
295 294 293 292 292 292 292 293 292 295 296 296 297 297 297 298 299 300 299 299 301 302 302 302 301 301 302 305 305 305 306 307 307 310 309 309 308 308 309 307 301 301 302 301 302 302 302

GFSGBSN_850_thetae_117.txt.gz
Theta_e
307 306 304 303 300 298 298 297 298 296 296 296 296 296 295 296 296 296 296 296 296 296 296 296 296 296 297 302 301 303 305 306 306 306 306 306 306 308 314 312 312 310 313 315 317 318 319
308 305 304 302 299 299 300 298 296 296 295 295 295 295 296 296 296 296 296 296 296 296 296 296 296 296 298 301 302 303 304 304 304 305 305 305 306 306 306 308 312 313 313 314 316 317 318
307 304 300 299 298 301 302 300 296 295 295 295 295 295 295 295 296 296 296 296 296 297 297 298 298 297 298 299 305 304 304 304 305 306 305 305 305 306 306 306 309 313 314 315 316 316 317
305 303 301 299 301 299 297 297 295 294 294 294 295 295 295 295 295 295 296 296 297 299 300 301 300 300 303 306 305 304 303 303 303 304 305 305 305 305 305 306 306 306 309 312 314 316 317
305 302 300 298 297 296 296 296 294 294 294 294 294 294 295 295 295 295 296 297 300 301 302 303 303 305 306 305 304 303 305 306 306 306 304 304 307 307 306 305 307 305 307 310 314 315 316
304 301 300 297 300 296 295 294 294 294 294 294 294 294 294 295 295 295 299 301 302 303 303 304 304 304 303 303 304 304 305 305 306 306 306 304 304 307 306 304 306 307 307 308 313 314 316
302 299 299 304 299 295 294 295 294 294 294 294 294 294 294 294 295 301 303 301 301 305 301 301 301 301 301 305 305 305 305 305 307 307 306 306 302 305 307 305 305 306 309 309 312 314 316
299 301 303 299 295 296 297 296 294 294 293 293 293 294 294 294 300 304 304 302 302 302 301 302 303 303 304 305 304 305 306 307 306 306 307 307 305 304 305 309 308 305 306 310 313 315 317
301 302 298 298 298 298 295 294 294 293 293 293 293 294 294 295 302 303 303 302 302 302 301 303 305 304 305 304 305 306 308 306 304 306 307 307 307 305 305 307 310 305 306 307 311 315 317
299 300 299 298 298 297 294 294 293 293 293 292 293 293 294 295 302 304 302 302 301 302 300 308 305 305 303 304 307 307 308 304 304 304 304 305 304 304 305 306 308 305 305 307 309 311 321
300 299 298 298 297 295 294 293 293 293 292 293 293 294 296 300 300 304 303 300 303 303 306 306 304 303 303 306 305 306 307 305 304 304 305 307 308 310 310 309 309 306 306 306 309 313 317
299 298 298 297 297 294 293 293 292 292 293 293 294 294 302 302 304 303 302 303 304 306 307 304 302 302 303 305 305 306 308 309 309 305 306 307 307 309 310 310 309 307 306 308 314 316 318
298 297 296 296 297 296 293 293 292 293 294 293 294 294 294 298 304 302 300 304 305 307 304 301 301 303 304 305 305 306 308 309 309 308 308 307 308 310 312 313 312 307 306 315 318 318 315
297 297 296 295 297 295 294 292 292 293 294 294 294 294 300 301 300 298 304 304 308 303 301 302 303 304 304 305 305 307 309 308 309 310 312 310 314 312 312 313 310 308 312 313 317 315 313
297 296 295 295 296 296 292 292 292 294 294 295 300 302 303 300 298 302 304 301 302 300 301 302 303 304 304 305 304 307 308 309 307 308 312 312 312 311 312 313 312 311 312 313 316 317 317
297 295 294 295 295 294 291 292 293 294 294 294 302 302 303 302 298 305 302 305 302 302 302 303 303 305 304 303 305 301 308 307 307 307 310 312 313 311 313 314 312 311 311 314 318 320 322
297 295 297 297 296 292 291 292 293 294 294 300 302 304 304 301 302 305 298 304 303 302 303 303 303 304 304 304 304 307 306 306 305 309 309 311 313 312 312 315 313 312 312 315 315 315 317
296 296 296 295 294 294 291 292 293 295 296 301 303 303 302 295 304 306 300 302 302 302 303 304 304 304 305 305 305 307 308 307 305 307 309 310 311 314 311 312 312 313 314 313 313 316 314
297 295 296 296 294 295 293 293 294 295 300 302 303 303 299 300 302 302 304 303 303 303 303 303 304 305 305 304 305 306 307 307 304 306 309 310 311 312 313 312 313 314 312 312 313 314 313
296 295 294 293 294 294 292 294 295 296 298 301 303 300 303 302 302 302 302 304 303 304 303 303 304 306 304 303 303 305 306 305 304 304 306 309 312 312 310 310 311 313 315 315 313 313 313
295 295 294 293 295 294 292 294 295 296 298 302 301 301 301 300 302 300 301 302 303 303 303 302 303 303 302 302 303 305 304 304 304 305 305 307 310 311 311 312 311 313 315 315 315 314 313
295 295 294 294 293 293 292 294 296 297 298 301 298 303 302 302 301 300 301 302 302 302 301 302 302 302 301 301 304 303 303 303 304 305 305 306 309 310 311 312 311 314 314 314 314 315 315
295 294 293 295 295 294 292 294 296 298 298 300 300 301 301 302 301 301 302 301 302 302 302 302 301 300 302 303 303 303 303 303 303 304 305 306 308 309 312 312 312 316 315 314 313 315 316
295 295 295 294 294 294 294 293 296 297 299 299 300 300 301 298 301 302 303 302 302 302 302 302 303 302 303 302 303 304 304 305 306 306 306 307 308 308 311 311 314 312 310 313 311 309 309
295 294 294 294 294 294 294 292 295 297 299 300 299 300 301 298 301 301 303 303 301 303 303 303 304 303 302 303 303 304 305 307 308 308 308 308 308 307 309 310 313 309 307 308 312 309 306
295 294 294 294 293 293 293 292 295 297 298 298 299 300 300 300 301 302 301 303 301 300 300 303 302 302 304 302 300 305 307 309 309 309 308 309 308 308 307 310 312 307 304 305 307 307 305
295 294 294 294 294 293 293 292 294 297 298 298 298 298 298 299 300 300 301 301 302 301 300 303 302 302 303 298 302 304 306 307 308 308 307 307 306 307 307 309 309 303 304 305 308 307 303
294 294 294 293 293 293 293 293 293 296 297 297 298 298 297 298 297 298 300 303 302 302 300 302 299 300 299 299 304 303 303 304 306 309 309 307 305 302 306 306 307 301 303 305 303 303 303
295 295 294 293 293 293 293 293 292 295 296 296 297 297 297 297 297 298 298 300 299 299 302 302 301 301 301 298 299 301 301 302 304 309 307 308 307 306 304 304 300 299 299 298 299 299 299

GFSGBSN_850_thetae_120.txt.gz
Theta_e
321 318 316 309 304 302 300 298 297 297 297 296 297 297 296 296 297 297 297 297 297 297 296 296 296 297 298 299 300 302 302 304 305 305 305 305 305 306 304 310 308 310 309 309 310 312 314
321 316 316 308 304 302 299 298 297 298 296 296 296 296 296 296 296 297 297 297 297 296 296 297 298 298 298 299 301 303 304 303 303 304 305 305 305 305 305 304 304 307 307 310 311 311 312
317 314 314 308 305 300 299 298 297 296 296 295 295 296 296 296 296 296 296 296 297 296 299 299 300 299 299 301 304 303 303 303 304 305 303 304 304 305 305 304 305 306 304 305 308 312 313
316 315 313 308 304 300 298 297 296 296 296 295 295 295 296 296 296 296 296 296 297 299 300 300 302 302 302 304 304 303 303 303 305 305 306 306 305 303 304 305 305 305 305 305 306 309 312
315 313 311 306 303 299 298 296 296 296 295 296 295 295 295 295 295 295 296 299 299 301 301 302 302 304 303 304 304 304 304 303 305 305 305 306 306 304 305 305 304 304 304 304 305 307 310
315 311 308 306 300 299 297 297 296 296 295 295 295 295 295 295 295 297 301 301 301 302 303 303 303 303 303 303 304 304 304 304 305 305 306 306 305 302 302 303 305 304 304 304 304 305 308
313 309 306 302 300 297 298 298 296 295 295 295 294 294 294 294 298 304 302 301 299 302 301 300 302 302 302 304 304 304 305 306 306 306 306 306 303 303 304 303 305 305 305 304 304 305 306
310 307 305 302 298 299 302 296 295 295 294 294 294 294 294 294 303 303 302 301 301 300 301 301 302 302 304 304 303 304 306 307 306 305 304 305 306 306 306 305 303 303 306 307 306 305 306
308 305 303 300 299 300 298 295 295 294 294 294 294 294 294 295 303 303 302 302 301 301 301 302 304 304 304 304 304 304 306 307 303 303 305 306 306 305 306 306 306 304 304 305 307 305 305
306 304 301 300 302 298 296 294 294 294 293 293 293 294 294 297 303 303 302 302 300 302 300 308 305 305 303 303 305 304 306 306 303 304 304 304 304 304 305 306 307 306 304 305 307 305 306
304 302 301 300 299 295 297 296 294 293 293 293 293 294 295 298 302 303 303 301 302 304 304 306 303 302 303 304 305 305 306 305 305 305 303 305 306 308 308 309 310 308 305 304 307 306 305
302 301 301 298 298 298 298 295 293 293 292 293 294 294 301 302 303 303 302 302 304 303 305 303 301 302 302 303 304 305 307 308 307 305 303 304 305 306 307 308 310 309 306 308 306 306 307
300 299 298 298 298 298 296 293 293 292 293 293 294 294 300 301 303 301 299 305 304 304 302 301 300 302 302 303 304 306 308 307 307 309 308 309 309 310 311 312 311 310 308 308 308 309 315
300 299 298 297 297 297 294 294 292 293 294 294 294 294 296 300 297 300 304 302 305 302 300 301 302 303 303 303 303 306 308 308 306 307 309 310 310 310 309 311 313 312 308 307 311 316 314
298 297 297 296 297 296 295 292 292 294 294 295 300 297 300 298 296 304 305 302 301 300 301 301 302 303 303 303 301 304 304 307 306 307 310 311 311 309 309 310 313 309 306 306 314 316 314
297 297 296 297 297 295 292 292 292 294 294 300 302 303 302 300 302 304 300 305 301 302 302 302 303 304 303 303 302 296 304 305 306 305 308 309 312 311 311 312 313 312 309 313 315 317 317
297 295 296 296 296 294 292 292 293 294 294 296 302 303 303 302 301 305 299 302 302 301 302 302 303 303 303 304 303 301 305 305 303 304 307 309 311 311 312 313 313 313 311 313 315 315 319
297 296 297 297 296 292 292 292 293 295 298 301 303 301 302 298 303 301 298 303 302 302 302 303 303 304 305 304 303 305 306 306 304 303 305 308 312 312 311 311 312 313 314 314 314 318 316
297 296 296 296 294 295 292 293 294 295 299 302 304 302 301 301 300 301 304 303 302 303 302 303 302 305 304 303 302 304 305 305 303 303 303 307 310 311 309 310 310 311 311 312 314 314 316
297 296 297 296 295 295 292 293 294 296 299 302 302 298 301 302 303 300 300 302 302 303 302 302 303 304 302 301 302 302 304 304 303 303 305 306 309 311 311 310 310 312 312 313 314 315 314
296 296 295 294 295 294 292 295 295 296 300 302 301 300 301 296 298 299 300 301 301 303 301 301 302 301 300 300 301 303 303 302 302 303 304 305 307 308 309 311 312 313 313 313 315 316 314
295 295 294 294 295 294 292 295 295 296 300 300 300 301 301 301 300 299 300 301 301 300 300 300 300 300 300 300 302 302 302 302 302 303 303 304 306 308 310 311 311 313 314 312 312 312 317
295 295 295 294 293 293 292 295 296 297 300 300 300 301 301 300 299 298 300 301 302 302 301 301 301 300 300 301 302 302 301 301 302 303 303 304 306 307 310 310 313 310 308 309 308 307 314
295 295 294 295 295 294 292 294 296 297 299 300 300 300 300 296 299 301 302 302 302 303 302 302 303 303 303 302 303 303 303 302 303 303 303 305 306 307 309 309 314 310 305 307 307 306 305
295 295 294 294 294 294 293 293 296 297 299 299 299 300 301 296 300 301 302 302 301 302 301 303 302 301 303 303 302 303 303 306 307 307 307 305 306 306 309 309 312 307 304 306 307 306 305
295 295 295 295 294 294 294 292 295 297 299 299 298 300 300 298 299 301 301 301 299 299 299 302 301 301 302 300 298 304 306 307 308 307 306 307 307 306 307 310 309 305 302 303 304 306 303
296 295 294 294 294 294 293 292 294 297 298 298 299 299 298 298 299 300 299 300 301 300 298 300 301 301 301 295 301 302 305 306 306 307 307 306 305 305 306 308 307 301 301 302 305 305 302
296 295 294 294 294 293 293 292 293 296 297 297 297 297 297 297 297 297 299 300 302 301 298 301 297 299 297 298 301 300 301 303 305 306 307 305 304 305 303 304 304 299 300 302 301 298 300
295 294 295 294 294 293 293 293 292 295 297 297 298 297 297 297 297 299 298 298 299 301 300 301 300 300 301 296 296 298 300 300 302 303 306 307 305 303 303 302 299 297 297 297 298 297 297

GFSGBSN_850_thetae_123.txt.gz
Theta_e
326 323 323 322 322 316 309 306 303 300 299 298 298 298 297 297 297 297 297 297 298 297 297 298 298 299 300 300 300 301 302 303 304 304 305 305 305 305 303 303 304 303 306 309 308 309 308
326 325 321 324 322 320 309 305 302 300 298 298 298 297 297 297 297 297 297 298 297 297 297 298 299 300 300 299 301 303 303 303 305 305 304 304 304 304 304 303 303 304 304 304 304 305 305
326 325 319 323 323 318 310 304 301 299 301 298 297 297 297 297 296 297 297 297 297 297 298 299 300 302 301 303 304 303 303 303 304 305 305 305 305 304 303 302 304 304 304 304 304 304 304
326 325 321 321 322 320 310 305 300 300 298 297 297 297 296 296 296 296 297 297 297 299 299 300 301 302 302 304 303 303 304 304 304 304 304 305 305 305 303 303 304 304 303 302 303 303 304
324 322 323 320 318 317 307 304 301 298 296 296 296 296 296 295 296 296 297 298 300 300 301 301 301 303 302 303 303 303 304 304 305 306 305 306 305 305 304 303 302 303 302 302 302 303 303
324 323 320 320 315 313 306 302 300 297 296 296 296 296 295 295 295 296 298 300 302 302 302 303 302 303 303 303 303 303 304 305 305 305 304 306 305 302 300 301 302 301 301 301 301 302 303
322 322 318 317 313 309 305 301 299 296 296 296 296 295 295 295 296 300 301 302 301 302 302 300 301 301 303 304 303 303 304 306 305 305 305 305 303 303 302 301 303 303 303 303 303 304 304
319 318 318 315 310 310 303 300 297 299 296 295 295 295 294 295 302 302 302 300 299 299 299 300 301 302 304 303 303 304 305 306 306 305 304 303 303 303 304 304 304 304 304 303 303 303 304
320 317 315 313 309 305 302 299 300 298 296 295 294 294 294 296 303 302 302 301 300 298 300 301 303 304 304 304 304 304 304 306 305 304 303 303 304 305 305 305 305 306 306 306 306 306 303
319 313 312 309 308 304 302 301 300 296 294 294 294 294 294 298 302 302 302 301 298 301 303 307 305 304 303 303 304 304 305 307 303 304 303 303 303 304 303 304 304 305 305 307 310 307 305
315 313 309 307 304 301 302 302 301 294 294 294 293 294 294 299 303 302 302 300 302 303 304 306 303 302 303 304 304 304 305 306 305 305 303 305 305 306 306 306 306 308 308 310 306 305 303
311 309 308 305 302 302 302 302 296 294 293 294 293 294 297 299 303 303 300 303 304 306 306 302 301 301 302 303 304 304 306 306 307 305 303 305 305 304 305 306 307 310 310 307 306 305 307
307 305 304 302 301 300 300 297 294 294 293 293 294 295 300 301 303 303 300 304 304 306 301 301 300 302 302 302 303 305 306 306 305 306 306 307 308 306 306 310 311 309 307 307 307 307 308
301 301 300 300 299 299 296 295 293 293 293 293 294 295 301 302 302 297 304 301 306 303 300 301 301 302 302 302 302 303 306 305 305 305 307 308 307 310 310 309 311 312 306 307 306 312 312
300 300 299 298 298 297 296 293 292 293 294 294 294 295 296 300 298 303 304 303 303 300 301 301 302 303 302 302 300 302 301 306 305 304 307 309 309 307 308 309 311 311 312 309 308 312 314
299 298 298 298 298 297 296 292 292 294 294 296 296 299 301 298 300 304 301 303 301 301 301 301 302 303 302 301 302 294 303 303 303 303 304 308 309 309 310 311 311 312 309 311 312 316 317
298 297 297 298 297 296 293 292 293 294 297 301 302 302 302 302 304 304 300 302 301 301 301 302 302 302 302 303 303 297 302 304 303 302 302 306 309 309 310 312 312 312 314 314 314 316 319
297 296 298 297 297 292 292 292 294 294 296 300 303 299 302 300 303 300 301 304 302 302 302 302 302 303 304 303 301 303 304 305 304 302 302 303 308 309 309 310 311 311 312 313 315 316 316
296 296 296 296 295 292 292 293 294 295 299 302 302 302 301 302 302 303 303 302 302 302 301 302 302 304 302 301 301 302 303 304 303 302 302 303 306 307 306 308 308 310 311 312 314 315 317
297 298 298 297 294 295 292 293 294 296 301 303 302 298 300 300 302 299 300 301 302 302 301 301 302 300 300 300 301 300 301 303 302 302 304 304 307 304 304 307 309 312 312 313 314 315 315
297 296 296 295 294 295 292 294 295 298 300 302 301 300 301 300 298 299 299 300 301 302 300 300 301 300 299 299 300 301 302 301 301 302 303 303 305 306 307 308 309 312 313 312 312 314 316
297 296 296 295 295 294 293 295 295 297 301 300 302 301 300 300 299 298 299 300 300 299 299 299 300 300 299 299 299 300 301 301 301 302 301 301 304 306 307 310 309 306 307 308 308 309 315
296 295 295 296 295 293 294 295 296 298 301 300 301 300 301 298 298 297 298 300 301 300 301 301 301 300 300 300 301 302 301 301 301 301 301 302 304 306 308 309 313 308 305 306 306 305 309
296 295 295 295 294 293 293 295 296 298 300 300 300 300 300 298 298 299 302 301 302 302 301 303 302 302 302 302 303 303 302 301 301 301 301 303 304 305 308 309 310 307 303 306 306 304 303
296 295 295 295 294 294 292 295 297 297 299 300 300 300 300 296 299 300 302 301 300 301 300 302 301 301 301 303 301 302 303 305 306 306 305 302 304 305 307 310 309 307 302 303 305 305 302
295 295 295 296 295 294 292 294 297 297 298 299 299 299 300 299 299 300 300 300 299 299 298 300 301 301 301 298 297 304 306 306 306 305 303 305 303 306 306 310 308 304 300 300 303 304 302
296 295 295 295 295 294 293 292 296 297 299 299 298 299 299 299 299 300 299 299 301 299 298 299 301 300 300 295 301 302 304 304 306 305 304 304 303 304 305 309 305 300 299 300 305 302 300
296 296 296 295 294 294 293 292 295 297 298 298 298 298 298 297 298 299 300 301 301 300 297 300 296 297 297 297 300 299 301 302 304 305 304 305 304 303 302 303 301 298 299 301 300 297 296
297 295 295 295 294 293 293 292 294 297 297 297 298 297 297 297 297 299 299 298 298 300 300 300 299 299 300 294 293 297 299 298 301 302 303 300 304 303 303 302 298 296 297 296 296 296 296